GFSGL_prec_radar_048.txt.gz
Reflectivity
-15 22 3 -20 -20 -20 -20 -20 -20 -20 -20 -20 -20 -20 -20 -20 7 13 19 17 -15 -1 -20 -20 -20 -20 -20 -20 -20 -20 -20 -20 -20 -20 -20 -20 -20 -20 -19 -2 -20 -20 -20
26 -19 -20 -20 -20 -20 -20 -20 -20 -20 -20 -20 -20 -20 -20 3 3 -19 -19 -1 -20 9 -20 -20 -20 -20 -20 -20 -20 -20 -20 -20 3 -20 -20 -20 -20 -20 -20 -18 -20 -20 -20
-20 -20 -20 -20 -20 -20 -20 -20 -20 -20 -20 -20 -20 -20 -0 6 8 4 -3 2 -8 -2 -20 -20 -20 -20 -20 -20 -20 -20 -20 -20 -14 1 -16 -20 -20 -20 -20 -8 -18 -8 -20
-20 -20 -20 -20 -20 -20 -20 -20 -20 -20 -20 -20 -20 -4 -17 -20 -14 -20 -20 -20 -20 -20 -10 1 -20 -20 -20 -20 -20 -20 -20 -20 -6 6 6 -20 -14 -20 -20 -7 -16 -4 -4
-20 -20 -20 -20 -20 -20 -20 -20 -20 -20 -20 -20 -10 1 -16 0 -2 -4 -12 -0 3 2 -16 -20 -20 -20 -20 -20 -20 -20 -20 -16 -5 -13 -0 1 1 -13 7 -15 -8 -13 -13
-20 -20 -20 -20 -20 -20 -20 -20 -20 -20 -20 4 -20 0 2 2 -20 -20 -20 -20 -20 -20 -20 -20 -20 -20 -20 -20 -20 -20 -20 -3 3 3 8 10 11 11 4 3 5 -5 15
-20 -20 -20 -20 -20 -20 -20 -20 -14 -6 -5 3 -2 -9 9 10 -20 -20 -20 -20 -20 -20 -20 -20 -20 -20 -20 -20 -20 -20 -20 9 7 16 14 12 10 18 15 10 11 12 10
-20 -20 -20 -20 -20 -20 -20 -20 -0 -10 -2 -10 -14 -0 10 -20 -20 -20 -20 -20 -20 -20 -20 -20 -20 -20 -20 -13 -3 9 5 4 -2 -6 9 13 10 5 9 14 20 18 12
-20 -20 -20 -20 -20 -20 -20 -20 -20 -20 -10 1 -20 12 -19 -20 -20 -20 -20 -20 -20 -20 -20 -20 -20 -20 -20 -16 7 9 8 7 1 -14 -3 -1 -10 -20 -12 22 9 17 20
-20 -20 -20 -20 -20 -20 -20 -20 -9 -8 -17 -0 0 -20 -20 -20 -20 -20 -20 -18 -9 0 -20 -20 -20 -20 -20 -4 2 8 9 9 2 1 3 5 -8 -15 -19 19 17 18 16
-20 -20 -20 -20 -20 -20 -20 -2 -20 -20 -10 -6 -3 1 -20 -8 -20 -20 -20 -18 1 -1 -2 -20 -20 -20 -20 -20 -10 3 9 3 1 7 6 5 8 9 5 7 8 19 19
-20 -20 -20 -20 -20 -20 -13 -19 -20 -1 -6 -8 9 -0 5 -7 -20 -20 -20 -20 -20 -1 -0 -20 -20 -20 -20 -20 -20 -20 -20 -11 9 5 6 6 9 6 1 1 -1 2 13
-20 -20 -20 -20 -20 -20 -8 -19 -10 -12 3 9 11 5 -13 -16 0 -20 -20 -20 -20 0 -17 -20 -20 -20 -20 -20 -20 -20 -20 -10 -19 -0 4 4 4 6 6 13 11 17 19
-20 -20 -20 -13 -19 -13 -4 -7 -10 -19 -6 -20 -20 -20 -18 -20 -5 -20 -20 -19 -18 -6 -16 -20 -20 -20 -20 -20 -20 -20 -20 -20 -20 -0 2 5 5 7 10 12 13 4 16
-20 -20 -20 -20 -20 -7 -8 -5 -4 -2 -8 -20 -17 7 9 9 -5 -20 -7 0 1 -6 -20 -12 -20 -20 -20 -20 -20 -20 -20 -20 -20 -5 2 3 0 -0 3 9 5 5 13
-20 -20 -15 -10 -20 -20 -20 -20 -20 -20 -20 -20 -20 -18 -9 9 -20 -20 -20 -6 -20 -20 -20 -0 1 2 -20 -20 -20 -20 -20 -20 -20 -20 -5 0 2 0 2 6 5 6 9
-20 -17 -3 -19 1 -19 -20 -10 3 -9 -20 -20 -20 -19 -1 4 -13 -20 -20 3 -20 -20 -2 1 6 3 -19 -20 -20 -20 -20 -20 -20 -20 -20 -4 -4 -4 4 7 7 4 4
-20 -16 2 6 6 6 -10 2 -8 -4 -5 2 -6 -18 2 -20 -20 -10 -20 -19 -0 -14 -20 1 2 2 -20 -20 -20 -20 -20 -20 -20 -20 -20 -20 -4 -3 3 1 4 3 2
-19 -1 4 8 2 8 6 -7 -10 -11 -8 -8 -2 -6 -7 -20 -20 -20 -8 12 0 3 2 -2 -1 3 -20 -20 -20 -20 -20 -20 -20 -20 -20 -20 -10 -20 -4 -1 1 1 -18
-11 2 -5 7 9 8 7 5 -1 0 -14 -5 -13 -2 1 -19 9 11 11 9 12 8 1 -6 -16 0 1 -9 -20 -20 -20 -20 -20 -20 -20 -20 -20 -20 -20 -18 -17 -16 -20
-4 1 3 11 12 11 11 6 4 7 6 -19 0 6 -2 1 5 8 11 16 9 4 9 7 -5 -19 2 2 -20 -20 -20 -20 -20 -20 -20 -20 -20 -20 -20 -20 -19 -20 -20
-3 8 12 10 9 12 14 14 13 5 3 4 4 4 -14 -11 4 6 -8 12 12 13 8 1 6 -2 -5 -14 -20 -20 -20 -20 -20 -20 -20 -20 -18 -20 -20 -20 -20 -20 -20
-1 -7 -8 -12 -9 -5 5 6 10 14 11 11 5 7 7 10 9 7 8 10 11 14 6 -2 -2 1 -4 -2 -16 -20 -20 -20 -20 -20 -20 -20 -20 -20 -20 -20 -20 -20 -20
-1 10 10 11 14 13 15 15 12 -3 14 14 13 14 12 8 9 5 4 9 10 8 9 4 -4 -2 -5 -1 1 -20 -20 -20 -20 -20 -20 -20 -20 -20 -20 -20 -18 -20 -20
6 12 13 12 13 14 13 13 13 16 16 15 13 15 13 14 13 11 8 10 8 11 4 6 -2 -20 -20 -20 -20 -20 -20 -20 -20 -20 -20 -20 -20 -20 -20 -20 -20 -20 -20
1 -1 1 6 11 13 16 16 16 12 11 13 15 15 13 11 10 13 11 10 10 3 1 4 -7 -20 -20 -20 -20 -20 -20 -20 -20 -20 -20 -20 -20 -20 -18 -20 -20 -20 -20

GFSGL_prec_radar_051.txt.gz
Reflectivity
-20 -9 -17 -14 -16 -20 -20 -20 -20 -20 -20 -20 -20 -20 -20 -20 -20 -15 -20 18 -14 -1 -20 9 -1 -19 -20 -20 -20 -20 -20 -20 3 -20 -20 -20 -20 -20 -20 -20 -20 -20 -20
3 20 -20 -19 -20 -20 -20 -20 -20 -20 -20 -20 -20 -20 -20 -20 -20 -20 -20 4 -20 -20 5 6 -20 -20 -20 -20 -20 -20 -20 -20 11 -20 -20 -20 -20 -20 -20 -20 -20 -20 -20
2 -20 -20 -20 -20 -20 -20 -20 -20 -20 -20 -20 -20 -20 -20 -19 -20 -20 -10 -4 -1 4 -15 1 -11 -17 -20 -20 -20 -20 -20 -20 -20 -20 -20 -20 -20 -20 -20 -20 -20 -20 -20
-20 -20 -20 -20 -20 -20 -20 -20 -20 -20 -20 -20 -20 -20 -20 -19 -0 -2 -12 -19 -20 5 7 -17 -8 -20 -20 -20 -20 -20 -20 -20 -20 -20 -20 -20 -20 -20 -20 -20 -15 -20 -20
-20 -20 -20 -20 -20 -20 -20 -20 -20 -20 -20 -20 -20 -20 -9 -20 -9 -20 3 2 2 -7 -5 -20 -20 -20 -20 -20 -20 -20 -20 -20 -20 -20 -20 -15 -20 -20 -8 9 -8 -16 -3
-20 -20 -20 -20 -20 -20 -20 -20 -20 -20 -20 -20 -20 -20 2 -20 -20 -20 -20 -20 -20 -20 -20 -20 -20 -20 -20 -20 -20 -20 -20 -20 -4 4 8 10 11 6 -14 18 18 16 15
-20 -20 -20 -20 -20 -20 -20 -20 -20 -20 -20 -20 -20 -20 3 -4 -8 -20 -20 -20 -20 -20 -20 -20 -20 -20 -20 -20 -20 -20 -20 3 4 10 13 10 14 16 9 9 4 12 14
-20 -20 -20 -20 -20 -20 -20 -20 -20 -20 -20 -20 3 8 -20 19 -18 -20 -20 -20 -20 -20 -20 -20 -20 -20 -20 -20 -20 -20 -3 -0 4 4 7 8 6 -19 -7 -3 -1 9 8
-20 -20 -20 -20 -20 -20 -20 -20 -20 -20 -20 -20 -5 7 10 14 -20 -20 -20 -20 -8 -20 -20 -20 -20 -20 -20 -20 -20 -9 -1 1 -8 -14 -20 -20 -20 -20 -17 13 9 18 18
-20 -20 -20 -20 -20 -20 -20 -20 -20 -20 -20 -20 -20 -10 -8 11 -20 -20 -20 -20 4 -10 -9 -20 -19 -20 -20 -20 -20 -4 2 3 -20 -19 -18 3 0 7 10 -1 18 23 20
-20 -14 -18 -20 -20 -20 -20 -20 -20 -20 -20 -20 -5 -7 8 2 6 -20 -20 -20 -1 -0 -10 -13 -6 -20 -20 -20 -20 -9 5 -20 -20 -12 8 -12 9 11 12 11 -3 9 11
1 -15 -20 -20 -20 -20 -20 -20 -20 -20 -20 -20 5 -14 6 0 -20 -14 -20 -20 -20 -15 -1 -5 -2 -20 -20 -20 -20 -20 -20 -20 5 -4 2 6 6 8 6 7 -20 4 12
-11 -20 -20 -20 -20 -20 -20 -20 -20 -20 -20 -20 12 15 13 11 11 -20 -20 -20 -20 -19 -1 -19 -20 -20 -20 -20 -20 -20 -20 -1 -20 -13 2 2 6 -15 5 14 12 10 15
-20 -20 -20 -20 -20 -20 -20 -20 -18 -20 -17 -20 -12 -5 -17 8 -0 8 3 -19 -18 -20 -16 5 -20 -20 -20 -20 -20 -13 -20 -8 -20 -20 -4 3 4 2 3 5 11 6 4
-20 -20 -20 -20 -20 -20 -20 -20 -11 -7 0 -12 -12 -15 3 9 8 -20 -5 -19 6 1 -20 -20 -5 3 -1 -4 -20 -20 -20 -20 -20 -20 -20 -7 -5 -2 2 -9 5 6 7
-20 -20 -20 -20 -20 -20 -20 -20 -1 -19 -20 -20 -20 -20 -20 -15 -18 -4 -20 -20 -20 -12 -9 -2 2 10 6 3 -2 -20 -20 -20 -20 -20 -20 -20 -6 -3 -5 4 6 5 6
-20 -20 -20 -20 -20 -20 -20 -1 0 -0 -20 -20 -20 -20 -20 -20 -20 -12 9 -20 -14 -11 -4 0 7 8 7 3 -3 -20 -20 -20 -20 -20 -20 -15 -5 -4 -1 2 5 6 -1
-20 -20 -20 -7 -20 5 5 8 11 11 4 -14 -2 -18 -20 -20 -20 -20 3 -13 10 -5 -4 0 0 5 5 1 -18 -20 -20 -2 -0 -19 -19 -2 -4 -5 -4 -2 -4 -0 2
-20 -20 -14 -11 -9 -20 -5 -13 -15 -0 9 8 -14 -20 -7 -20 -20 -20 -20 9 9 11 8 12 12 1 -9 2 -3 -1 -0 1 0 -5 -3 -3 -2 -4 -7 -4 -4 -0 -20
-20 -20 -20 -18 6 7 8 13 10 10 11 9 13 3 -16 -0 9 5 4 4 9 8 11 8 -2 -7 -12 4 1 -0 1 -12 1 -2 -20 -10 -1 -4 -6 -20 -5 -17 -18
-20 -20 -20 -10 8 11 13 15 14 17 14 14 13 1 -20 -14 9 8 13 13 16 9 10 10 13 11 8 6 2 -0 -5 -2 -0 -4 -3 -3 -20 -5 -9 -20 -20 -20 -20
-20 -20 -13 4 -9 -4 4 9 10 2 11 17 16 14 -9 -5 5 -1 -1 1 1 5 12 8 8 13 8 4 1 1 1 1 -2 -1 -1 -20 -20 -5 -20 -3 -19 -20 -20
11 11 -4 2 6 8 13 12 16 15 14 15 16 17 14 18 12 5 -4 -12 1 5 6 6 5 7 12 2 -14 -13 -1 -2 -5 -11 -20 -20 -20 -7 -20 -2 -20 -20 -20
26 22 5 10 10 11 12 13 14 10 15 17 16 13 15 16 16 15 4 4 12 8 6 7 -1 -12 9 8 -20 -18 -6 -20 -16 -20 -20 -20 -20 -20 -20 -20 -20 -20 -20
15 11 18 13 15 17 18 14 15 18 18 19 15 14 14 12 15 12 12 14 15 9 7 3 5 -12 -12 -20 -20 -20 -20 -20 -20 -20 -20 -20 -20 -20 -20 -20 -20 -20 -20
14 15 13 -15 -9 5 3 4 2 8 7 13 7 15 15 13 12 13 12 -3 14 8 6 4 5 -11 -17 -15 -18 -20 -20 -20 -20 -20 -20 -20 -20 -20 -20 -20 -20 -20 -20

GFSGL_prec_radar_054.txt.gz
Reflectivity
-20 -20 -20 -20 24 0 -20 -20 -20 -20 -20 -20 -20 -20 -20 -20 -20 -20 -20 -20 -20 -20 -20 -20 -20 -20 -20 -20 -20 -20 -20 -8 4 -20 -20 -20 -20 -20 -20 -20 -20 -20 -20
-20 -20 -20 -15 -14 -20 -20 -20 -20 -20 -20 -20 -20 -20 -20 -20 -20 -20 -20 -20 -20 -20 -20 -20 -20 -20 -20 -20 -20 -20 -20 -20 -20 -20 -20 -20 -20 -20 -20 -20 -20 -20 -20
-20 -20 -10 -4 -20 -20 -20 -20 -20 -20 -20 -20 -20 -20 -20 -20 -20 -20 -20 -20 -20 -20 -3 -17 -20 -20 -20 -20 -20 -20 -20 -20 -20 -20 -20 -20 -20 -20 -20 -20 -20 -20 -20
-20 -11 -5 -20 -20 -20 -20 -20 -20 -20 -20 -20 -20 -20 -20 -20 -20 -20 -20 -20 -20 -20 -20 -6 -12 -16 -20 -20 -20 -20 -20 -20 -20 -20 -20 -20 -20 -20 -20 -18 -6 -20 -20
-20 -16 -19 -20 -20 -20 -20 -20 -20 -20 -20 -20 -20 -20 -20 -20 -16 -20 -20 -20 -20 -4 1 -20 -20 -20 -20 -20 -20 -20 -20 -20 -20 -20 -20 -20 -20 -20 -20 -20 2 -14 -20
-17 -20 -20 -20 -20 -20 -20 -20 -20 -20 -20 -20 -20 -20 -20 -20 -20 -20 -19 -20 -20 -20 -20 -20 -20 -20 -20 -20 -20 -20 -20 -20 -20 -20 -20 7 -15 -20 2 12 9 -19 -19
-20 -20 -20 -11 -20 -20 -20 -20 -18 -20 -20 -20 -20 -20 -20 -20 -20 -19 11 -16 -20 -20 -20 -20 -20 -20 -20 -20 -20 -20 -20 -20 -17 3 -5 5 14 -7 -18 -20 -20 -20 -20
-19 -7 -12 11 0 -20 -10 -7 -15 -20 -20 -20 -20 -20 -20 -20 -20 -18 3 -19 -20 -20 -20 -20 -20 -20 -20 -20 -20 -20 -20 -20 -20 -20 3 -17 -20 -20 -20 -20 -20 -20 -20
-20 6 -5 8 14 8 -1 -17 -20 -20 -20 -20 -20 -20 -20 -20 -20 -20 -20 -20 -20 -20 -20 -20 -20 -20 -20 -20 -20 -20 -20 -20 -20 -17 -20 -20 -20 -19 -20 -12 -19 0 -20
-17 -18 -0 15 4 -4 -11 -20 -20 -20 -20 -20 -20 -20 -20 -20 -20 -20 -20 -20 -20 -20 -20 -20 -20 -20 -20 -20 -20 -20 -20 -20 -20 -20 -20 -20 -7 -20 6 14 12 14 11
12 -2 0 -6 -2 -20 -20 -20 -20 -20 -12 -20 -20 -20 -20 -20 -12 -20 -20 -20 -20 -20 -20 -20 -20 -20 -20 -20 -20 -20 -20 -20 -20 -20 -14 -20 -6 -5 -8 -14 -20 -20 -20
4 -18 -10 -20 -20 -20 -20 -20 -20 -20 -20 -20 -20 -20 -20 -20 -20 -20 -20 -20 -20 -20 -20 -20 -20 -20 -20 -20 -20 -20 -20 -20 -20 -20 -20 -20 -20 -11 -20 -20 -20 -4 6
-9 -9 -2 -19 -20 -20 -20 -20 -20 -20 -20 -20 -20 -20 -20 6 -20 7 -20 -20 -20 -20 -20 -20 -20 -20 -20 -20 -20 -20 -20 -20 -20 -20 -20 -20 -20 -12 -20 -20 -19 -20 -20
-3 -14 -20 -20 -20 -20 -20 -20 -20 -20 -16 -20 -20 -18 -19 -20 -20 -20 -19 -20 -18 -20 -20 -20 -20 -20 -20 -20 -20 -20 -20 -20 -20 -20 -20 -20 -20 -20 -20 -20 -20 -20 -20
-20 -20 -20 -20 -20 -20 -20 -20 -20 -16 -20 -20 -20 -19 -20 -20 -20 -20 -5 -3 -3 -4 -19 -20 -20 -20 -6 -20 -20 -20 -20 -20 -20 -20 -20 -20 -20 -20 -20 -20 -20 -20 -8
-20 -20 -20 -20 -20 -20 -20 -20 -20 -20 -20 -15 -20 -20 -20 -20 -20 -20 -20 -20 -20 -20 -20 -19 -20 -20 5 -20 -20 -20 -20 -20 -20 -20 -20 -20 -20 -20 -20 -20 -4 1 -20
-20 -20 -20 -20 -20 -20 -20 -20 -20 -20 -16 -20 -20 -20 -20 -20 -20 -20 -20 -1 -20 -20 -20 -20 -20 -20 -1 -19 -20 -20 -20 -20 -20 -20 -20 -20 -20 -20 -20 -20 -4 -20 -20
-20 -20 -20 -20 -20 -20 -20 -20 -7 -14 -20 -20 -20 -20 -20 -20 -20 -20 -20 -6 5 7 -20 -20 -20 -20 -2 -5 -20 -20 -20 -20 -20 -20 -20 -20 -20 -20 -20 -20 -20 -20 -20
-20 -20 -20 -20 -20 -20 -20 -20 -20 -20 -20 -20 -20 -20 -20 -20 -20 -20 -20 -20 -20 -20 -9 -6 -20 -20 -12 -20 -20 -20 -20 -20 -20 -20 -20 -20 -20 -20 -20 -20 -20 -20 -20
-20 -20 -9 -20 -20 -20 -20 -5 2 2 6 -0 -17 -20 -20 -2 -12 -20 -20 -20 -20 -20 -20 -20 -0 2 5 -17 -20 -20 -20 -20 -20 -20 -20 -20 -20 -20 -20 -20 -20 -20 -20
8 21 18 16 -20 -6 30 6 4 8 9 4 10 14 14 5 -8 -8 10 6 -13 -20 -20 -20 -20 -20 -20 -20 -20 -20 -14 -20 -20 -20 -20 -20 -20 -20 -20 -20 -20 -20 -20
8 15 15 15 16 -4 -10 -20 -20 -20 -20 -20 -20 -20 -20 14 2 -20 -20 -20 -15 -12 -14 3 -4 -20 -20 -20 -20 -20 -20 -20 -20 -20 -20 -20 -20 -20 -20 -20 -20 -20 -20
-7 6 6 15 21 -11 -12 -6 8 5 4 8 11 11 12 -1 16 10 -10 -20 -17 -11 -20 -3 -8 -4 -20 -20 -20 -20 -20 -20 -20 -20 -20 -20 -20 -20 -20 -20 -20 -20 -20
-20 -19 2 -16 -8 -1 4 10 8 14 15 14 18 14 8 2 -1 -4 -3 24 26 10 -2 2 3 -20 -20 -20 -20 -20 -20 -20 -20 -20 -20 -20 -20 -20 -20 -20 -20 -20 -20
2 6 10 21 18 11 9 1 -14 -11 -10 -19 -1 4 2 -15 -2 2 14 -16 -19 -5 7 1 2 1 -5 -13 -20 -20 -20 -20 -20 -20 -20 -20 -20 -20 -20 -20 -20 -20 -20
13 17 14 6 1 -4 -15 -12 -11 -11 -5 -15 -4 -8 -3 -4 -13 -20 -20 9 10 -20 -20 9 -7 -14 0 -17 -19 -20 -20 -20 -20 -20 -20 -20 -20 -20 -20 -20 -20 -20 -20

GFSGL_prec_radar_057.txt.gz
Reflectivity
-20 -20 -20 -12 -4 -7 -11 4 -19 -20 -20 -20 -20 -20 -20 -20 -20 -20 -20 -20 -20 -20 -20 -20 -20 -20 -20 -18 -13 -9 -20 -20 -20 -20 -20 -20 -20 -20 -20 -20 -20 -20 -20
-20 -20 -10 -9 -16 15 6 -19 -20 -20 -20 -20 -20 -20 -20 -20 -20 -20 -20 -20 -20 -20 -20 -20 -20 -20 -20 -20 -20 -20 -20 -20 -20 -20 -20 -20 -20 -20 -20 -20 -20 -20 -20
16 -0 -12 -20 -20 -1 -3 -20 -20 -20 -20 -20 -20 -20 -20 -20 -20 -20 -20 -20 -20 -20 -20 -20 -20 -20 -20 -20 -20 -20 -20 -20 -20 -20 -20 -20 -20 -20 -20 -20 -20 -20 -20
-20 -20 -20 -20 -19 -15 -20 -20 -20 -20 -20 -20 -20 -20 -20 -20 -20 -20 -20 -20 -20 -20 -20 -20 -20 -20 -20 -20 -20 -20 -20 -20 -20 -20 -20 -20 -20 -20 -20 -20 -20 -20 -20
-20 -20 -20 -20 -12 -19 -20 -20 -20 -15 4 -0 -20 -20 -20 -20 -20 -20 -20 -20 -11 -20 -20 -20 -20 -20 -20 -20 -20 -20 -20 -20 -20 -20 -20 -20 -20 -20 -20 -20 2 -17 -20
-20 -20 -20 -20 -20 -17 -20 -6 11 15 3 -20 -20 -20 -20 -20 -20 -20 -20 -20 -20 19 -4 -20 -20 -20 -20 -20 -20 -20 -20 -20 -20 -20 -20 -14 -20 -20 6 -20 -20 -20 -20
-20 -20 -19 -20 -14 -13 6 8 -2 -17 -20 -20 -20 -20 -20 -20 -20 -20 -20 -20 -20 -2 -19 -20 -20 -20 -20 -20 -20 -20 -20 -20 -20 -20 -20 -14 0 -20 -20 -20 -20 -20 -20
-20 -20 -20 -11 14 13 -5 -17 -20 -20 -20 -20 -20 -20 -20 -20 -20 -20 -20 -20 -20 -20 -20 -20 -20 -20 -20 -20 -20 -20 -20 -20 -20 -20 -14 -20 -20 -20 -14 5 -7 -20 -20
-20 -20 -3 3 4 5 -3 -19 -18 -20 -20 -20 -20 -20 -20 -20 -20 -20 -20 -20 -20 -20 -20 -20 -20 -20 -20 -20 -20 -20 -20 -20 -20 -20 -20 -20 -20 -20 4 8 2 13 -0
-18 21 -5 11 19 20 7 -5 -20 -20 -20 -20 -20 -20 -20 -20 -20 -20 -20 -20 -20 -20 -20 -20 -20 -20 -20 -20 -20 -20 -20 -20 -20 -20 -20 -20 -20 -20 -1 -1 7 -12 -20
1 -11 -16 -19 -9 -7 -20 -20 -20 -20 -20 -20 -20 -20 -20 -20 -20 -20 -20 -20 -20 -20 -20 -20 -20 -20 -20 -20 -20 -20 -20 -20 -20 -20 -20 -20 -20 -20 -20 -20 -20 -20 7
-12 -20 -10 -8 -20 -20 -20 -20 -20 -20 -20 -20 -20 -20 -20 -20 -20 -20 -19 -20 -20 -20 -20 -20 -20 -20 -20 -20 -20 -20 -20 -20 -20 -20 -20 -20 -20 -20 -20 -20 -20 -20 -20
-20 -20 -20 -20 -20 -20 -20 -20 -20 -20 -20 -20 -20 -20 -20 -20 -20 -20 -20 -20 -20 -20 -20 -20 -20 -20 -20 -20 -20 -20 -20 -20 -20 -20 -20 -20 -20 -20 -20 -20 -20 -20 -20
-20 -20 -20 -20 -20 -20 -20 -20 -20 -20 -20 -20 -20 -20 -20 -17 -20 -20 -20 -20 -20 -20 -20 -20 -20 -20 -20 -20 -20 -20 -20 -20 -20 -20 -20 -20 -20 -20 -20 -20 -20 -20 -20
-20 -20 -20 -20 -20 -20 -20 -20 -20 -20 -20 -20 -20 -20 -20 -20 -20 -20 -20 -20 -20 -20 -18 -17 -20 -20 -20 -20 -20 -20 -20 -20 -20 -20 -20 -20 -20 -20 -20 -20 -20 -20 -7
-20 -20 -20 -20 -20 -20 -20 -20 -20 -20 -20 -20 -20 -14 -20 -20 -20 -20 -20 -20 -20 -20 -15 -20 -20 -20 -20 -20 -20 -20 -20 -20 -20 -20 -20 -20 -20 -20 -20 -20 -20 -20 -20
-20 -20 -20 -20 -20 -20 -20 -20 -20 -20 -20 -20 -20 -20 -20 -20 -20 -20 -20 -20 -20 7 5 -20 -20 -20 -20 -20 -13 -20 -20 -20 -20 -20 -20 -20 -20 -20 -20 -20 -20 -20 -20
-20 -20 -20 -20 -20 -20 -20 -20 -20 -20 -20 -20 -20 -20 -20 -20 -20 -20 -20 -14 4 -20 -20 -20 -20 -20 -20 -20 -12 -20 -20 -20 -20 -20 -20 -20 -20 -20 -20 -20 -20 -20 -20
-20 -20 -20 -18 -8 9 13 13 -20 -20 17 -20 -20 -20 -20 -20 -20 -20 -20 9 -20 -20 -20 -20 -20 -20 -20 -20 -20 -20 -20 -20 -20 -20 -20 -20 -20 -20 -20 -20 -20 -20 -20
-20 -20 -20 -15 7 10 14 12 26 2 17 -7 -12 -18 0 6 -18 -20 -20 -3 -20 -20 -20 -20 -20 -20 -20 -19 -17 -20 -20 -20 -20 -20 -20 -20 -20 -20 -20 -20 -20 -20 -20
-20 -20 -2 -13 -7 -2 6 13 16 20 14 -20 -20 -20 -20 5 6 -20 -20 3 -20 -20 -20 -20 -20 -20 -20 -20 -20 -20 -20 -20 -20 -20 -20 -20 -20 -20 -20 -20 -20 -20 -20
-20 -3 -20 -20 -20 -15 4 -12 21 2 -20 -20 -20 -20 -20 -20 -18 -17 -20 -13 1 2 -4 -18 -19 -20 -20 -20 -20 -20 -20 -20 -20 -20 -20 -20 -20 -20 -20 -20 -20 -20 -20
-20 -20 -20 -20 -20 -14 -17 8 1 -4 3 12 14 -7 -20 24 14 -2 0 -0 -4 -6 8 12 -0 5 -20 -20 -20 -20 -20 -20 -20 -20 -20 -20 -20 -20 -20 -20 -20 -20 -20
-17 -6 4 6 21 -4 26 13 8 13 4 -9 -20 -20 -20 -11 4 -19 -18 -11 17 -0 3 8 10 8 7 -1 -20 -20 -20 -20 -20 -20 -20 -20 -20 -20 -20 -20 -20 -20 -20
-3 -20 -20 -8 1 -15 -19 -20 -20 -20 -20 -19 -20 -20 -18 -20 -20 -20 -20 -20 -20 -20 5 -12 3 -7 -12 2 9 -20 -20 -20 -20 -20 -20 -20 -20 -20 -20 -20 -20 -20 -20
-13 -20 -20 -20 -20 -20 -6 -19 -12 -20 -16 -18 -20 -20 -19 -20 -20 -20 -20 -20 -20 -20 -6 -1 -5 -11 -20 -17 8 5 -20 -19 -18 -20 -20 -20 -20 -20 -20 -20 -20 -20 -20

GFSGL_prec_radar_060.txt.gz
Reflectivity
-20 -20 -20 -20 -20 36 26 7 -20 -14 -19 -17 -20 -20 -20 -20 -20 -20 -20 -20 -20 -20 -20 -20 -20 -20 -20 -20 -20 -20 -2 -16 -20 -20 -20 -20 -20 -20 -20 -20 -20 -20 -20
-20 11 11 4 4 37 11 -3 20 -20 -20 -20 -20 -20 -20 -20 -20 -20 -20 -20 -20 -20 -20 -20 -20 -20 -20 -20 -20 -20 -20 -20 -20 -20 -20 -20 -20 -20 -20 -20 -20 -20 -20
-18 -16 8 28 9 -4 -20 -19 -1 -20 -20 -20 -20 -20 -20 -20 -20 -20 -20 -20 -20 -20 -20 -20 -20 -20 -20 -20 -20 -20 -20 -20 -20 -20 -20 -20 -20 -20 -20 -20 -20 -20 -20
3 7 -7 -3 -20 -20 -20 -20 -20 -20 -20 -20 -20 -20 -20 -20 -20 -20 -20 -20 -20 -20 -20 -20 -20 -20 -20 -20 -20 -20 -20 -20 -20 -20 -20 -20 -20 -20 -20 -20 -20 -20 -20
-12 -20 -20 -20 -20 -20 -20 -20 -20 2 -18 -20 -20 -20 -18 -20 -20 -20 -20 -20 -20 -20 -20 -20 -19 -20 -20 -20 -20 -20 -20 -20 -20 -20 -20 -20 -20 -20 -20 -13 -11 -20 -20
-20 -20 -20 -20 -20 -20 -20 -20 -20 -20 -15 -7 -9 -9 -20 -20 -20 -20 -20 -20 -20 -20 -20 -20 -20 -20 -20 -20 -20 -20 -20 -20 -20 -20 -20 -20 -20 -20 8 -20 -20 -20 -20
-20 -20 -20 -20 -20 -20 1 -20 -20 -20 -20 -20 -20 -20 -20 -20 -20 -20 -20 -20 -20 -20 -20 -20 -20 -20 -20 -20 -20 -20 -20 -20 -20 -20 -20 -20 -20 -20 -20 -20 -20 -3 -20
-20 -20 -20 -20 -19 4 -20 -20 -20 -20 -20 -20 -20 -20 -20 -20 -20 -20 -20 -20 -20 -20 -20 -20 -20 -20 -20 -20 -20 -20 -20 -20 -20 -20 -20 -20 -20 -20 -9 -1 5 -9 -16
-20 -20 -20 0 -3 -20 -20 -20 -20 -20 -20 -20 -20 -20 -20 -20 -20 -20 -20 -20 -20 -20 -20 -20 -20 -20 -20 -20 -20 -20 -20 -20 -20 -20 -20 -20 -20 -20 -20 -15 -20 -0 -20
-20 -13 19 -19 -20 -20 -20 -20 -20 -20 -20 -20 -20 -20 -20 -20 -20 -20 -20 -20 -20 -20 -20 -20 -20 -20 -20 -20 -20 -20 -20 -20 -20 -20 -20 -20 -20 -20 -20 -20 -20 -18 3
8 3 -20 -20 -20 -20 -20 -20 -20 -20 -20 -20 -20 -20 -20 -20 -20 -20 -20 -20 -20 -20 -20 -20 -20 -20 -20 -20 -20 -20 -20 -20 -20 -20 -20 -20 -20 -20 -20 -20 -20 -20 -17
-20 -20 -20 -20 -20 -20 -20 -20 -20 -20 -20 -20 -20 -20 -20 -20 -20 -20 -20 -20 -20 -20 -20 -20 -20 -20 -20 -20 -20 -20 -20 -20 -20 -20 -20 -20 -20 -20 -20 -20 -20 -20 -20
-20 -20 -20 -20 -20 -20 -20 -20 -20 -20 -20 -20 -20 -20 -20 -20 -20 -20 -20 -20 -20 1 -20 -20 -20 -20 -20 -20 -20 -20 -20 -20 -20 -20 -20 -20 -20 -20 -20 -20 -20 -20 -20
-20 -20 -20 -20 -20 -20 -20 -20 -20 -20 -20 -20 -20 -20 -20 -20 -20 -20 -20 -17 -19 -0 -20 -1 -20 -17 -20 -20 -20 -20 -20 -20 -20 -20 -20 -20 -20 -20 -20 -20 -20 -20 -20
-20 -20 -20 -20 -20 -20 -20 -20 -20 -20 -20 -20 -20 -20 -20 -20 -20 -20 -20 -20 -20 -20 -20 -20 -20 -12 -20 -20 -20 -20 -20 -20 -20 -20 -20 -20 -20 -20 -20 -20 -20 -20 -20
-20 -20 -20 -20 -20 -20 -20 -20 -20 -20 -20 -20 -20 -20 -20 -20 -20 -20 -20 -20 -20 -11 -9 -20 -20 -20 -20 -20 -20 -20 -20 -20 -20 -20 -20 -20 -20 -20 -20 -20 -20 -20 -20
-20 -20 -20 -20 -20 -20 -20 -16 3 -20 -20 -20 -6 -10 -8 -20 -20 -20 -20 -20 -20 -5 13 -20 -20 -20 -20 -20 -20 -20 -20 -20 -20 -20 -20 -20 -20 -20 -20 -20 -20 -20 -20
-20 -20 -20 -20 -20 -20 -20 -20 2 -5 -17 -18 3 11 -2 -20 -20 -20 -20 -14 2 -20 -20 -20 -20 -20 -20 -20 -20 -20 -20 -20 -20 -20 -20 -20 -20 -20 -20 -20 -20 -20 -20
-20 -20 -20 -20 -20 2 -6 -4 8 5 7 -15 -7 23 6 -6 -20 -20 -20 -12 7 -10 -20 -20 -20 -20 -20 -20 -20 -20 -20 -20 -20 -20 -20 -20 -20 -20 -20 -20 -20 -20 -20
-20 -20 -20 -20 -16 -20 -20 -20 -20 3 -2 12 16 12 -20 -20 -20 -20 -20 -20 -20 -20 -20 -20 -20 -20 -20 -20 -20 -20 -20 -20 -20 -20 -20 -20 -20 -20 -20 -20 -20 -20 -20
-20 -20 -20 -20 -20 -20 -20 -20 -20 2 15 13 -15 -20 -13 9 -14 -20 -20 -20 -20 -20 7 19 -20 -20 -20 -20 -20 -20 -20 -20 -20 -20 -20 -20 -20 -20 -20 -20 -20 -20 -20
-20 -20 -20 -19 -17 5 10 6 1 19 24 21 -2 -19 -20 -16 -8 -6 19 19 11 -5 -18 11 21 4 -20 -20 -20 -20 -20 -20 -20 -20 -20 -20 -20 -20 -20 -20 -20 -20 -20
-9 -20 -20 -20 -20 -20 -20 -20 -1 10 15 13 7 7 -16 -20 -18 -20 -19 -10 -20 -6 -7 11 -10 -9 7 10 -4 -13 -20 -20 -20 -20 -20 -20 -20 -20 -20 -20 -20 -20 -20
-20 -20 -20 -20 -20 -20 -18 -20 -18 -20 -20 -20 -20 -20 -8 -20 -20 -20 -20 -20 -20 -20 -17 -20 -11 10 -0 2 -17 5 14 -16 -11 -20 -20 -20 -20 -20 -20 -20 -20 -20 -20
-20 -20 -20 -20 -20 -20 -20 -20 -20 -20 -20 -20 -20 -20 -20 -20 -20 -20 -20 -20 -20 -20 -20 -20 -15 -3 5 2 -3 -6 3 12 -15 -20 -20 -20 -20 -20 -20 -20 -20 -20 -20
-20 -20 -20 -20 -20 -20 -20 -20 -20 -20 -20 -20 -20 -20 -20 -20 -20 -19 -20 -20 -20 -20 -20 -20 -20 7 -20 -20 -18 3 -8 18 -20 -20 -20 -20 -20 -20 -20 -20 -20 -20 -20

GFSGL_prec_radar_063.txt.gz
Reflectivity
-20 -20 -20 -20 -20 -20 -20 -14 25 27 10 -20 -20 -20 -20 -20 -20 -20 -20 -20 -20 -20 -20 -20 -20 -20 -20 -20 -20 -20 -20 -19 -20 -20 -20 -20 -20 -20 -20 -20 -20 -20 -20
-20 -20 -20 -20 -20 -20 16 26 0 1 -20 -20 -20 -20 -20 -20 -20 -20 -20 -20 -20 -20 -20 -20 -20 -20 -20 -20 -20 -20 -20 -20 -20 -20 -20 -20 -20 -20 -20 -20 -20 -20 -20
-20 -10 8 -8 -15 10 9 14 -20 -20 -20 -20 2 -15 -20 -20 -20 -20 -20 -20 -20 -20 -20 -20 -20 -20 -20 -20 -20 -20 -20 -20 -20 -20 -20 -20 -20 -20 -20 -20 -20 -20 -20
18 10 18 10 15 4 -19 -20 -20 -20 -20 -20 -20 -20 -20 -20 -20 -20 -20 -20 -20 -20 -20 -20 -20 -20 -20 -20 -20 -20 -20 -20 -20 -20 -20 -20 -20 -20 -20 -20 -20 -20 -20
24 8 -0 -10 -20 -20 -20 -20 -20 -19 -20 -20 -20 -20 -20 -20 -20 -20 -20 -20 -20 -20 -20 -20 -20 -20 -20 -20 -20 -20 -20 -20 -20 -20 -20 -20 -20 -20 -20 -20 -12 -20 -20
20 4 13 -20 -20 -20 -20 -19 -20 -15 -20 -20 -20 -20 -20 -20 -20 -20 -20 -20 -20 -20 -20 -20 -20 -20 -20 -20 -20 -20 -20 -20 -20 -20 -20 -20 -20 -20 -20 -20 -20 -20 -20
-4 -20 -20 -20 -20 -20 -20 -20 -5 -20 -20 -20 -20 -20 -20 -20 -20 -20 -20 -20 -20 -20 -20 -20 -20 -20 -20 -20 -20 -20 -20 -20 -20 -20 -20 -20 -20 -20 -20 -20 -20 -20 -8
-20 -20 -20 -20 -20 -20 -12 -4 -20 -20 -20 -20 -20 -20 -20 -20 -20 -20 -20 -20 -20 -20 -20 -20 -20 -20 -20 -20 -20 -20 -20 -20 -20 -20 -20 -20 -20 -20 -20 -17 2 -8 -20
-20 -20 -20 -16 -19 13 -10 -19 -20 -20 -20 -20 -20 -20 -20 -20 -20 -20 -20 -20 -20 -20 -20 -20 -20 -20 -20 -20 -20 -20 -20 -20 -20 -20 -20 -20 -20 -20 -20 -20 -20 -20 -20
-20 -7 -16 -16 16 -12 -20 -20 -20 -20 -20 -20 -20 -20 -20 -20 -20 -20 -20 -20 -20 -20 -20 -20 -19 -20 -20 -20 -20 -20 -20 -20 -20 -20 -20 -20 -20 -20 -20 -20 -20 -20 -20
-20 -13 13 -16 -20 -20 -20 -20 -20 -20 -20 -20 -20 -20 -20 -20 -20 -20 -20 -20 -20 -20 -20 -20 -20 -20 -20 -20 -20 -20 -20 -20 -20 -20 -20 -20 -20 -20 -20 -20 -20 -20 -20
-4 -14 -20 -20 -20 -20 -20 -20 -20 -20 -20 -20 -20 -20 -20 -20 -20 -20 -20 -20 -20 -20 -20 -20 -20 -20 -20 -20 -20 -20 -20 -20 -20 -20 -20 -20 -20 -20 -20 -20 -20 -20 -20
-20 -20 -20 -20 -20 -20 -20 -20 -20 -20 -20 -20 -20 -20 -20 -20 -20 -20 -20 -20 -20 0 -20 -20 3 -8 3 -20 -20 -20 -20 -20 -20 -20 -20 -20 -20 -20 -20 -20 -20 -20 -20
-20 -20 -20 -20 -20 -20 -20 -20 -20 -20 -20 -20 -20 -20 -20 -20 -20 -20 -20 -20 -20 -6 -7 -17 -20 -6 -12 -4 -18 -20 -20 -20 -20 -20 -20 -20 -20 -20 -20 -20 -20 -20 -20
-20 -20 -20 -20 -20 -20 -20 -20 -20 -20 -20 -20 -20 -20 -20 -20 -20 -20 -20 -20 -20 -20 -20 -20 -20 -20 -20 -20 -20 -19 -20 -20 -20 -20 -20 -20 -20 -20 -20 -20 -20 -20 -20
-20 -20 -20 -20 -20 -20 -20 -20 -20 -20 -20 -20 -20 -17 -20 -20 6 -14 -11 -20 -20 -20 -20 -20 -20 -20 -20 -20 -20 -20 -20 -20 -20 -20 -20 -20 -20 -20 -20 -20 -20 -20 -20
-20 -20 -20 -20 -20 -20 -20 -4 -7 -20 -13 -19 -19 1 -20 -20 -13 41 31 -20 -20 -20 -6 -20 -20 -20 -20 -11 -20 -20 -20 -20 -20 -20 -20 -20 -20 -20 -20 -20 -20 -20 -20
-20 -20 -20 -20 -20 -20 -20 -6 4 -10 -20 -20 -20 0 -2 -17 12 29 34 9 -6 -18 13 -17 -20 -20 -20 -20 -12 -20 -20 -20 -20 -20 -20 -20 -20 -20 -20 -20 -20 -20 -20
-20 -20 -20 -20 -20 -20 -20 -20 -20 -20 -19 -20 -19 -20 -7 14 -14 -11 -8 -4 -20 -20 -20 -20 -8 -3 -6 -20 -20 -20 -20 -20 -20 -20 -20 -20 -20 -20 -20 -20 -20 -20 -20
-20 -20 -20 -20 -20 -20 -9 -13 -10 -8 -18 -7 7 23 21 -11 -20 -20 -20 -20 -20 -20 -20 -12 -20 -10 -9 -11 -20 -9 -20 -20 -20 -20 -20 -20 -20 -20 -20 -20 -20 -20 -20
-20 -20 -20 -20 -20 -20 -20 -20 -19 -20 -20 -20 4 3 14 14 2 -20 -20 -20 -9 -17 3 10 3 -7 -3 13 10 1 -20 -20 -20 -20 -20 -20 -20 -20 -20 -20 -20 -20 -20
-20 -20 -20 -20 -20 -20 -5 -20 -20 -20 -14 -20 -20 -17 5 8 9 9 -4 -19 1 3 -3 -11 -20 -14 12 14 0 13 -3 -20 -20 -20 -20 -20 -20 -20 -20 -20 -20 -20 -20
-20 -20 -20 -20 -20 -20 -20 -20 -20 -20 -20 -20 -20 -20 -20 -20 -20 -20 -20 -20 -20 -7 -6 -20 -20 -20 -20 -8 17 8 10 9 -8 -3 -20 -20 -20 -20 -20 -20 -20 -20 -20
-20 -20 -20 -20 -20 -20 -20 -20 -20 -20 -20 -20 -20 -20 -20 -20 -20 -20 -20 -20 -20 -20 -16 -20 -20 -20 -20 -20 -19 5 11 9 11 8 -20 -20 -20 -20 -20 -20 -20 -20 -20
-20 -20 -20 -20 -20 -20 -20 -20 -20 -20 -20 -20 -20 -20 -20 -20 -20 -20 -20 -20 -20 -20 -20 -20 -20 -20 -20 -20 -20 -20 5 -6 15 13 -12 -20 -20 -20 -20 -20 -20 -20 -20
-20 -20 -20 -20 -20 -20 -20 -20 -20 -20 -20 -20 -20 -20 -20 -20 -20 -20 -20 -20 -20 -20 -20 -20 -20 -20 -20 -20 -18 -20 -20 -9 20 15 -10 -20 -20 -20 -20 -20 -20 -20 -20

GFSGL_prec_radar_066.txt.gz
Reflectivity
-20 -20 -5 -20 -20 -15 -5 -20 -18 -20 12 9 12 -20 -20 -19 -20 -20 -20 -20 -20 -20 -20 -20 -20 -20 -20 -20 -20 -20 -20 -20 -20 -20 -20 -20 -20 -20 -20 -20 -20 -20 -20
-20 -20 7 -20 -20 -11 -17 -13 36 29 34 -19 -20 -20 -20 -20 -20 -20 -20 -20 -20 -20 -20 -20 -20 -20 -20 -20 -20 -20 -20 -20 -20 -20 -20 -20 -20 -20 -20 -20 -20 -20 -20
15 13 1 -20 -16 20 -9 31 -12 -17 -20 -20 -7 -20 -20 -20 -20 -20 -20 -20 -20 -20 -20 -20 -20 -20 -20 -20 -20 -20 -20 -19 -20 -20 -20 -20 -20 -20 -20 -20 -20 -20 -20
19 23 -4 8 -8 -14 -20 -18 -20 -20 -20 -20 -20 -20 -20 -20 -20 -20 -20 -20 -20 -20 -20 -20 -20 -20 -20 -20 -20 -20 -20 -20 -20 -20 -20 -20 -20 -20 -20 -20 -20 -20 -20
26 -13 27 37 -11 -20 8 3 -20 -19 -20 -20 -20 -20 -20 -20 -20 -20 -20 -20 -20 -20 -20 -20 -20 -20 -20 -20 -19 -20 -20 -20 -20 -20 -20 -20 -20 -20 -20 -20 -20 -20 -20
20 26 32 3 -15 2 16 -20 4 -20 -20 -20 -20 -20 -20 -20 -20 -20 -20 -20 -20 -20 -20 -20 -20 -20 -20 -20 -20 -20 -20 -20 -20 -20 -20 -20 -20 -20 -20 -20 -20 -20 -8
9 -6 -11 -15 10 -4 -20 -20 -18 -20 -20 -20 -20 -20 -20 -20 -20 -20 -20 -20 -20 -20 -20 -20 -20 -20 -20 -20 -20 -20 -20 -20 -20 -20 -20 -20 -20 -20 -20 -20 -20 -2 -2
-19 -12 4 7 -20 -20 -15 17 -18 -20 -20 -20 -20 -20 -20 -20 -20 -20 -20 -20 -20 -20 -20 -20 -20 -20 -20 -20 -20 -20 -20 -20 -20 -20 -20 -20 -20 -20 -20 -20 -20 -20 -20
-1 8 -7 -20 -3 -19 -3 -20 -20 -20 -20 -20 -20 -20 -20 -20 -20 -20 -20 -20 -20 -20 -20 -20 -20 -20 -20 -20 -20 -20 -20 -20 -20 -20 -20 -20 -20 -20 -20 -20 -20 -20 -20
-17 -17 -20 -1 -20 -17 -20 -20 -20 -20 -20 -20 -20 -20 -20 -20 -20 -20 -20 -20 -20 -20 -20 -20 -20 -20 -20 -19 -19 -20 -20 -20 -20 -20 -20 -20 -20 -20 -20 -20 -20 -20 -20
-20 -20 -6 -15 -20 -20 -20 -20 -20 -20 -20 -20 -20 -20 -20 -20 -20 -20 -20 -20 -20 -20 -20 -20 -20 -20 -20 -20 -20 -20 -20 -20 -20 -20 -20 -20 -20 -20 -20 -20 -20 -20 -20
-19 -20 -20 -20 -20 -20 -20 -20 -20 -20 -20 -20 -20 -20 -20 -20 -20 -20 -20 -20 -20 -20 -20 -20 -20 -20 -20 -20 -20 -20 -20 -20 -20 -20 -20 -20 -20 -20 -20 -20 -20 -20 -20
-9 -20 -20 -20 -20 -20 -20 -20 -20 -20 -20 -20 -20 -20 -20 -20 -20 -20 -20 -20 -20 -20 -20 -20 -20 -20 10 17 -20 1 12 -20 -20 -19 -20 -20 -20 -20 -20 -20 -20 -20 -20
-20 -20 -20 -20 -20 -20 -20 -20 -20 -20 -20 -20 -20 -20 -20 -20 -20 -20 -20 -20 9 -5 -20 -19 5 8 -20 -20 -20 -20 18 7 -20 -20 -20 -20 -20 -20 -20 -20 -20 -20 -20
-20 -20 -20 -20 -20 -20 -20 -20 -20 -20 -20 -20 -20 3 8 -5 -20 -20 -7 -5 -14 22 19 -20 -20 -20 -20 -20 -20 -20 -20 -2 -10 -20 -20 -20 -20 -20 -20 -20 -20 -20 -20
-20 -20 -20 -20 -20 -20 -20 -20 -20 -20 -20 -15 -20 -20 -20 -14 -14 5 9 11 14 9 29 17 -13 -20 -20 -20 -20 -20 -20 -20 -15 -18 -20 -20 -20 -20 -20 -20 -20 -20 -20
-20 -20 -20 -20 -20 -20 -20 -20 -20 -20 -20 -20 -20 -20 -19 -7 -6 2 7 5 12 24 24 14 -20 -20 -20 -20 -20 -20 -20 -20 -20 -20 -20 -20 -20 -20 -20 -20 -20 -20 -20
-20 -20 -20 -20 -20 -20 -20 -20 -20 -8 -20 -20 -20 -20 -20 -20 -19 0 13 23 11 6 9 4 -7 -20 11 -9 4 -5 4 -20 -20 -20 -20 -20 -20 -20 -20 -20 -20 -20 -20
-20 -20 -20 -20 -20 -20 -20 -20 -20 -20 -20 -20 -20 -20 -20 -20 -20 -6 -4 -18 -8 -12 -8 -14 -19 9 -4 -20 -20 -15 8 -9 -20 -20 -20 -20 -20 -20 -20 -20 -20 -20 -20
-20 -20 -20 -20 -20 -20 -20 -20 -10 -20 -20 -20 -20 -20 -20 -20 -20 -20 -9 8 3 -11 -19 -18 -15 -14 -17 -12 -10 -16 -10 8 -16 -20 -20 -20 -20 -20 -20 -20 -20 -20 -20
-20 -20 -20 -20 -20 -20 -20 -20 -20 -20 -20 -20 -20 -7 -20 -20 -20 -20 -20 -8 10 6 -20 -20 -18 -20 -20 -2 14 5 -20 -14 1 -20 -20 -20 -20 -20 -20 -20 -20 -20 -20
-20 -20 -20 -20 -20 -20 -20 -20 -20 -20 -20 -20 -20 -20 -20 -20 -20 -20 -20 -20 -20 -18 -18 -10 -20 -19 -14 -16 -17 3 -0 -1 -1 8 -18 -20 -20 -20 -20 -20 -20 -20 -20
-20 -20 -20 -20 -20 -20 -20 -20 -20 -20 -20 -20 -20 -20 -20 -20 -20 -20 -20 -20 -20 -20 -20 -20 -20 -20 -20 -20 -6 6 4 11 5 12 15 -18 -20 -20 -20 -20 -20 -20 -20
-20 -20 -20 -20 -20 -20 -20 -20 -20 -20 -20 -20 -20 -20 -20 -20 -20 -20 -20 -20 -20 -20 -20 -20 -20 -20 -20 -19 -20 -8 -9 -20 3 11 14 8 -20 -20 -20 -20 -20 -20 -20
-20 -20 -20 -20 -20 -20 -20 -20 -20 -20 -20 -20 -20 -20 -20 -20 -20 -20 -20 -20 -20 -20 -20 -20 -20 -20 -20 -20 -20 -20 -20 -20 -4 6 17 8 -16 -20 -20 -20 -20 -20 -20
-20 -20 -20 -20 -20 -20 -20 -20 -20 -20 -20 -20 -20 -20 -20 -20 -20 -20 -20 -20 -20 -20 -20 -20 -20 -20 -20 -20 -20 -20 -20 -20 -18 -14 14 7 -0 -15 -20 -20 -20 -20 -20

GFSGL_prec_radar_069.txt.gz
Reflectivity
-20 -20 -20 -17 -20 -5 18 20 -9 -12 -20 28 29 -4 -20 -20 -20 -20 -20 -20 -20 -20 -20 -20 -20 -20 -20 -20 -20 -20 -20 -2 1 -6 -20 -20 -20 -20 -20 -20 -20 -20 -20
-20 -20 13 -20 24 -3 15 14 -16 -11 29 -18 -19 -20 -20 -20 -20 -20 -20 -20 -20 -20 -20 -20 -20 -20 -20 -20 -20 -20 1 5 14 9 2 -20 -20 -20 -20 -20 -20 -20 -20
-19 21 23 25 21 19 16 29 25 11 -19 -18 -20 -20 -20 -20 -20 -20 -20 -20 -20 -20 -20 -20 -20 -20 -20 -20 -20 -20 -16 -4 -20 -20 -20 -20 -20 -20 -20 -20 -20 -20 -20
22 27 19 25 11 0 30 29 -1 -15 29 -4 -20 -20 -20 -20 -20 -20 -20 -20 -20 -20 -20 -20 -20 -20 -20 -20 -12 3 -20 -20 -8 -20 -20 -20 -20 -20 -20 -20 -20 -20 -20
25 21 21 1 13 35 40 19 -20 29 -8 -20 -20 -20 -20 -20 -20 -20 -20 -20 -20 -20 -20 -20 -20 -20 -20 -20 -20 -20 -20 -20 -20 -20 -20 -20 -20 -20 -20 -20 -20 -20 -20
-20 -20 -20 1 37 27 -15 -17 27 -6 -20 2 -20 -20 -20 -20 -20 -20 -20 -20 -20 -20 -20 -20 -20 -20 -20 -20 -20 -20 -20 -20 -20 -20 -20 -20 -20 -20 -20 -20 -20 -20 -20
-20 -20 1 5 -0 -20 -17 17 -20 -19 -20 -20 -20 -20 -20 -20 -20 -20 -20 -20 -20 -20 -20 -20 -20 -20 -20 -20 -20 -20 -20 -20 -20 -20 -20 -20 -20 -20 -20 -20 -20 -20 -20
-20 -1 -9 -15 -17 -14 5 -19 21 -20 -20 -20 -20 -20 -20 -20 -20 -20 -20 -20 -20 -20 -20 -20 -20 -20 -20 -20 -20 -20 -20 -20 -20 -20 -20 -20 -20 -20 -20 -20 -2 -0 -12
-20 8 -1 -20 -20 3 7 -14 -20 -20 -20 -20 -20 -20 -20 -20 -20 -20 -20 -20 -20 -20 -20 -20 -20 -20 -20 -20 -20 -20 -20 -20 -20 -20 -20 -20 -20 -20 -20 0 3 5 0
-20 -20 -19 -11 -20 -20 -20 -20 -20 -20 -20 -20 -20 -20 -20 -20 -20 -20 -20 -20 -20 -20 -20 -20 -20 -20 -20 -20 -20 -20 -19 -20 -20 -20 -20 -20 -20 -20 -20 -20 2 5 -0
-12 -11 -20 -20 -20 -20 -20 -20 -20 -20 -20 -20 -20 -20 -20 -20 -20 -20 -20 -20 -20 -20 -20 -20 -20 -20 -20 -20 -20 -15 -20 -20 -20 -20 -20 -20 -20 -20 -20 -16 -20 -20 -6
-20 -20 -19 -20 -20 -20 -20 -20 -20 -20 -20 -20 -20 -20 -20 -20 -20 -20 -20 -20 -20 -4 13 -20 -18 -20 -20 -20 -20 -20 -20 -20 -1 -10 -9 -6 -20 -10 3 4 -20 -20 -20
-20 -20 -20 -20 -20 -20 -20 -20 -20 -20 -20 -20 -20 -20 -20 -12 -19 1 -9 -20 -20 -20 -16 5 12 -17 -1 -20 -18 -18 16 15 -2 6 -3 -20 -20 -20 -18 -20 -20 -20 -20
-20 -20 -20 -20 -20 -20 -20 -20 -20 -20 -20 -20 -20 -17 -3 -20 -20 -19 4 5 7 3 -15 -0 7 8 8 11 11 -18 5 11 6 1 5 -16 -3 -20 -20 -20 -20 -20 -2
-20 -20 -20 -20 -20 -20 -20 -20 -20 -20 -20 -20 -20 -2 7 7 6 8 7 4 10 6 12 -16 6 3 -17 17 1 -15 -1 -2 6 5 9 -0 -16 -10 -20 -20 -20 -20 -2
-20 -20 -20 -20 -20 -20 -20 -20 -20 -20 -20 -20 -20 -6 -16 -11 -9 -8 -18 -20 1 -8 2 -2 9 3 2 9 1 -6 -1 -3 -9 -13 0 -5 -19 -20 -19 -10 -20 -7 -1
-20 -20 -20 -20 -20 -20 -20 -20 -20 -20 -20 -20 -20 -20 -20 -19 -20 -5 -20 -20 -19 -20 10 17 15 21 20 14 -8 7 6 -20 -7 -20 -2 -7 -20 -20 -20 -20 -20 1 -6
-20 -20 -20 -20 -20 -20 -20 -20 -20 -20 -20 -20 -20 -20 -20 -20 -20 -20 -20 -20 -20 -20 -20 -13 1 12 16 6 5 0 -7 -1 -2 -1 -14 -5 -20 -20 3 -20 -20 -4 -16
-20 -20 -20 -20 -20 -20 -20 -20 -20 -20 -20 -20 -20 -20 -20 -20 -20 -20 -20 -20 -20 -20 -20 -20 -20 -19 -18 -4 14 9 8 5 3 -0 -20 -20 -20 -20 -12 -20 -20 -20 -20
-20 -20 -20 -20 -20 -20 -20 -20 -20 -20 -20 -20 -20 -20 -20 -20 -20 -20 -20 -20 -20 -20 -20 -18 3 -10 -10 6 -14 -5 13 9 2 -17 -20 -16 -20 -20 -20 -20 -20 -20 -20
-20 -20 -20 -20 -20 -20 -20 -20 -20 -20 -20 -20 -20 -20 -20 -20 -20 -12 -3 -2 -2 -2 -4 -20 -20 -16 -3 -1 -16 -20 -12 15 15 -0 -3 -16 -20 -20 -20 -20 -20 -20 -20
-20 -20 -20 -20 -20 -20 -20 -20 -20 -20 -20 -20 -20 -20 -20 -20 -20 -20 -4 -1 -2 -7 -7 -2 -15 -7 -3 -1 -10 -20 -10 -20 -15 13 10 5 3 -20 -20 -20 -20 -20 -20
-20 -20 -20 -20 -20 -20 -20 -20 -20 -20 -20 -20 -20 -20 -20 -20 -20 -20 -20 -2 -20 -20 -20 -20 -13 -20 -20 -9 -3 -4 -3 -14 -19 1 8 7 -6 -16 -20 -20 -20 -20 -20
-20 -20 -20 -20 -20 -20 -20 -20 -20 -20 -20 -20 -20 -20 -20 -20 -20 -20 -20 -4 -20 -20 -20 -20 -20 -14 -20 -20 -20 -20 -16 -18 -15 -15 -4 12 7 -6 4 -5 -20 -20 -20
-20 -20 -20 -20 -20 -20 -20 -20 -20 -20 -20 -20 -20 -20 -20 -20 -20 -20 -20 -20 -20 -20 -20 -20 -20 -20 -20 -20 -20 -20 -20 -19 -20 -11 -3 5 11 -16 -2 -3 -20 -20 -20
-20 -20 -20 -20 -20 -20 -20 -20 -20 -20 -20 -20 -20 -20 -20 -20 -20 -20 -20 -20 -20 -20 -20 -20 -20 -20 -20 -20 -20 -20 -20 -20 -20 -10 9 -10 11 -1 1 5 -20 -20 -20

GFSGL_prec_radar_072.txt.gz
Reflectivity
-20 -20 -20 -10 2 23 7 6 -5 -11 -3 19 13 26 28 -20 -20 -20 -20 -20 -20 -20 -20 -20 -20 -20 -20 -20 -20 -19 -0 -20 -20 -20 -17 -20 -20 -19 -20 -20 -20 -20 -20
-20 -16 10 15 -18 17 25 24 7 11 35 18 23 20 3 -5 -20 -20 -20 -20 -20 -20 -20 -20 -20 -20 -20 -19 -10 -20 -19 -20 -20 -20 -20 -20 6 -17 -20 -20 -20 -20 -20
-20 -16 7 -20 -7 21 31 23 21 29 25 29 30 25 12 -20 -20 -20 -20 -20 -20 -20 -20 -20 -20 -20 -20 -20 -20 -0 -20 -20 -20 -3 -16 -12 -20 -11 -20 -20 -20 -20 -20
-20 13 2 -2 1 6 15 34 27 31 31 23 27 13 -20 -20 -20 -20 -20 -20 -20 -20 -20 -20 -20 -20 -20 -20 -20 -20 -20 -20 -9 1 -8 -3 -3 -17 -3 -20 -20 -20 -20
-20 12 -4 -13 -20 8 21 19 31 32 14 21 11 -19 -20 -20 -20 -20 -20 -20 -20 -20 -20 -20 -20 -20 -20 -20 -20 -20 -20 -14 -15 -5 8 1 -14 -3 2 -10 -20 -20 -20
-20 -20 2 -20 -20 -7 -18 14 12 -13 21 -20 -20 -20 -20 -20 -20 -20 -20 -20 -20 -20 -20 -20 -20 -20 -20 -20 -20 -20 -20 -20 1 20 20 9 -19 -10 -1 -20 -20 -20 -20
-20 -13 -20 -20 -18 -2 -20 -20 -20 3 -20 -20 -20 -20 -20 -20 -20 -20 -20 -20 -20 -20 -20 -20 -20 -20 -20 -20 -20 -20 -20 -20 -20 1 12 10 4 2 -12 -4 -20 -20 -20
-5 -20 -20 -20 -20 -20 -17 -20 -18 -15 -20 -20 -20 -20 -20 -20 -20 -20 -20 -20 -20 -20 -20 -20 -20 -20 -20 -18 -17 -1 -10 -4 -18 -16 -20 -16 1 -8 -12 -15 -20 -12 -20
-20 -20 -20 -20 -20 -19 -20 3 -20 -20 -20 -20 -20 -20 -20 -20 -20 -20 -20 -20 -20 -20 -20 -20 -20 -7 -20 -20 -20 -1 2 -6 -16 -20 -20 -20 -20 -20 -20 -20 0 5 6
-20 -20 -20 -20 -20 -19 -20 -20 -20 -20 -20 -20 -20 -20 -20 -20 -20 -20 -20 -20 -20 -9 -19 -0 -9 -20 -20 -5 -4 8 11 4 4 5 -18 -20 -20 -20 -20 -20 -0 4 5
-20 -20 -18 -20 -20 -20 -20 -20 -20 -20 -20 -20 -20 -20 -20 -20 -20 -20 -20 -20 -20 -19 -20 -10 3 -8 6 -20 14 10 9 8 -2 5 7 -5 -18 -3 -20 -20 -15 2 8
-20 -20 -20 -20 -20 -20 -20 -20 -20 -20 -20 -20 -20 -20 -20 -20 -20 -20 -20 -20 -20 -7 -20 -20 -13 6 11 -1 5 14 -12 -2 12 18 13 -1 -2 -5 -14 1 1 6 4
-20 -20 -20 -20 -20 -20 -20 -20 -20 -20 -20 -20 -20 -20 -20 -20 -20 -20 -20 -20 -20 8 8 2 -20 -20 -20 -17 -7 -17 -8 32 26 20 12 12 7 4 4 5 2 -4 -1
-20 -20 -20 -20 -20 -20 -20 -20 -20 -20 -20 -20 -20 -20 -20 -20 -20 -6 2 6 4 6 10 9 -0 3 -7 -14 10 7 21 13 16 17 15 16 9 18 12 0 3 3 9
-20 -20 -20 -20 -20 -20 -20 -20 -20 -20 -20 -20 -20 -20 -9 -3 -6 -6 -9 -0 0 2 -10 9 12 14 14 15 14 12 14 -1 0 13 12 11 17 16 9 8 5 2 4
-20 -20 -20 -20 -20 -20 -20 -20 -20 -20 -20 -20 -20 -20 -20 -15 -20 -20 -20 -20 -20 -20 -6 11 17 18 17 17 17 14 12 3 -11 -1 6 -7 11 15 11 13 6 6 7
-20 -20 -20 -20 -20 -20 -20 -20 -20 -20 -20 -20 -20 -20 -20 -20 -20 -20 -20 -20 -20 -20 -3 -1 2 4 -0 8 27 21 20 12 19 13 11 5 6 6 14 10 12 9 8
-20 -20 -20 -20 -20 -20 -20 -20 -20 -20 -20 -20 -20 -20 -20 -20 -20 -20 -20 -20 -20 -20 -20 -2 1 1 -3 -5 -16 -9 15 19 17 13 14 12 13 9 13 5 9 10 10
-20 -20 -20 -20 -20 -20 -20 -20 -20 -20 -20 -20 -20 -20 -20 -20 -20 -20 -20 -0 -6 -12 -14 -11 0 -1 1 1 2 -0 8 9 16 16 15 11 15 12 9 8 9 9 -6
-20 -20 -20 -20 -20 -20 -20 -20 -20 -8 -5 -20 -20 -20 -20 -20 -8 -1 -1 2 2 -0 0 0 -1 -0 3 -3 3 1 3 2 -5 17 17 14 17 13 7 9 11 13 -0
-20 -20 -20 -20 -20 -20 -20 -20 -20 -20 -20 -20 -20 -3 -20 -20 1 1 0 1 3 2 1 1 1 1 3 3 -20 1 -1 2 3 13 14 18 15 16 6 10 13 11 4
-20 -20 -20 -20 -20 -20 -20 -20 -20 -20 -20 -20 -20 -20 -20 -14 -2 -2 -3 -0 3 2 0 1 0 1 2 -2 3 2 0 -0 2 9 -1 -18 9 17 12 9 11 11 -1
-20 -20 -20 -20 -20 -20 -20 -20 -18 -8 -20 -20 -20 -10 -10 -2 -2 -2 -1 2 2 1 1 1 2 -2 -2 0 2 3 2 -0 3 4 -0 -3 -14 8 16 12 8 6 0
-20 -20 -20 -20 -20 -20 -20 -20 -2 -20 -20 -17 0 -0 -2 -2 -0 0 1 3 -0 1 2 2 1 -1 -2 -1 1 -0 -17 -1 -8 -2 -1 -4 0 -6 14 14 8 3 -1
-20 -20 -20 -20 -16 -2 -1 -1 1 2 0 1 -1 -1 -3 -2 -2 0 2 2 -1 -0 -0 -2 0 1 -0 -2 -13 -6 -3 -20 -20 -20 -5 -1 -4 -3 -7 15 14 1 -19
-20 -20 -16 -1 0 1 2 2 2 2 -1 -1 -3 -3 -3 -1 -1 2 1 -1 -2 -8 -11 -1 -1 -1 -2 -2 -3 -2 -20 -20 -15 -20 -1 -4 -2 -19 -8 9 13 5 -20

GFSGL_prec_radar_075.txt.gz
Reflectivity
-20 -20 -20 24 -15 -19 15 3 18 21 20 6 21 -7 17 25 33 25 7 9 10 -16 -20 -20 -20 -20 -20 -20 -20 -20 -20 -20 -20 -20 -20 -20 -20 -20 -20 -20 -20 -20 -20
-20 -20 1 -19 -18 23 -20 -3 21 25 29 33 35 29 22 18 28 24 12 -6 -19 -20 -20 -20 -20 -20 -20 -20 -20 -20 -20 -20 -20 -20 -20 -20 -20 -20 -20 -19 -20 -20 -20
-20 -20 -20 -20 -19 12 -20 17 14 16 34 33 24 31 30 25 20 11 -2 -20 -20 -20 -20 -20 -20 -20 -20 -20 -20 -20 -20 -20 -20 -20 -20 -20 -20 -20 -18 6 -20 -20 -20
-20 -20 -13 -15 -1 5 -14 -12 -17 -20 -12 10 29 33 28 13 1 -9 -18 -20 -20 -20 -20 -20 -20 -20 -20 -20 -20 -20 -20 -20 -20 -20 -20 -20 -20 -20 -1 7 9 -3 -13
-20 -13 12 7 10 5 -20 -20 -20 -9 17 23 -17 -10 -10 -20 -20 -20 -20 -20 -20 -20 -20 -20 -20 -20 -20 -20 -20 -20 -20 -20 -20 -20 -20 -7 -20 8 -13 15 12 13 -2
-20 -20 -20 24 20 17 -20 -20 8 12 3 -2 -6 -20 -20 -20 -20 -20 -20 -20 -20 -20 -20 -20 -20 -20 -20 -20 -20 -20 -20 -20 -20 3 5 5 8 19 15 9 8 8 -20
-6 27 25 21 18 8 -20 -20 -8 -11 -16 -20 -20 -20 -20 -20 -20 -20 -20 -20 -20 -20 -20 -20 -20 -20 -20 -20 -20 -20 -20 -20 -15 -11 7 -18 15 14 14 -19 -15 -20 3
-19 6 16 11 -7 -20 -20 -20 -20 -20 -20 -20 -20 -20 -20 -20 -20 -20 -20 -20 -20 -20 -20 -20 -20 -20 -20 -20 -7 -17 -8 3 8 -16 -19 -15 -3 7 10 12 1 -9 -20
10 -14 -20 -20 -20 -20 -20 -20 -20 -20 -20 -20 -20 -20 -20 -20 -20 -20 -20 -20 -20 -20 -20 -20 -20 -20 -20 -20 -18 1 -2 -16 5 -3 -20 -20 -20 -20 -20 -20 -20 1 1
-20 -20 -20 -20 -20 -20 -20 -20 -20 -20 -20 -20 -20 -20 -20 -20 -20 -20 -20 -20 -20 -20 -20 -20 -20 -20 -20 -20 -20 -15 18 -1 -12 29 -16 -20 -20 -20 -20 -20 -20 -1 -13
-20 -20 -20 -20 -20 -20 -20 -20 -20 -20 -20 -20 -20 -20 -20 -20 -20 -20 -20 -20 -20 -20 -20 -20 -20 -20 -20 -20 -11 -0 11 1 -6 9 27 18 14 -2 -16 -19 -20 -15 -12
-20 -20 -20 -20 -20 -20 -20 -20 -20 -20 -20 -20 -20 -20 -20 -20 -20 -20 -20 -20 -20 -15 -20 -12 -20 -20 -20 -20 -20 -20 -20 -20 9 4 16 17 17 13 3 -5 -3 -20 -15
-20 -20 -20 -20 -20 -20 -20 -20 -20 -20 -20 -20 -20 -20 -20 -20 -20 -20 -20 -20 -20 -20 -19 -8 -20 -20 -20 -20 -20 -20 -20 -3 17 11 14 16 13 13 9 -6 -11 9 4
-20 -20 -20 -20 -20 -20 -20 -20 -20 -20 -20 -20 -20 -20 -20 -20 -20 -20 -20 -20 -20 -20 -20 -20 -20 -20 -20 -15 -20 -9 -4 2 7 13 14 15 18 15 12 16 14 11 8
-20 -20 -20 -20 -20 -20 -20 -20 -20 -20 -20 -20 -20 -20 -20 -20 -20 -20 -20 -20 -20 -20 -20 -18 10 3 7 6 -13 15 12 10 12 13 9 6 14 14 12 16 10 6 10
-20 -20 -20 -20 -20 -20 -20 -20 -20 -20 -20 -20 -20 -20 -20 -20 -20 -20 -20 -20 -20 -20 -20 1 -2 9 4 2 5 -5 26 13 19 14 10 -6 -12 13 13 16 10 12 14
-19 -6 4 -3 -17 -20 -20 -20 -20 -20 -20 -20 -20 -20 -20 -20 -20 -20 -20 -20 -20 -20 -8 -5 2 4 7 4 1 5 -0 -3 35 23 12 15 12 -3 -13 11 13 13 14
-1 6 -0 -5 2 -16 -20 -20 -20 -20 -20 -20 -20 -20 -20 -20 -20 -20 -20 -20 -20 -20 -20 -18 -2 -0 -2 -3 -15 3 -13 3 5 -7 26 19 16 18 11 12 12 11 15
11 7 8 3 -15 -20 -20 -20 -20 -20 -20 -20 -20 -20 -20 -20 -20 -20 -20 -1 1 -2 -11 -5 -1 -0 -1 -0 4 7 7 7 6 6 5 12 15 14 14 14 11 1 8
8 9 -3 -20 -20 -20 -20 -20 -20 -20 -20 -20 -20 -20 -20 -20 -20 -6 -0 2 3 4 2 -0 -1 -0 3 3 5 9 7 3 5 8 7 7 10 16 14 18 12 14 1
-3 -15 -1 -6 -20 -20 -20 -20 -20 -20 -20 -20 -20 -4 -20 -20 -20 2 1 2 6 3 4 4 2 3 3 2 3 5 3 6 6 8 6 0 3 -5 14 18 14 12 11
-4 -7 -20 -20 -20 -20 -20 -20 -20 -20 -20 -20 -5 -4 -20 -13 2 1 0 2 5 3 5 2 4 3 1 -0 4 6 4 -6 5 3 5 -0 2 -4 1 21 12 17 7
-20 -20 -20 -20 -20 -20 -20 -20 -4 -0 -2 -1 -1 1 2 3 5 3 1 4 4 4 2 5 3 3 2 2 5 3 5 -2 5 7 4 2 1 1 -5 -5 18 17 12
-20 -20 -20 -20 -20 -20 -5 1 -0 -10 1 1 2 3 4 4 3 3 -20 5 4 3 3 -13 5 5 5 -10 -10 -17 -19 6 -8 6 4 0 -1 0 5 -1 -4 19 13
-4 -3 -5 -3 -2 1 1 2 2 2 2 2 3 2 1 3 3 2 1 1 2 1 1 0 5 5 5 2 3 1 2 7 5 -20 0 -0 -1 -2 -3 1 -7 14 12
-4 -4 -2 -0 2 2 3 3 4 3 3 3 2 3 2 2 1 1 0 0 -7 0 0 2 4 -2 -3 1 1 4 -10 -20 -4 -12 2 0 -6 -6 2 -2 -3 9 14

GFSGL_prec_radar_078.txt.gz
Reflectivity
-20 -20 -20 -20 2 24 -10 -20 -20 -16 -11 8 15 32 37 39 22 27 28 30 12 11 9 2 13 8 -19 -20 -20 -20 -20 -20 -20 -20 -20 -20 -20 -20 -20 -20 -20 -20 -9
-20 -20 -20 -20 -19 -1 26 -20 -20 -20 -18 -20 11 29 18 33 26 31 28 31 14 -0 -13 -20 -20 -20 -20 -20 -20 -20 -20 -20 -20 -20 -20 -20 -20 -20 -20 -20 -20 -20 -20
-20 29 -16 28 -14 -11 -2 -10 -16 -20 -20 -14 -20 -20 -12 4 22 34 17 -17 -13 -12 -20 -20 -20 -20 -20 -20 -20 -20 -20 -20 -20 -20 -20 -20 -20 -20 -20 -20 -20 -20 -20
-20 -20 -1 24 30 -19 -13 -9 7 15 12 5 -20 -20 20 8 -6 -19 -20 -20 -20 -20 -20 -20 -20 -20 -20 -20 -20 -20 -20 -20 -20 -20 -20 -20 -20 -20 -20 -20 -20 -20 -20
-19 -19 -18 14 28 31 15 -8 24 19 2 -20 -10 17 -11 -16 -20 -20 -20 -20 -20 -20 -20 -20 -20 -20 -20 -20 -20 -20 -20 -20 -20 -20 -20 -20 -20 -20 -20 -20 -20 -20 -14
-15 25 10 27 -6 26 24 -2 0 -20 -20 11 11 2 1 7 -20 -20 -20 -20 -20 -20 -20 -20 -20 -20 -20 -20 -20 -20 -20 -20 -20 -2 -1 8 -17 -20 -20 -20 -20 22 6
-20 -5 27 -5 17 -0 1 -10 -20 2 9 2 6 -18 -20 -20 -20 -20 -20 -20 -20 -20 -20 -20 -20 -20 -20 -20 -20 -20 -20 -20 -20 3 6 0 -4 -20 -20 -20 -20 -19 -20
2 -20 -20 -16 11 -20 -18 7 -15 5 -18 -19 -20 -20 -20 -20 -20 -20 -20 -20 -20 -20 -20 -20 -20 -20 -20 -20 -20 -20 -20 -20 -20 4 -8 -17 8 -20 0 -20 -20 -20 -20
-20 -20 -11 -2 5 15 1 -11 -20 -20 -20 -20 -20 -20 -20 -20 -20 -20 -20 -20 -20 -20 -20 -20 -20 -20 -20 -20 -20 -20 -20 -20 -20 -20 -4 -6 -20 -20 -10 -20 -20 -20 -20
-15 -9 7 -3 2 -20 -20 -20 -20 -20 -20 -20 -20 -20 -20 -20 -20 -20 -20 -20 -20 -20 -20 -20 -20 -20 -20 -20 -20 -20 -20 -20 -20 -20 -20 -20 -20 23 17 -20 -20 -20 -20
-19 -16 -20 -20 -20 -20 -20 -20 -20 -20 -20 -20 -20 -20 -20 -20 -20 -20 -20 -20 -20 -20 -20 -20 -20 -20 -20 -20 -20 -20 -20 -20 -20 -20 -17 -5 -9 6 7 -20 -20 -20 -20
-20 -20 -20 -20 -20 -20 -20 -20 -20 -20 -20 -20 -20 -20 -20 -20 -20 -20 -20 -20 -20 -20 -20 -20 -20 -20 -20 -20 -20 -20 -20 -20 -20 -20 -19 -20 -20 2 -6 8 10 -20 -20
-20 -20 -20 -20 -20 -20 -20 -20 -20 -20 -20 -20 -20 -20 -20 -20 -20 -20 -20 -20 -20 -20 -20 -20 -20 -20 -20 -20 -20 -20 -20 -20 -20 -20 4 -20 -20 -18 10 2 -14 7 -20
-20 -20 -20 -20 -20 -20 -20 -20 -20 -20 -19 -20 -18 -18 -19 -20 -20 -20 -20 -20 -20 -20 -20 -20 -20 -20 -20 -20 -20 -20 -20 5 -13 -0 -13 -20 -17 14 -8 -4 -5 -11 -9
-20 -20 -20 -20 -20 -20 -20 -20 -20 -13 3 4 1 -9 -20 -20 -20 -20 -20 -20 -20 -20 -20 -20 -20 -17 -20 -20 -20 -20 -20 -13 -4 26 1 -20 -20 9 -6 10 -19 -20 7
-20 -19 -17 -20 -18 -17 -10 -14 -3 -10 3 6 -1 -12 -20 -20 -20 -20 -20 -20 -20 -20 -20 -20 -7 -20 -20 -20 -4 -6 -20 -20 -20 -20 5 26 2 -20 -20 -20 -20 -20 -18
-20 10 16 12 15 15 6 -7 2 5 -2 5 -2 -16 -20 -20 -18 -16 -20 -20 -20 -20 -20 -20 -20 -20 -20 -20 -1 -2 3 1 -0 2 -20 15 24 -12 -20 -20 -19 7 -20
6 8 12 16 4 5 11 7 -10 -20 -20 -20 -20 -20 -20 -20 -20 -20 -20 -20 -14 -20 -20 -20 -20 -20 -20 -20 -20 -16 -1 -20 -0 -5 -20 -6 -19 -0 9 14 17 -13 -12
17 15 14 17 17 12 9 3 -3 -19 -20 -20 -20 -20 -20 -18 -20 -20 -20 3 -16 -20 -15 -20 -20 -20 -20 -20 -1 -1 -2 2 -20 -9 -4 -0 -20 -2 3 12 12 -20 -15
15 13 13 12 9 5 -5 -10 -16 -20 -20 -20 -20 -20 -20 -20 -20 -20 -20 -5 -20 -20 -20 -20 -20 -20 -20 0 2 3 -16 -19 -16 -3 -20 0 -15 11 10 -17 -15 16 5
7 8 10 7 1 -10 -20 -20 -20 -20 -20 -20 -20 -20 -20 -20 -20 -20 6 -20 -1 -20 -20 -20 6 -20 -20 -17 -14 -18 -3 -2 -20 -8 4 -20 -20 2 -1 -8 -20 22 4
-14 -14 -4 -6 -8 -20 -20 -20 -20 -20 -20 -20 -20 -20 -20 -20 -1 -7 -20 -20 -20 -20 -20 -20 -17 -12 -20 2 -15 -20 -6 -20 -2 1 -10 -10 -20 -12 -18 5 -3 12 19
-19 -20 -20 -20 -20 -20 -20 -20 -20 -20 -9 -20 -20 -14 -20 -1 -15 -20 -13 -20 -16 -3 -20 -20 -20 -9 -1 -20 -17 3 3 3 -5 -16 -20 -20 -20 -20 -19 -9 -4 9 3
-20 -20 -20 -20 -4 -20 -10 -15 -20 -11 -17 -20 -20 -20 -9 -20 -17 -19 -5 6 -20 -20 -20 -20 -5 -20 -20 -20 4 -1 -12 -20 -11 -4 -5 -20 -20 -20 -20 -10 -20 -8 7
-4 -6 -6 -3 -4 -3 -11 2 1 -7 -20 -20 -20 -20 -20 -18 -7 -20 -20 -20 -6 -20 -5 -20 -20 -18 4 -20 -20 -20 -20 -9 -20 -20 -20 -20 -14 -20 -20 -20 -7 -6 -0
-14 -2 -14 2 3 2 2 2 0 -20 2 -20 -20 -20 -4 -4 -17 -20 -8 -20 -5 -20 -20 -20 -15 -20 -20 -20 -16 -3 -20 -20 -20 -20 -20 -20 -20 -20 -20 -20 -4 -18 -20

GFSGL_prec_radar_081.txt.gz
Reflectivity
-20 -20 -20 -20 -19 -19 -20 -1 -20 17 28 29 21 12 -20 -19 22 -1 10 22 28 23 11 28 16 -17 -20 -20 -20 -20 -20 -20 -20 -20 -20 -20 -20 -20 -20 -20 -20 -20 -19
-18 -20 -9 -20 -20 32 -10 -20 -4 -12 -8 -17 -18 -20 -20 -12 -20 -20 -20 18 18 -20 -19 -19 -20 -20 -20 -20 -20 -20 -20 -20 -20 -20 -20 -20 -20 -20 -20 -20 -20 -20 -12
-20 -20 -20 -20 -20 37 36 36 32 11 -13 12 -2 -16 9 -2 -18 20 19 -4 -10 -20 -20 -20 -20 -20 -20 -20 -20 -20 -20 -20 -20 -20 -20 -20 -20 -20 -20 -20 -20 -20 -20
-20 14 -20 -20 -20 33 14 -4 28 -9 -12 5 15 29 12 5 7 10 9 7 -18 -20 -20 -20 -20 -20 -20 -20 -20 -20 -20 -20 -20 -20 -20 -20 -20 -20 -20 -20 -20 -20 -20
-20 -12 -13 -20 5 27 29 32 -20 11 0 9 -20 -1 20 -3 2 22 -19 -18 -20 -20 -20 -20 -20 -20 -20 -20 -20 -20 -20 -20 -20 -20 -20 -20 -20 -20 -20 -20 -20 -20 -20
29 -20 -20 -11 -20 -20 -20 -20 -19 -3 -20 -20 9 21 8 7 16 24 -18 -20 -20 -20 -20 -20 -20 -20 -20 -20 -20 -20 -20 -20 -20 -20 -20 -20 -20 -20 -20 -20 -10 3 -20
-20 5 -9 18 -18 -20 -20 2 16 -10 18 11 -12 -9 -4 20 4 -4 -20 -20 -20 -20 -20 -20 -20 -20 -20 -20 -20 -20 -20 -20 -20 -20 -20 -20 -19 -20 -19 1 5 -20 -20
-20 -20 -20 4 7 5 8 15 13 23 15 -20 3 12 20 -20 -20 -20 -20 -20 -20 -20 -20 -20 -20 -20 -20 -20 -20 -20 -20 -20 -20 -20 -20 -20 -20 -20 1 2 3 -5 -20
-20 -20 4 0 -20 -0 -1 8 1 -4 3 2 18 6 -20 -20 -20 -20 -20 -20 -20 -20 -20 -20 -20 -20 -20 -20 -20 -20 -20 -20 -20 -20 -20 -20 -20 -20 9 14 13 9 1
-19 -3 -16 -10 -1 15 14 15 7 2 -4 -16 -15 -20 -14 -18 -20 -20 -20 -20 -20 -20 -20 -20 -20 -20 -20 -20 -20 -20 -20 -20 -20 -20 -20 -20 -20 -20 -19 -11 -20 16 22
-20 -20 -20 -18 -19 -1 4 8 11 -19 -20 -20 -20 -20 -20 -20 -20 -20 -20 -20 -16 -20 -20 -20 -20 -20 -20 -20 -20 -20 -20 -20 -20 -20 -20 -20 -20 -20 -20 -20 -19 -15 -11
-20 -20 -20 0 -1 8 11 -2 -20 -20 -20 -20 -16 -20 -20 -20 -20 -20 -7 1 -9 -20 -20 -20 -20 -20 -20 -20 -20 -20 -20 -20 -15 -20 -20 -20 -20 -20 -20 -17 -20 -20 -14
-20 -20 -20 -19 10 -10 -17 -20 -19 -15 -19 -13 -13 -20 -20 -20 -20 -18 -12 -17 -15 -20 -20 -20 -20 -20 -20 -20 -20 -20 -20 -20 -20 -20 -0 2 -8 -20 -20 -20 -5 -20 -18
-20 -20 -20 -20 -17 -20 -20 -20 -20 -19 -17 -18 -18 -18 -20 -5 4 -1 -15 -20 -20 -20 -20 -20 -20 -20 -20 -20 -20 -20 -20 -20 -1 5 -20 -20 -2 -19 -20 -20 8 -9 -11
-20 -20 -20 -20 -7 -18 -13 -14 0 -7 -13 -18 -18 -0 9 11 8 4 -9 -20 -20 -20 -20 -20 -20 -20 -20 -20 -20 -20 -20 -20 -16 -20 -10 -20 -20 -11 -10 -20 6 -20 8
-20 -20 -13 -11 -18 0 12 14 10 11 7 8 13 11 -2 -6 -19 -20 -20 -20 -20 -20 -20 -20 -20 -20 -20 -20 -20 -20 -20 -20 -17 -5 -14 -1 -20 1 13 29 14 -10 -20
-20 -20 2 10 13 15 15 12 5 16 18 15 8 1 -15 -20 -7 7 4 -10 -20 -20 -20 -20 -20 -20 -20 -20 -20 -20 -20 -20 -20 4 -16 -9 -2 -18 -8 10 5 -4 -19
12 16 19 20 19 19 19 18 16 10 11 10 11 10 4 3 9 8 8 -4 -20 -20 -20 -20 -20 -20 -20 -20 -20 -20 -20 -20 -10 -20 -20 -11 -12 1 -20 -9 8 13 -7
23 21 20 18 16 15 14 10 5 3 2 -3 -5 -13 -20 -20 -20 -20 -20 -20 -20 -20 -20 -20 -20 -20 -20 -20 -20 -19 -20 -20 -20 -20 -20 -20 -4 -11 -20 -15 12 10 -2
13 12 12 13 8 -2 -10 -7 -8 -12 -20 -20 -20 -20 -20 -20 -20 -20 -20 -20 -20 -20 -20 -20 -20 -20 -20 -20 -20 -20 -20 -20 -16 -20 -20 1 -20 -20 -20 -20 -13 -8 -20
8 -6 -19 -20 -5 -18 -11 -20 -20 -20 -20 -20 -20 -20 -20 -20 -20 -20 -20 -20 -20 -20 -20 -20 -20 -20 -20 -20 -20 -20 -20 -20 -20 -20 0 -20 -20 -20 -20 -20 -17 9 -11
-20 -20 -20 -20 -20 -20 -20 -20 -20 -20 -20 -20 -20 -20 -20 -20 -20 -20 -20 -20 -20 -20 -20 -20 -20 -20 -20 -20 -20 -20 -20 -20 -19 -18 -20 -20 -20 -20 -20 -20 -20 -11 -20
-20 -20 -20 -20 -20 -20 -20 -20 -20 -20 -20 -20 -20 -20 -20 -20 -20 -20 -20 -20 -20 -20 -20 -20 -20 -20 -20 -20 -20 -20 4 -14 -20 -20 -20 -20 -20 -20 -20 -20 -20 -10 -2
-20 -20 -20 -20 -20 -20 -20 -20 -20 -20 -20 -20 -20 -20 -20 -20 -20 -20 -20 -20 -20 -20 -20 -20 -20 -20 -20 -20 -14 -20 -20 -20 -20 -20 -20 -20 -20 -20 -20 -20 -20 -7 -4
-20 -20 -20 -20 -20 -20 -20 -20 -20 -20 -20 -20 -20 -20 -20 -20 -20 -20 -20 -20 -20 -20 -20 -20 -20 -20 -20 -20 -20 -20 -20 -19 -20 -20 -20 -20 -20 -20 -20 -20 -20 -20 -7
-20 -20 -20 -20 -20 -20 -20 -20 -20 -20 -20 -20 -20 -20 -20 -20 -20 -20 -20 -20 -20 -20 -20 -20 -20 -20 -20 -20 -20 -11 -20 -20 -20 -20 -20 -20 -20 -20 -20 -20 -20 -20 -8

GFSGL_prec_radar_084.txt.gz
Reflectivity
-20 -20 -20 -20 -20 -20 -20 -20 3 -4 25 27 30 27 22 -4 -20 -20 -20 20 -20 -20 -10 12 6 -5 -12 -2 -20 -20 -20 -20 -20 -20 -20 -20 -20 -20 -20 -20 -20 -20 -20
23 -20 -20 -20 -20 -20 32 -18 26 31 30 30 27 29 21 -20 -20 -20 -20 -15 -20 -14 12 4 -11 -20 -20 -20 -20 -20 -20 -20 -20 -20 -20 -20 -20 -20 -20 -20 -20 -20 -20
-20 -20 -14 -20 16 -20 -20 -1 28 39 37 22 23 20 -20 -20 -20 -7 -1 14 -14 23 6 3 12 -20 -20 -20 -20 -20 -20 -20 -20 -20 -20 -20 -20 -20 -20 -20 -20 -20 -20
-20 -20 -20 -20 -20 -20 5 22 40 26 -10 -20 19 -20 -0 -20 -20 -20 -5 24 18 31 8 24 -12 -20 -20 -20 -20 -20 -20 -20 -20 -20 -20 -20 -20 -20 -20 -20 -20 -20 -20
-20 -20 -20 -19 3 -11 30 34 -4 -6 25 -20 -20 -20 16 -2 -20 -4 17 6 -11 8 33 -16 -20 -20 -20 -20 -20 -20 -20 -20 -20 -20 -20 -20 -20 -20 -20 -20 -20 -20 -20
-20 -20 -20 -20 -20 -20 29 -20 -20 -6 -9 22 22 15 -20 -11 26 32 26 4 19 3 -20 -20 -20 -20 -20 -20 -20 -20 -20 -20 -20 -20 -20 -20 -20 -20 -20 -20 1 6 -3
-20 -20 -20 -9 6 4 2 -16 -6 19 20 21 -5 13 12 2 22 16 19 31 -12 -20 -20 -20 -20 -20 -20 -20 -20 -20 -20 -20 -20 -20 -20 -20 -20 -20 -20 -20 -10 2 -3
0 3 -3 -18 6 -15 12 6 2 3 6 16 20 7 17 32 29 7 30 -14 -20 -20 -19 -20 -20 -20 -20 -20 -20 -20 -20 -20 -16 -18 -20 -20 -20 -20 -20 -20 -5 6 -7
-13 10 0 -15 -20 -20 -20 -3 -12 7 5 4 16 24 6 23 2 26 -5 -20 -19 -20 -20 -20 -20 -20 -20 -20 -20 -20 -20 -20 -20 -20 -20 -20 -20 -20 -20 7 -12 -15 -20
16 -20 -20 -20 -20 -11 -7 -1 11 3 13 0 -6 -0 22 9 24 9 2 -20 -20 -20 -20 -20 -20 -13 -20 -20 -20 -20 -20 -20 -20 -20 -20 -20 -20 -20 -18 -17 -20 -1 3
-20 -20 -20 -20 -20 -20 -13 9 9 10 11 2 -3 17 20 9 -11 3 1 -18 -20 -20 -20 -16 -9 -18 -20 -20 -20 -20 -20 -12 -18 -20 -19 -20 -20 -20 -14 -12 -19 2 -3
-20 -20 -20 -20 -20 -20 1 5 -5 -11 2 19 16 -5 -9 -3 -4 -4 -1 -19 -20 -20 -18 -1 -7 -19 -20 -20 -20 -13 -13 -20 -20 -20 -20 -20 -20 -17 2 -18 -20 -20 -10
-20 -20 -20 -20 -18 -2 12 2 20 12 18 10 -8 1 13 10 -5 -2 -18 -20 -20 -14 -19 -20 -20 -19 -16 -18 -13 -19 -20 -20 -20 -20 -20 -20 -20 -20 -20 -15 -20 -20 -20
-20 -20 -20 -20 -16 10 9 14 7 8 7 5 16 14 -3 -16 -19 -20 -17 1 -5 -1 -3 3 -3 -13 -20 -20 -20 -20 -20 -20 -20 -5 -20 -1 -20 -20 -20 -15 -20 8 -3
-20 -20 -20 -20 -0 -0 5 4 7 8 17 18 13 8 7 -3 9 14 10 8 4 -4 -18 -20 -20 -20 -14 -12 -20 -20 -20 -20 -20 -20 -1 -20 -15 -20 -20 -20 -20 -20 8
-5 -8 -10 1 7 10 14 11 17 13 10 15 18 18 13 9 11 1 -6 -19 -20 -20 -20 -20 -20 -20 -20 -20 -20 -20 -20 -20 -20 -5 -20 -20 -20 -20 -9 -20 -20 -14 18
-12 3 17 21 22 21 20 18 18 18 16 14 12 10 7 2 -4 5 4 -1 -2 -9 -20 -20 -20 -20 -20 -20 -20 -20 -20 -20 -8 -20 -20 -20 -7 -4 -20 -20 -20 -20 -2
14 14 8 -5 -12 -13 0 8 9 6 3 8 11 8 -5 -15 0 -2 -1 2 3 2 0 -3 -10 -20 -20 -20 -20 -20 -20 -20 -20 -20 -20 -20 -20 -5 -20 -20 -20 -20 -19
-3 -7 -8 1 5 2 -4 -9 -4 -4 -16 -20 -20 -20 -17 -17 -20 -20 -20 -20 -20 -16 -19 -20 -20 -20 -20 -20 -20 -20 -20 -20 -20 -20 -20 -20 -20 -20 -20 -20 -20 -20 -13
-9 -3 -5 -5 2 -0 -12 -17 -20 -20 -20 -20 -20 -20 -20 -20 -20 -20 -20 -20 -20 -20 -20 -20 -20 -20 -20 -20 -20 -20 -20 -20 -20 -20 -20 -20 -20 -20 -20 -20 -20 -20 -20
-20 -20 -20 -20 -20 -20 -20 -20 -20 -20 -20 -20 -20 -20 -20 -20 -20 -20 -20 -20 -20 -20 -20 -20 -20 -20 -20 -20 -20 -20 -20 -20 -20 -20 -20 -20 -20 -20 -20 -20 -20 -20 -20
-20 -20 -20 -20 -20 -20 -20 -20 -20 -20 -20 -20 -20 -20 -20 -20 -20 -20 -20 -20 -20 -20 -20 -20 -20 -20 -20 -20 -20 -20 -20 -20 -20 -20 -20 -20 -20 -20 -20 -20 -20 -20 -20
-20 -20 -20 -20 -20 -20 -20 -20 -20 -20 -20 -20 -20 -20 -20 -20 -20 -20 -20 -20 -20 -20 -20 -20 -20 -20 -20 -20 -20 -20 -20 -20 -20 -20 -20 -20 -20 -20 -20 -20 -20 -20 -20
-20 -20 -20 -20 -20 -20 -20 -20 -20 -20 -20 -20 -20 -20 -20 -20 -20 -20 -20 -20 -20 -20 -20 -20 -20 -20 -20 -20 -20 -20 -20 -20 -20 -20 -20 -20 -20 -20 -20 -20 -20 -20 -20
-20 -20 -20 -20 -20 -20 -20 -20 -20 -20 -20 -20 -20 -20 -20 -20 -20 -20 -20 -20 -20 -20 -20 -20 -20 -20 -20 -20 -20 -20 -20 -20 -20 -20 -20 -20 -20 -20 -20 -20 -20 -20 -20
-20 -20 -20 -20 -20 -20 -20 -20 -20 -20 -20 -20 -20 -20 -20 -20 -20 -20 -20 -20 -20 -20 -20 -20 -20 -20 -20 -20 -20 -20 -20 -20 -20 -20 -20 -20 -20 -20 -20 -20 -20 -20 -20

GFSGL_prec_radar_087.txt.gz
Reflectivity
-19 -20 -20 -20 -20 -20 -20 -20 -15 -5 -12 -20 -20 17 23 25 42 27 -19 -20 -20 -19 -4 -6 -20 -17 -0 -15 -20 -14 -10 -7 -20 -20 -20 -20 -20 -20 -20 -20 -20 -20 -20
18 -0 -10 -20 -20 -20 -20 -20 -20 -20 -7 29 29 29 39 40 22 33 -19 7 2 -20 -2 -20 -18 1 -4 14 13 -2 -9 -20 -20 -20 -20 -20 -20 -20 -20 -20 -20 -20 -20
16 17 13 -20 -20 -16 -20 -20 11 15 27 36 43 37 39 23 27 23 20 -20 -20 -20 -20 14 8 19 -3 -6 25 -14 -20 -20 -20 -20 -20 -20 -20 -20 -20 -20 -20 -20 -20
-20 -20 -20 -3 -20 -12 -15 12 19 18 29 27 24 12 6 18 20 6 -20 -20 -5 -14 2 1 8 -11 6 24 -13 -20 -20 -20 -20 -20 -20 -20 -20 -20 -20 -20 -20 -20 -20
-20 -20 -20 -20 7 9 23 -7 -2 1 31 16 -20 -20 -20 17 11 2 -20 -18 13 -2 17 -3 19 14 24 -15 -20 -20 -20 -20 -20 -20 -20 -20 -20 -20 -20 -20 -20 -20 -20
-20 -20 -20 -20 19 4 5 21 14 11 11 26 -20 -20 -20 17 23 14 6 -20 18 36 39 20 23 26 -18 -14 -20 -20 -20 -20 -20 -20 -20 -20 -20 -20 -20 -20 -20 -20 -20
-20 -20 -15 -11 -10 8 -8 -20 20 -1 22 -1 3 -11 14 -7 33 28 20 19 18 14 16 27 20 1 -20 -20 -19 -8 -20 -20 -20 -20 -20 -20 -20 -20 -20 -20 -20 -20 -20
-20 3 1 9 -8 -20 -20 -20 -9 17 -13 -7 13 26 25 34 25 24 23 30 37 34 14 -7 4 -8 -20 -12 -17 -20 -20 -20 -12 -15 -20 -20 -20 -20 -20 -20 -20 -20 -10
9 2 -8 -20 9 -15 -20 -19 -20 2 11 14 2 13 26 30 32 25 35 13 -3 7 -17 -20 1 -3 -9 -20 -20 -20 -20 -18 -15 -20 -13 -9 -12 -12 -15 -20 -20 1 -20
-20 9 18 -20 11 -6 -2 2 10 6 19 20 21 22 23 23 28 8 -7 11 8 5 13 -7 -20 -20 -11 -13 -19 -20 -20 -20 -13 -12 -9 -3 5 6 5 -2 -4 -11 -18
-19 -20 -20 -20 -20 -19 6 -20 -2 -7 -10 -7 -11 -3 5 6 12 20 16 34 17 13 4 -16 -16 -20 -20 -20 -17 -20 -11 -20 -20 -20 -20 -20 -16 -14 -20 -11 -1 6 -10
-20 -8 -20 -20 -20 -19 -8 -20 -20 -8 15 9 9 12 -5 6 15 14 17 17 9 6 2 -19 -20 -18 -1 10 -20 -20 -20 -20 -20 -20 -20 -20 -20 -20 -20 -20 -20 -13 6
-10 -20 -18 -20 -20 -20 -20 2 -20 -3 2 6 6 10 9 11 19 20 10 -2 -3 -1 2 6 12 14 -5 -20 -17 -20 -17 -10 -7 -13 -20 -20 -9 -19 -20 -20 -20 -20 -20
12 -4 -3 -3 -2 3 3 9 -0 2 7 9 11 17 20 18 12 -6 -8 5 15 18 9 -9 6 0 -1 -6 -4 -3 -7 -7 -9 -19 -20 -6 -20 -20 -20 -16 -20 -20 -20
-20 -20 -20 -20 -20 -9 -10 -7 1 11 17 16 11 8 11 14 16 16 12 11 2 -7 0 6 5 3 1 -9 -19 -16 -14 -17 -20 -20 -6 -20 -20 -20 -20 -2 -20 -20 -7
-20 -20 -20 -20 -3 6 8 13 14 14 15 15 14 13 10 9 9 5 1 8 9 4 5 2 -11 -16 -20 -7 -1 -11 -19 -20 -20 -20 -20 -20 -20 -20 -20 -20 -20 -20 -20
-20 -20 -20 -3 -15 -14 -15 -16 -11 5 7 3 -6 -10 -5 -1 7 9 -5 -20 -18 -1 -1 -10 -18 -7 -2 2 -3 -19 -20 -20 -20 -20 -20 -20 -20 -20 -20 -20 -20 -20 -20
-20 -17 -18 -16 -17 -19 -20 -20 -20 -18 -15 -6 4 8 8 1 -3 -12 -18 -15 -3 3 7 10 8 1 -12 -20 -20 -20 -20 -20 -20 -20 -20 -20 -20 -10 -20 -20 -20 -20 -20
-20 -20 -20 -20 -20 -20 -20 -20 -20 -20 -7 -11 -17 -20 -5 -11 -20 -20 -20 -20 -20 -20 -20 -20 -20 -20 -20 -20 -20 -20 -20 -20 -20 -20 -20 -20 -20 -20 -20 -20 -20 -20 -20
-20 -20 -20 -20 -20 -20 -20 -20 -20 -20 -20 -20 -20 -20 -20 -20 -20 -20 -20 -20 -20 -20 -20 -20 -20 -20 -20 -20 -20 -20 -20 -20 -20 -20 -20 -20 -20 -20 -20 -20 -20 -20 -20
-20 -20 -20 -20 -20 -20 -20 -20 -20 -20 -20 -20 -20 -20 -20 -20 -20 -20 -20 -20 -20 -20 -20 -20 -20 -20 -20 -20 -20 -20 -20 -20 -20 -20 -20 -20 -20 -20 -20 -20 -20 -20 -20
-20 -20 -20 -20 -20 -20 -20 -20 -20 -20 -20 -20 -20 -20 -20 -20 -20 -20 -20 -20 -20 -20 -20 -20 -20 -20 -20 -20 -20 -20 -20 -20 -20 -20 -20 -20 -20 -20 -20 -20 -20 -20 -20
-20 -20 -20 -20 -20 -20 -20 -20 -20 -20 -20 -20 -20 -20 -20 -20 -20 -20 -20 -20 -20 -20 -20 -20 -20 -20 -20 -20 -20 -20 -20 -20 -20 -20 -20 -20 -20 -20 -20 -20 -20 -20 -20
-20 -20 -20 -20 -20 -20 -20 -20 -20 -20 -20 -20 -20 -20 -20 -20 -20 -20 -20 -20 -20 -20 -20 -20 -20 -20 -20 -20 -20 -20 -20 -20 -20 -20 -20 -20 -20 -20 -20 -20 -20 -20 -20
-20 -20 -20 -20 -20 -20 -20 -20 -20 -20 -20 -20 -20 -20 -20 -20 -20 -20 -20 -20 -20 -20 -20 -20 -20 -20 -20 -20 -20 -20 -20 -20 -20 -20 -20 -20 -20 -20 -20 -20 -20 -20 -20
-20 -20 -20 -20 -20 -20 -20 -20 -20 -20 -20 -20 -20 -20 -20 -20 -20 -20 -20 -20 -20 -20 -20 -20 -20 -20 -20 -20 -20 -20 -20 -20 -20 -20 -20 -20 -20 -20 -20 -20 -20 -20 -20

GFSGL_prec_radar_090.txt.gz
Reflectivity
-20 -20 -20 -20 -20 -20 -20 -20 -20 -20 -20 -20 -20 -20 -20 5 3 15 23 29 37 33 17 20 9 22 -1 23 -20 -3 0 -17 -16 -17 4 -11 -20 -20 -20 -20 -20 -20 -20
-20 -17 17 -19 -20 -20 -20 -20 -20 -20 -20 -20 15 19 23 29 32 24 19 42 40 31 9 23 7 19 3 -19 -20 -12 10 -3 -9 -5 -20 -20 -20 -20 -20 -20 -20 -20 -20
-18 -17 9 29 13 -20 -20 -20 -20 -20 -20 17 16 28 27 21 18 27 36 37 22 21 20 24 19 -13 -20 6 34 14 -9 -7 12 11 -20 -20 -20 -20 -20 -20 -20 -20 -20
-20 -20 -20 -18 -20 -20 -9 -20 -20 -20 -3 -6 26 38 12 -20 -15 -20 -19 -4 24 26 27 20 18 -7 -1 3 13 29 7 22 20 -19 -20 -20 -20 -20 -20 -20 -20 -20 -20
-20 -20 -20 -20 -20 -20 -20 -20 -5 23 0 21 13 7 24 -20 -20 -20 -20 -19 20 16 9 4 3 31 30 25 7 18 22 26 25 -6 -20 -20 -20 -20 -20 -20 -20 -20 -20
-20 -20 -20 -20 -20 -20 -20 12 -11 20 16 -20 23 26 18 2 10 13 -9 -17 2 -11 -19 11 14 14 25 37 24 27 25 19 3 14 -4 -20 -20 -19 -8 -20 -20 -20 -20
-20 -20 -20 -20 2 -4 -10 -10 -20 -20 14 16 1 6 12 14 7 15 18 5 30 25 27 28 23 28 26 1 30 16 2 9 9 0 -20 -13 -9 -1 -17 -20 -20 -20 -20
-20 -20 -20 -7 -0 1 -15 8 18 20 7 6 18 13 17 18 21 23 25 20 36 40 19 16 39 31 25 14 -4 9 3 11 3 -16 -20 -20 -20 -20 -20 -20 -20 -20 -20
-20 2 -4 10 15 17 19 15 12 14 26 -5 -1 8 8 16 22 18 5 5 31 30 21 31 23 18 17 15 -1 1 11 4 -12 -17 -18 -20 -20 -20 -17 7 2 9 -20
6 5 20 13 19 17 21 17 14 -4 -12 -2 15 -4 15 14 24 19 19 6 2 19 16 6 16 9 0 5 13 12 14 14 5 -19 1 1 -1 -3 -1 5 12 9 3
-11 -16 -9 7 -4 10 13 -2 11 4 14 12 6 -7 6 -0 7 14 19 12 5 6 11 10 13 14 13 10 14 15 13 15 0 -20 -12 3 7 10 11 11 3 -2 -12
8 8 -0 11 14 6 3 -3 16 3 14 12 8 19 13 15 26 18 11 12 15 19 20 17 12 13 18 17 6 0 -16 -18 -14 -12 -12 -16 -18 -18 -13 -2 4 2 -4
-15 4 -6 7 5 -20 -20 -20 -19 -9 -4 1 1 6 10 15 12 17 15 15 14 12 16 18 20 15 11 1 -1 -7 -19 -16 -12 -11 -5 -4 -17 -14 -11 -9 -19 -20 -20
-20 -20 -20 -20 -19 -20 -20 -20 -20 -20 -19 -5 4 7 6 7 11 17 19 18 16 12 7 3 4 8 9 10 12 8 4 3 6 0 -5 -6 -6 -7 -18 -20 -19 -20 -20
-20 -20 -20 -20 -20 -20 -19 -12 -10 0 6 13 17 18 18 17 18 14 8 3 -3 -7 4 10 12 12 12 9 7 7 6 3 1 -2 -3 -9 -16 -20 -20 -20 -20 -20 -20
-20 -20 -18 -20 -20 -13 -18 -16 0 -2 4 5 5 3 7 8 5 3 2 5 10 7 -2 -10 -15 -15 -8 -2 -2 -6 -7 -15 -19 -20 -20 -20 -20 -20 -20 -20 -20 -20 -20
-20 -20 -20 -20 -20 -20 -20 -20 -20 -11 -20 -1 2 -20 -20 -3 -2 -4 -6 -6 -18 -20 -20 -19 -20 -20 -20 -2 -9 -16 -20 -20 -20 -20 -20 -20 -20 -20 -20 -20 -20 -20 -20
-20 -20 -20 -20 -20 -20 -20 -20 -20 -20 -20 -20 -20 -9 2 -3 -3 -3 -19 -20 -20 -18 -14 -13 -15 -18 -19 -20 -20 -20 -20 -20 -20 -20 -20 -20 -20 -20 -20 -20 -20 -20 -20
-20 -20 -20 -20 -20 -20 -20 -20 -20 -20 -20 -20 -20 -20 -20 -20 -20 -20 -20 -20 -20 -20 -20 -20 -20 -20 -20 -20 -20 -20 -20 -20 -20 -20 -20 -20 -20 -20 -20 -20 -20 -20 -20
-20 -20 -20 -20 -20 -20 -20 -20 -20 -20 -20 -20 -20 -20 -20 -20 -20 -20 -20 -20 -20 -20 -20 -20 -20 -20 -20 -20 -20 -20 -20 -20 -20 -20 -20 -20 -20 -20 -20 -20 -20 -20 -20
-20 -20 -20 -20 -20 -20 -20 -20 -20 -20 -20 -20 -20 -20 -20 -20 -20 -20 -20 -20 -20 -20 -20 -20 -20 -20 -20 -20 -20 -20 -20 -20 -20 -20 -20 -20 -20 -20 -20 -20 -20 -20 -20
-20 -20 -20 -20 -20 -20 -20 -20 -20 -20 -20 -20 -20 -20 -20 -20 -20 -20 -20 -20 -20 -20 -20 -20 -20 -20 -20 -20 -20 -20 -20 -20 -20 -20 -20 -20 -20 -20 -20 -20 -20 -20 -20
-20 -20 -20 -20 -20 -20 -20 -20 -20 -20 -20 -20 -20 -20 -20 -20 -20 -20 -20 -20 -20 -20 -20 -20 -20 -20 -20 -20 -20 -20 -20 -20 -20 -20 -20 -20 -20 -20 -20 -20 -20 -20 -20
-20 -20 -20 -20 -20 -20 -20 -20 -20 -20 -20 -20 -20 -20 -20 -20 -20 -20 -20 -20 -20 -20 -20 -20 -20 -20 -20 -20 -20 -20 -20 -20 -20 -20 -20 -20 -20 -20 -20 -20 -20 -20 -20
-20 -20 -20 -20 -20 -20 -20 -20 -20 -20 -20 -20 -20 -20 -20 -20 -20 -20 -20 -20 -20 -20 -20 -20 -20 -20 -20 -20 -20 -20 -20 -20 -20 -20 -20 -20 -20 -20 -20 -20 -20 -20 -20
-20 -20 -20 -20 -20 -20 -20 -20 -20 -20 -20 -20 -20 -20 -20 -20 -20 -20 -20 -20 -20 -20 -20 -20 -20 -20 -20 -20 -20 -20 -20 -20 -20 -20 -20 -20 -20 -20 -20 -20 -20 -20 -20

GFSGL_prec_radar_093.txt.gz
Reflectivity
-20 -20 -20 -20 -20 -20 -20 -20 -20 -20 -20 -20 -20 -20 -20 -20 -20 -20 -20 -20 -5 22 25 24 16 14 20 34 26 28 22 4 -10 -18 -20 -20 -20 -20 -2 -18 -13 -20 -20
-20 -20 -20 -20 -20 -10 -20 -20 -20 -20 -20 -20 -20 -20 -20 -20 -20 -7 25 33 36 36 38 36 34 34 37 25 24 26 9 -20 -20 -18 8 -20 -11 -5 6 -14 -20 -20 -20
-20 -18 -20 -20 -19 3 -8 -20 -20 -20 -20 -20 -20 -20 -20 -12 21 40 17 -10 6 3 32 31 25 32 19 -14 28 -11 -20 -20 -4 18 14 -4 -9 17 1 7 -20 -20 -15
-20 -20 -20 -20 -20 -20 -19 -20 -1 -20 -20 -20 -20 -20 -20 -20 12 21 -17 -20 -6 -2 12 -20 -14 11 16 32 34 -20 -15 22 34 12 12 16 26 10 12 -20 -6 -20 -10
-20 -20 -20 -20 -20 -20 -20 10 -13 -20 -20 -20 -20 16 -20 -10 -13 -20 13 23 -9 -20 -20 -20 -20 9 27 19 10 -1 22 28 31 38 23 24 25 20 23 13 -1 -20 -20
-20 -20 -20 -20 -20 -20 -20 -20 -19 -19 -4 5 -20 -20 -20 -19 17 11 10 6 20 0 -20 -17 10 24 16 28 22 28 26 36 35 34 27 16 26 27 14 5 -20 -20 -20
-20 -20 -20 -20 -20 -20 -20 -18 11 11 -12 -20 -20 -7 9 3 23 18 14 13 8 1 12 23 22 23 38 30 35 38 22 23 29 27 33 32 27 4 -3 -5 3 -20 -20
-20 -20 -20 -20 -20 -14 -20 -20 -20 -20 -20 -16 6 15 17 14 19 12 10 8 5 3 23 22 25 29 27 30 30 30 25 27 32 26 23 19 7 11 16 11 9 -14 -20
-20 -20 -20 -20 -20 -20 12 -0 -9 -9 -2 7 13 13 18 -2 16 3 3 -18 -14 -5 6 16 23 25 28 26 18 18 14 6 23 22 18 14 18 7 5 5 3 -12 -19
-20 -20 -20 -18 -14 -3 -2 -10 -5 -2 18 15 15 3 -2 6 14 -0 -1 -5 -3 7 10 13 21 16 14 15 3 1 6 15 9 11 16 11 11 5 6 5 -5 -3 -19
-13 0 10 17 8 8 15 13 13 15 12 3 -20 -17 -20 3 5 11 12 -6 -4 11 11 8 11 18 13 16 17 15 15 15 7 0 7 10 13 6 6 -0 4 5 -4
-1 -9 -0 5 4 1 -13 10 -11 -14 -20 -19 -20 -20 -13 -10 15 10 9 9 13 17 18 18 17 13 8 8 8 7 6 12 13 10 5 -6 -5 4 6 -1 -3 -8 -11
-6 3 -16 -4 -17 -14 -19 -20 -20 -17 10 2 13 5 1 7 9 15 10 12 15 13 10 2 -0 7 8 8 2 -1 -7 -2 -3 -11 -6 2 5 0 -15 -19 -20 -12 -11
-20 -20 -20 -20 -17 -20 -20 -20 -20 -8 6 7 5 4 4 3 -1 -4 -6 -12 -3 -4 -5 0 4 5 4 -3 5 -4 -12 -19 -19 -1 -3 0 -3 -2 -19 -20 -20 -20 -20
-20 -20 -20 -20 -20 -20 -20 -20 -16 -12 -14 -18 -10 -6 -20 -19 0 3 1 0 0 -14 -13 -11 1 -4 2 4 2 -11 -3 -0 -0 2 0 2 -15 -20 -20 -20 -20 -20 -20
-20 -20 -20 -20 -20 -20 -20 -20 -15 -18 -20 -20 -20 -20 3 8 -0 -0 -0 -4 -4 -17 1 0 4 3 3 3 5 4 1 -2 3 0 2 0 1 -7 -9 -20 -17 -0 -20
-20 -20 -20 -20 -20 -20 -20 -20 -4 -0 -20 -10 -6 -8 -4 -1 -5 -15 -5 -9 -11 -20 -2 3 4 3 3 4 4 4 4 6 -1 -0 3 3 4 3 2 2 -0 0 -6
-20 -20 -20 -20 -20 -20 -20 -20 -20 -3 -3 -2 -10 -20 -3 -5 -14 -20 -20 -20 -20 -20 -3 2 4 -5 4 3 3 2 2 2 4 3 2 2 3 4 4 4 3 4 4
-20 -20 -20 -20 -20 -20 -20 -20 -20 -20 -20 -20 -20 -20 -20 -20 -20 -20 -20 -20 -20 -15 -14 -5 1 2 3 3 5 5 4 4 4 4 4 4 4 5 4 3 4 2 -1
-20 -20 -20 -20 -20 -20 -20 -20 -20 -20 -20 -20 -20 -15 -20 -20 -20 -20 -5 -17 -5 -4 -2 -3 -2 0 2 2 3 5 4 3 3 3 3 4 5 6 5 4 4 5 4
-20 -20 -20 -20 -20 -20 -20 -20 -20 -20 -20 -20 -0 -20 -20 -20 -6 -2 -2 -3 -13 -2 -1 -1 -0 -1 -1 -1 -1 1 2 0 -2 -1 1 1 2 4 4 5 4 3 3
-20 -20 -20 -20 -20 -20 -20 -20 -20 -20 -20 -20 -20 -20 -20 -20 -16 -14 -10 -20 -1 -6 -1 -2 -20 -20 -20 -20 -20 -10 -20 -15 -1 2 2 2 3 4 3 4 3 3 2
-20 -20 -20 -20 -20 -20 -20 -20 -20 -20 -20 -20 -20 -20 -20 -20 -20 -20 -20 -20 -20 -20 -20 -20 -20 -20 -20 -20 -20 -20 -2 -2 0 2 2 2 2 2 2 3 2 2 1
-20 -20 -20 -20 -20 -20 -20 -20 -20 -20 -20 -20 -20 -20 -20 -20 -20 -20 -20 -20 -20 -20 -20 -20 -20 -20 -20 -20 -20 -20 -17 -3 1 2 1 1 1 -4 1 -0 -1 -2 -1
-20 -20 -20 -20 -20 -20 -20 -20 -20 -20 -20 -20 -20 -20 -20 -20 -20 -20 -20 -20 -20 -20 -20 -20 -20 -20 -20 -20 -20 -20 -20 -20 -10 -20 -2 -1 -1 -17 -4 -1 -5 -3 -2
-20 -20 -20 -20 -20 -20 -20 -20 -20 -20 -20 -20 -20 -20 -20 -20 -20 -20 -20 -20 -20 -20 -20 -20 -20 -20 -20 -20 -20 -20 -20 -20 -20 -20 -3 -2 -3 -20 -4 -3 -18 -1 -4

GFSGL_prec_radar_096.txt.gz
Reflectivity
-20 -20 -20 -20 -20 -20 -20 -20 -20 -20 -20 -20 -20 -20 -20 -20 -20 -3 -20 -20 -20 -20 -20 -7 -18 0 6 24 28 28 24 24 41 27 22 32 -10 -20 -20 -20 -20 -20 -20
-20 -20 -20 -20 -20 -20 -20 -20 -20 -20 -20 -20 -20 -20 -20 -20 -20 -20 -20 -20 -20 -14 9 20 7 17 18 32 26 27 30 30 27 33 25 29 26 8 -20 8 -11 -11 -20
-20 -20 -20 -20 -20 -20 -20 -20 -20 -20 -20 -20 -20 -20 -20 -20 -20 -20 -20 -20 7 7 0 5 -20 -1 -19 17 26 25 27 26 19 8 40 18 15 -19 -4 19 16 17 7
-20 -20 -20 -20 -20 -20 -20 -20 -20 -20 -20 -20 -20 -20 -20 -20 -20 -20 1 -1 6 -7 4 -20 -13 24 -20 -10 24 21 21 17 28 29 34 29 19 22 28 30 32 31 31
-20 -20 -20 -20 -20 -20 -20 -20 -20 -20 -20 -20 -20 -20 -20 -20 -20 -14 -16 3 14 -17 -3 20 5 22 20 18 10 15 18 20 19 21 32 28 35 30 34 37 39 28 29
-20 -20 -20 -20 -20 -20 -20 -20 -20 -20 -20 -20 -20 -20 -20 -9 18 11 17 5 16 15 10 13 1 25 24 23 19 20 7 27 6 14 46 29 36 39 37 38 37 33 26
-20 -20 -20 -20 -20 -20 -20 -20 -20 -10 -4 -2 -2 7 12 3 21 17 15 12 4 -8 -1 3 11 13 22 -1 17 22 22 20 21 31 26 33 30 35 35 34 27 18 16
-20 -20 -20 -20 -20 -20 -20 -5 5 15 1 -20 2 7 12 16 15 17 7 1 0 -8 -20 -12 -13 -6 9 -5 0 14 13 13 16 15 20 28 27 22 17 23 29 30 24
-20 -17 -10 -4 -17 -19 -20 14 15 22 15 13 15 12 19 4 15 12 9 -19 -20 -20 -19 -15 -7 -9 20 17 7 2 9 14 27 29 27 26 26 20 21 30 19 13 5
-20 -20 -20 -20 -20 -1 14 23 22 10 8 17 15 9 18 -12 11 7 3 -20 -20 -20 -15 2 13 3 11 9 -2 2 9 9 8 10 12 12 11 12 5 5 7 13 14
-20 -20 -20 -20 2 8 9 5 8 1 -8 -6 1 -1 8 13 -7 -18 -18 -20 -18 -6 1 4 4 14 5 6 13 13 10 6 -1 -16 -17 -13 -6 5 -0 3 10 9 10
-20 -12 -18 -20 -20 -17 -20 -18 -4 -11 -7 -1 -7 -17 -20 -20 2 0 -3 -7 -12 -7 5 6 1 -10 -15 -5 -10 -20 -20 -16 4 5 3 4 8 8 12 9 7 8 10
-20 -3 -14 -20 -20 -20 -20 -20 -20 -20 -20 -20 -18 -5 -3 1 1 11 -3 -16 -20 -9 -17 -20 -20 -20 -20 -20 -20 -20 -20 8 7 8 9 8 8 7 -1 4 2 3 2
1 3 -14 -20 -20 -20 -20 -20 -20 -20 -20 -20 -20 -19 -11 -5 0 0 -9 -1 -18 -11 -17 -3 -20 -20 -20 -16 -1 12 8 5 2 4 8 4 6 2 1 -1 0 -20 -18
-18 -16 -20 -20 -20 -20 -20 -20 -20 -16 -10 2 -6 -6 1 1 5 -3 -5 -5 -6 -11 -13 -3 -2 -3 -2 2 4 10 9 4 6 5 -1 -3 -10 -10 -4 -16 1 -12 -19
-20 -16 3 -20 -20 -20 -20 -13 -18 -3 -17 -20 -20 -6 -3 -13 -20 -20 -20 -20 -20 -20 -4 -2 3 5 5 4 0 7 6 9 4 -3 -17 -3 -10 -8 -16 -14 -9 -8 -13
26 22 20 5 -2 -5 -20 -20 -3 1 -20 -6 -6 -20 -8 -19 -20 -20 -20 -20 -20 -20 -5 -3 2 6 1 0 1 -12 -20 -5 0 -17 -12 -13 -20 -14 -19 -16 -17 -1 -10
20 10 -11 -20 -20 -20 -8 -6 -5 -2 -1 -4 -20 -20 -20 -20 -20 -20 -20 -20 -20 -20 -20 -20 -3 -11 -15 -20 -20 -20 -4 -20 -20 -19 -20 -12 -5 4 -9 -5 -5 -3 -3
-2 -20 -20 -20 -20 -20 -20 -20 -20 -20 -20 -20 -20 -20 -20 -20 -20 -20 -20 -20 -20 -20 -20 -20 -20 -20 -11 -20 -15 -15 -8 -20 -13 -9 -20 -7 -20 -7 -7 -14 -13 -5 -6
-20 -20 -20 -20 -20 -20 -20 -20 -20 -20 -20 -20 -20 -20 -20 -20 -8 -1 -0 2 1 -5 -3 -6 -7 -5 2 2 3 3 -2 2 3 3 -15 -20 -20 -11 -4 -11 -20 -20 -20
-20 -19 -15 -20 -20 -20 -20 -20 -20 -20 -20 -20 -9 -15 -20 -19 -2 -1 -1 -0 -1 -1 1 0 1 3 1 -15 -9 -2 2 4 2 3 -16 -6 -20 5 -1 -7 -20 -18 -20
-4 -20 -20 -20 -20 -20 -20 -20 -20 -20 -20 -20 -7 -20 -20 -2 -4 -20 -5 -1 2 1 1 1 1 0 -15 1 2 3 2 3 3 4 4 3 3 -11 -13 -17 -14 -15 -20
-20 -20 -20 -20 -20 -20 -20 -20 -20 -20 -20 -12 -20 -15 -20 -4 -3 -7 -2 0 0 -0 0 -1 1 -2 -2 -1 -0 1 3 3 3 4 4 4 4 5 5 6 6 5 -6
-20 -20 -20 -20 -20 -20 -20 -20 -20 -20 -20 -17 -4 -11 -5 -4 0 -0 -1 0 -2 -2 -2 -2 -2 -4 -20 -8 -0 0 -0 0 2 1 2 5 3 3 5 4 4 0 5
-20 -20 -20 -20 -20 -20 -20 -20 -20 -20 -20 -4 -5 -2 -6 -2 -2 -2 -2 -3 -20 -9 -3 -4 -2 -4 -5 -20 -13 -5 -1 -3 -3 -3 1 2 3 2 4 5 4 4 -12
-20 -20 -20 -20 -20 -20 -20 -20 -20 -20 -15 -4 -2 -2 -1 -4 -7 -4 -5 -20 -20 -20 -10 -5 -4 -20 -20 -14 -8 -14 -20 -20 -5 -12 -0 2 2 3 3 3 2 4 3

GFSGL_prec_radar_099.txt.gz
Reflectivity
-20 -20 -20 -20 -20 -20 -20 3 -20 -17 -20 -20 -4 -20 -20 8 -6 -10 -20 -20 -20 -10 -5 13 -20 -2 18 18 -5 25 -6 14 19 17 12 3 4 21 17 22 15 30 20
-20 -20 -20 -20 -20 -20 -20 -20 -20 -19 -20 -20 -20 -20 -20 -20 -20 -15 -20 -20 -20 -11 -20 16 14 -18 -19 3 17 -4 -1 27 9 10 8 17 20 20 19 21 6 24 31
-20 -20 -20 -20 -20 -20 -20 -20 -20 -20 -20 -20 -20 -20 -20 -20 -20 -10 -16 -20 -16 8 4 4 -20 -15 -12 14 18 -17 -5 36 9 11 11 24 12 20 22 12 14 20 26
-20 -20 -20 -20 -20 -20 -20 -20 -20 -20 -20 -20 -20 -20 -20 -20 -20 -20 -20 4 0 -8 -19 -20 -1 13 4 30 14 10 -0 21 16 15 14 17 11 16 13 34 30 27 37
-20 -20 -20 -20 -20 -20 -20 -20 -20 -20 -20 -20 -20 -20 -20 -20 -20 -20 -20 -20 7 14 19 26 23 31 25 20 12 6 17 15 16 20 12 20 17 26 20 15 19 24 36
-20 -20 -20 -20 -20 -20 -20 -20 -20 -20 -20 -20 -20 -9 4 -20 -17 9 5 -20 -10 25 28 25 21 24 21 25 17 18 23 18 16 18 12 15 16 26 16 9 13 34 35
-20 -20 -20 -20 -20 -20 -20 -20 -19 -9 -6 -20 -8 -20 11 -0 9 -4 17 19 23 16 14 7 31 11 23 -3 12 2 -1 -1 10 7 1 6 18 24 30 24 29 29 29
-20 -20 -20 -20 -20 -20 -20 -20 -16 -4 5 -12 -20 -18 -4 12 19 18 17 8 16 11 24 9 12 -18 1 -20 -20 -20 -20 -16 -0 10 13 16 19 23 22 24 25 24 25
-20 -20 -20 -20 -20 -20 -20 -20 3 -5 -4 0 8 13 11 17 22 15 16 -5 2 -3 10 13 -7 -20 4 -20 -20 -20 -20 -20 5 9 0 7 11 11 10 14 13 15 5
-20 -20 -20 -20 -20 -20 -20 -17 -5 2 22 24 20 21 26 6 22 14 10 -20 -20 -20 -20 -20 -16 -20 -20 -20 -20 -18 -17 1 0 3 8 -6 -10 -1 -7 -6 6 14 13
-5 -20 -20 -20 -20 -20 -19 -13 -2 14 19 21 15 16 2 17 10 14 15 5 -20 -20 -20 -20 -20 -20 -20 -20 -20 -20 -20 -20 1 1 -0 -2 0 6 10 9 11 12 9
4 4 3 2 -16 -8 -4 -1 -1 -2 3 11 13 6 0 -10 18 9 -15 -18 -20 -9 -14 -13 -20 -20 -20 -20 -16 -20 -20 -16 5 4 4 8 10 6 7 -20 -20 -6 1
-11 11 3 -3 -19 -19 4 -2 -12 -20 -19 -17 -20 -20 -2 -1 1 -13 -19 -0 -9 -20 -20 -20 -20 -20 -20 -20 -20 -20 -20 2 2 -0 3 6 -1 3 -0 2 2 1 2
-20 -20 -0 -17 -20 -20 -20 -6 -20 -20 -20 -20 -13 -4 -3 -9 -20 -10 -20 -20 -20 -20 -20 -20 -19 -20 -20 -10 -0 7 14 9 7 13 8 -5 1 -20 3 3 1 -16 10
7 10 -19 -19 -18 -5 18 2 -20 -19 -18 -20 -16 -5 -1 0 3 -10 -20 -20 -20 -20 -20 -20 -19 -20 -20 -20 -12 -15 -3 -2 7 -1 -1 -14 1 -19 -8 -0 -17 -20 9
0 -14 0 -12 8 14 -20 -18 12 -17 -20 -20 -20 -10 -14 -14 -20 -20 -20 -20 -20 -20 -20 -20 -7 -3 -8 -20 -20 -19 -18 -19 -6 -20 -1 -9 -9 -4 6 5 -14 13 14
11 14 22 18 -6 8 15 21 7 -8 -20 -20 -20 -20 -20 -20 -20 -20 -20 -20 -20 -20 -20 -20 -20 -11 -20 -20 -20 -20 -9 -20 -10 -0 3 -6 5 5 11 -5 8 13 9
25 25 25 16 12 6 6 5 2 -3 -10 -20 -20 -20 -20 -20 -20 -20 -20 -20 -20 -20 -20 -20 -20 -20 -20 -20 -16 -3 1 1 -7 2 4 6 8 9 -3 7 -2 12 2
22 16 9 7 12 15 15 14 -1 -20 -20 -16 -15 -20 -20 -20 -20 -20 -20 -20 -20 -20 -20 -20 -20 -5 -3 -3 1 4 3 5 4 5 6 7 -6 7 7 -6 8 8 9
2 -17 -5 10 13 4 -14 -20 -20 -16 -20 -20 -20 -20 -20 -20 -20 -20 -20 -10 -6 -9 -4 -8 -5 -1 1 0 1 2 1 -2 3 1 -2 -3 1 7 -13 8 10 11 9
13 10 4 -10 -12 -20 -20 -20 -7 -1 -19 -20 -20 -20 -20 -20 -20 -5 -3 -2 -2 0 1 -0 1 0 0 0 -0 0 2 2 1 1 4 -5 6 8 6 7 10 8 9
-7 -20 -20 -20 -20 -20 -20 -20 -20 -20 -20 -20 -20 -20 -20 -4 -2 -2 -1 1 3 1 1 -0 1 1 -1 -0 0 1 0 1 2 3 3 -0 -2 4 0 3 7 10 4
-20 -20 -20 -20 -20 -20 -20 -20 -20 -20 -20 -20 -20 -11 -5 1 1 -0 1 1 -0 -0 -0 -2 -1 -2 -2 -1 -1 1 2 2 3 -8 3 4 -1 -8 9 8 9 9 10
-20 -20 -20 -20 -20 -20 -20 -20 -20 -20 -20 -3 1 0 0 -1 1 0 0 -1 -2 -1 -0 -2 -2 -2 -5 -4 -0 -1 -1 -0 1 2 1 7 3 3 8 7 8 6 10
-20 -20 -20 -20 -20 -20 -20 -20 -5 -3 -2 -0 -0 0 -4 -1 -2 -1 -1 -2 -4 -5 -5 -4 -0 -3 -2 -4 -4 -2 0 -20 -10 -6 -1 0 2 0 6 8 7 6 9
-20 -20 -20 -20 -20 -11 -5 -5 -4 -3 -1 -1 0 0 -0 -1 -4 -4 -3 -5 -20 -20 -5 -3 -3 -3 -4 -3 -3 -3 -20 -20 -15 -20 1 2 4 6 6 6 -2 7 5

GFSGL_prec_radar_102.txt.gz
Reflectivity
-20 -14 -20 -20 -20 -20 -20 -20 -20 -20 -20 -20 -20 -20 -17 -20 -20 -20 -20 -20 -20 -20 -20 -20 -20 -20 14 14 16 23 1 -19 -14 -9 -12 10 -16 -20 -20 -18 13 16 4
-20 -20 -20 -20 -20 -20 -20 -20 -20 -20 -20 -20 -20 -20 -20 -20 -20 -20 -20 -20 -20 -20 -20 6 -20 11 12 -11 16 18 18 15 13 23 7 3 18 21 19 5 12 10 -1
-20 -20 -20 -20 -20 -20 -20 -20 -19 -5 3 -15 -8 -17 -20 -16 -20 -20 -20 -20 -20 -16 4 11 20 23 19 18 18 18 17 32 22 31 5 4 -12 -18 -8 21 15 19 22
-20 -20 -20 -20 -20 -20 -20 -20 -20 -20 -20 -20 -20 -17 -20 -11 -10 -9 3 5 8 17 21 17 -20 -6 -3 -20 -17 32 26 38 23 13 7 22 9 23 -4 14 20 14 10
-20 -20 -20 -20 -20 -20 -20 -20 -20 -20 -20 -20 -8 2 7 12 -13 -20 10 -11 -20 -12 -20 -20 -8 23 16 32 15 33 24 -12 11 27 4 -5 -3 -2 17 2 3 4 15
-20 -20 -20 -20 -20 -20 -20 -20 -20 -6 -1 5 -1 -20 -20 -20 10 13 15 -20 -20 -20 -20 8 6 23 28 17 24 -5 25 32 -7 -2 -9 -20 -20 -13 -1 6 9 17 7
-20 -20 -20 -20 -20 -20 -20 -20 2 -12 -20 -20 6 16 16 10 17 12 14 -13 0 21 24 30 30 23 22 -8 9 14 1 19 -17 -20 -20 -20 -20 -12 -5 -11 -8 5 7
-20 -20 -20 -20 -20 -20 -20 -20 -3 -1 12 9 9 4 0 2 14 13 22 17 16 29 26 28 10 25 15 18 7 16 -7 -20 -20 -20 -20 -19 -13 -15 -10 -5 -3 -17 -14
-20 -20 -20 -20 -20 -20 -20 -20 -10 -7 15 6 5 14 20 21 22 18 14 2 2 17 28 16 20 17 9 18 7 -12 -20 -20 -20 -20 -20 -20 -20 -20 -20 -20 -9 -19 -20
-20 -20 -20 -20 -20 -20 -20 -0 12 12 5 12 22 24 24 18 22 17 18 1 23 32 28 16 16 17 12 1 -20 -20 -20 -20 -15 -19 -18 -15 -19 7 -7 10 1 -3 2
1 -20 -20 -20 -16 18 24 17 22 21 19 19 15 18 16 11 20 24 25 18 1 -14 -10 -13 -20 -19 -20 -20 -20 -20 -20 -20 -4 -20 -20 -11 -16 -9 -20 -20 -20 -20 -20
10 -20 -20 1 9 13 23 18 28 25 20 20 19 12 16 21 21 13 0 7 -3 -20 -20 -20 -20 -16 -20 -20 -20 -20 -18 -20 -20 -20 -7 -1 -13 -20 -20 -20 -20 -1 -5
20 26 0 -14 -6 -3 25 22 22 24 18 16 13 11 5 6 -10 -18 -20 -20 -20 -20 -20 -20 -20 -20 -3 -20 -20 -10 -20 -20 -20 -20 -19 -20 -20 -20 -20 -20 -20 -20 -20
19 -3 -1 11 18 11 12 17 12 14 8 -5 -9 3 20 -20 -20 -20 -20 -20 -20 -20 -7 -20 -20 -20 -20 -20 -20 -20 -20 -20 -20 -20 -20 -20 -20 -20 -20 -20 -20 -20 -20
-5 11 21 18 15 25 6 11 2 -13 -8 9 12 16 -10 -5 -16 -20 -20 -20 -20 -20 -20 -20 -20 -20 -20 -20 -20 -20 -20 -20 -20 -20 -20 -20 -20 -20 -20 -20 -20 -20 -20
16 18 15 21 8 8 -11 14 10 17 21 22 17 -3 -9 6 -2 -20 -20 -20 -20 -20 -20 -20 -20 -20 -20 -20 -20 -20 -20 -20 -20 -16 -20 -20 -16 -20 -18 -12 -19 -9 1
25 18 16 -7 -19 9 19 22 24 23 21 14 -5 -20 -14 -20 -15 6 -6 -20 -20 -20 -20 -20 -20 -20 -20 -20 -20 -20 -20 -20 -15 -20 -20 -20 -20 -5 -20 -14 -2 -9 -20
18 17 24 28 29 27 25 22 18 10 11 -4 -7 5 9 11 -12 -20 -17 -13 -20 -20 -20 -20 -20 -20 -20 -20 -20 -20 -20 -13 -20 -20 -20 -20 -20 -20 -13 -2 -17 -20 -9
29 30 26 22 20 19 10 -4 -8 -3 1 8 13 13 8 6 -3 -14 -20 -20 -20 -20 -20 -20 -20 -20 -20 -20 -20 -19 -20 -20 -20 -20 -17 -20 -20 -5 -20 -20 -10 -8 -19
22 18 13 12 13 4 2 8 12 12 4 -3 -12 -19 -20 -20 -20 -20 -20 -20 -20 -20 -20 -20 -20 -20 -20 -20 -20 -20 -20 -20 -20 -20 -20 -20 -19 -20 -20 -7 -10 3 4
16 18 13 7 4 0 -0 -6 -6 -12 -20 -20 -20 -20 -20 -20 -20 -20 -20 -20 -20 -20 -20 -20 -20 -20 -20 -20 -20 -20 -20 -20 -20 -7 -20 -20 -20 -9 -12 -9 1 -15 -8
10 7 6 5 6 10 9 -1 -14 -20 -20 -20 -20 -20 -20 -20 -20 -20 -20 -20 -20 -20 -20 -20 -20 -20 -20 -20 -20 -20 -15 -19 -13 -12 -16 -20 -20 -20 -3 -6 -20 -14 -0
-20 -7 -9 -15 -20 -20 -20 -20 -20 -20 -20 -20 -20 -20 -20 -20 -20 -20 -20 -20 -20 -20 -20 -15 -20 -20 -18 -20 -20 -1 -18 -20 -10 -12 -20 -20 -20 -20 -20 -20 -1 -20 -20
-5 -16 -20 -11 -20 -20 -20 -20 -20 -20 -20 -10 -8 -20 -20 -20 -20 -20 -20 -20 -20 -20 -20 -20 -20 -20 -20 -20 -20 -20 -20 -20 -19 -20 -20 -20 -20 -20 -17 -20 -20 -20 -19
-20 -20 -20 -20 -20 -19 -20 -20 -20 -20 -20 -20 -20 -20 -20 -20 -20 -20 -18 -20 -20 -20 -20 -20 -20 -20 -20 -20 -20 -20 -20 -20 -20 -20 -20 -20 -20 -20 -20 -20 -20 -2 -20
-20 -20 -20 -20 -20 -20 -20 -20 -20 -20 -20 -20 -18 -20 -20 -20 -20 -20 -9 -20 -20 -20 -20 -20 -20 -20 -20 -14 -16 -9 -20 -20 -20 -20 -20 -20 -20 -20 -20 -15 -20 -20 -15

GFSGL_prec_radar_105.txt.gz
Reflectivity
-20 -20 -20 -20 -20 -20 -20 -20 -20 -19 -20 -20 -20 -19 3 -16 -18 -5 -13 -13 -20 -16 13 10 -20 -20 -20 -20 -20 -20 -20 -20 -8 -20 -20 -19 -13 -4 8 26 -7 -17 -11
-20 -20 -20 -20 -20 -20 -20 -20 -20 -20 -20 -20 -20 -20 -20 -20 -20 -20 -20 -20 -20 -20 -20 -20 -20 -10 -20 -20 -20 -20 -20 5 15 -11 16 5 37 24 6 -19 -20 -6 2
-20 -20 -20 -20 -20 -20 -20 -20 -20 -20 -20 -20 -20 -20 -20 -20 -20 -20 -20 -20 -20 -20 -14 3 -20 -20 -20 -19 -5 -20 -14 18 9 26 28 14 7 32 5 12 -8 1 19
-20 -20 -20 -20 -20 -20 -20 -20 -20 -20 -20 -20 -20 -20 -4 -20 -20 -20 -20 -19 -15 -13 -5 -13 -20 -20 -20 -20 -19 -18 19 18 26 27 26 24 -12 11 -16 -9 -19 -20 -20
-20 -20 -20 -20 -20 -20 -20 -20 -20 -20 -20 -20 -20 -20 -20 -20 -19 -20 -20 5 15 -5 -18 -20 -20 -4 6 8 -1 -8 23 12 35 -6 -2 -19 -20 -20 -18 -20 -20 -20 -20
-20 -20 -20 -20 -20 -20 -20 -20 -20 -20 -20 -20 -20 -20 -20 -20 11 14 12 -13 -20 -14 6 22 9 24 16 19 27 36 19 15 -11 -6 12 -7 14 -2 -1 -19 -20 -20 -20
-20 -20 -20 -20 -20 -20 -20 -20 -19 -20 -20 -20 13 5 10 -20 15 14 10 6 17 9 -2 -9 22 24 34 25 38 42 15 24 2 -18 -8 -16 -11 -19 -20 -14 -12 -20 0
-20 -20 -20 -20 -20 -20 -20 -20 -16 -8 15 8 9 8 2 11 18 17 20 8 -13 -16 8 18 18 22 28 35 38 27 31 10 -20 -20 -7 -20 -18 -20 -20 -14 -10 -9 -20
-20 -20 -20 -20 -20 -20 -20 15 19 20 16 17 17 15 14 14 20 13 9 -3 16 27 22 23 19 25 32 24 15 -15 -20 -20 -20 -20 -19 3 6 -5 -16 -20 -20 -20 -20
-20 -13 -20 -20 -20 -20 4 13 1 14 18 11 17 20 33 16 24 20 19 17 18 27 20 26 33 8 -2 4 -16 -20 -20 -20 -20 -20 -20 -20 -20 -20 -20 -20 -20 -19 -18
14 6 -5 -17 -20 9 16 -3 2 15 19 16 17 12 9 24 26 26 24 9 -6 13 21 17 -20 -18 -20 -20 -20 -20 -20 -20 -20 -20 -20 -20 -20 -20 -20 -20 -20 -20 -10
-2 26 30 4 5 12 6 13 4 7 7 7 14 19 22 15 20 17 19 18 16 -9 -20 -20 -20 -7 -20 -20 -20 -20 -20 -20 -20 -20 -20 -20 -20 -20 -20 -20 -20 -20 -20
23 25 21 20 21 17 16 17 3 6 19 13 18 32 8 12 19 19 7 -7 9 21 7 -20 -20 -20 -20 -20 -20 -20 -20 -20 -20 -20 -20 -20 -20 -20 -20 -20 -20 -20 -20
6 6 5 12 -7 -2 15 31 23 19 20 26 24 22 12 12 5 -1 9 8 8 17 12 -17 -20 -20 -20 -20 -20 -20 -20 -20 -20 -20 -20 -20 -20 -20 -20 -20 -20 -20 -20
4 6 -1 5 12 19 22 30 25 31 24 22 25 17 5 5 14 15 18 14 8 -0 -20 -20 -20 -20 -20 -20 -20 -20 -20 -20 -20 -20 -20 -20 -20 -20 -20 -20 -20 -20 -18
18 20 19 26 23 24 11 20 22 23 24 25 26 23 23 20 13 12 7 7 8 -17 -15 -14 -12 -20 -20 -20 -20 -20 -20 -20 -20 -20 -20 -20 -20 -20 -20 -20 -14 -20 -20
12 11 17 20 20 17 23 29 25 27 26 25 19 20 18 18 18 15 14 6 8 7 1 -15 -20 -20 -20 -20 -20 -20 -20 -20 -20 -20 -20 -20 -20 -20 -17 -20 -20 -20 -20
26 28 25 24 26 26 26 26 26 24 19 15 18 21 21 20 9 5 3 -6 -20 -20 -20 -20 -20 -20 -20 -20 -20 -20 -20 -20 -20 -20 -20 -20 -20 -20 -20 -20 -20 -20 -20
26 30 33 32 29 26 23 18 14 14 16 17 15 14 6 1 -11 -20 -20 -20 -20 -20 -20 -20 -20 -20 -20 -20 -20 -20 -20 -20 -20 -20 -20 -20 -20 -20 -20 -20 -20 -20 -14
30 29 26 20 9 3 2 -4 -10 -4 5 10 8 -2 -16 -20 -20 -20 -20 -20 -20 -20 -20 -20 -20 -20 -20 -20 -20 -20 -20 -20 -20 -20 -20 -20 -20 -20 -20 -20 -20 -20 -20
21 16 9 -7 -12 -0 8 10 8 3 0 -3 -1 -7 -10 -11 -20 -20 -20 -20 -20 -20 -20 -20 -20 -20 -20 -20 -20 -20 -20 -20 -20 -20 -20 -20 -20 -20 -20 -20 -20 -20 -20
4 -3 -6 2 6 7 4 -3 -0 -3 -14 -20 -20 -20 -20 -20 -20 -20 -20 -20 -20 -20 -20 -20 -20 -20 -20 -20 -20 -20 -20 -20 -20 -20 -20 -20 -20 -20 -20 -20 -20 -20 -20
8 -15 -16 -7 -1 -19 -20 -20 -20 -20 -20 -20 -20 -20 -20 -20 -20 -20 -20 -20 -20 -20 -20 -20 -20 -20 -20 -20 -20 -20 -20 -20 -20 -20 -20 -20 -20 -20 -20 -20 -20 -20 -20
-1 -10 -18 -20 -20 -20 -20 -20 -20 -20 -20 -20 -20 -20 -20 -20 -20 -20 -20 -20 -20 -20 -20 -20 -20 -20 -20 -20 -20 -20 -20 -20 -20 -20 -20 -20 -20 -20 -20 -20 -20 -20 -20
-20 -20 -20 -20 -20 -20 -20 -20 -20 -20 -20 -20 -20 -20 -20 -20 -20 -20 -20 -20 -20 -20 -20 -20 -20 -20 -20 -20 -20 -20 -20 -20 -20 -20 -20 -20 -20 -20 -20 -20 -20 -20 -20
-19 -15 -19 -20 -20 -20 -20 -20 -20 -20 -20 -20 -20 -20 -20 -20 -20 -20 -20 -20 -20 -20 -20 -20 -20 -20 -20 -20 -20 -20 -20 -20 -20 -20 -20 -20 -20 -20 -20 -20 -20 -20 -20

GFSGL_prec_radar_108.txt.gz
Reflectivity
-20 -4 9 -20 -20 -20 -20 -20 -20 -12 22 31 27 36 30 33 36 30 27 22 16 20 15 13 10 16 17 6 7 9 -9 7 12 -20 -20 -20 -20 -20 17 8 27 12 -10
-20 -20 -3 -20 -20 -20 -20 -20 -20 -20 -20 -19 -5 30 32 23 -9 -19 -19 -13 5 8 -11 1 -18 -3 6 3 11 -16 11 10 15 15 15 13 4 14 -4 12 16 22 -19
-20 -20 -5 -19 -20 -20 -20 -20 -20 -20 -20 -20 -20 -20 -6 -12 -20 -20 -20 -20 9 -2 -17 -20 -17 -20 -20 -14 -20 -16 9 18 20 21 17 11 4 26 17 -16 -20 16 -20
-20 -20 -20 -20 -20 -20 -20 -20 -20 -20 -20 -20 -20 -20 -20 -20 -20 -20 -20 -20 -20 -20 -20 -20 -20 -20 -20 -20 -20 -7 14 12 -7 22 18 24 27 25 -9 -13 -20 -20 -20
-20 -20 -20 -20 -20 -20 -20 -20 -20 -20 -20 -20 -20 -20 -20 -20 -20 -20 -20 -20 -20 -19 -20 -20 -20 -20 -20 -3 -8 -20 -10 -5 27 -3 16 21 17 10 5 -4 -6 -20 -20
-20 -20 -20 -20 -20 -20 -20 -20 -20 -20 -20 -20 -20 -20 -20 -20 6 1 2 -17 -2 1 -20 -20 -20 -0 9 30 33 25 14 1 5 25 34 35 23 0 -7 -20 -20 -20 -20
-20 -20 -20 -20 -20 -20 -20 -20 -20 -20 -20 -20 -20 -14 -20 -19 12 11 12 6 17 17 21 -11 9 28 28 15 24 27 30 32 33 36 15 2 -20 -19 -20 -20 -20 -0 -20
7 -20 -20 -20 -20 -20 -20 -20 -20 -20 -20 -15 5 9 6 9 15 14 15 5 -8 -6 19 31 18 9 17 29 28 22 30 24 18 1 -20 -19 -19 -20 -20 -20 -20 -20 -20
19 27 -3 -20 -20 -20 -20 -20 -20 10 16 4 9 -3 -5 -2 15 6 3 4 25 21 17 13 16 25 29 21 21 27 21 -18 -18 -18 -20 -20 -20 -20 -20 -20 -20 -20 -20
27 26 13 -18 -20 -20 -20 -20 -20 -10 -19 -18 -3 -9 12 13 25 16 11 -7 -11 6 18 18 25 24 24 18 17 10 -20 -20 -20 -20 -20 -20 -20 -20 -20 -20 -20 -20 -20
20 21 22 12 -7 -16 -20 -1 17 21 10 17 19 11 10 8 16 21 23 9 -1 8 18 27 25 14 16 18 1 -10 -20 -20 -20 -20 -20 -20 -20 -20 -20 -20 -20 -20 -20
24 21 25 26 25 7 -1 -1 -0 4 12 12 11 10 8 7 25 23 21 30 30 4 10 14 21 18 14 6 -4 -0 -1 -20 -20 -20 -20 -20 -20 -20 -20 -20 -20 -20 -20
25 23 28 29 25 24 25 28 13 1 27 24 17 16 6 16 22 25 32 33 20 12 18 18 18 2 -19 -1 5 6 -11 -15 -20 -20 -20 -20 -20 -20 -20 -20 -20 -20 -20
9 8 15 17 18 23 21 22 15 11 10 6 12 21 21 17 19 22 20 15 19 14 6 -9 -19 -2 8 9 2 -0 -5 -20 -20 -20 -20 -20 -20 -20 -20 -20 -20 -20 -20
12 -10 -6 6 6 2 16 20 18 23 25 31 29 36 28 28 29 28 22 23 22 20 12 6 9 9 9 9 1 -20 -20 -20 -20 -20 -20 -20 -20 -20 -20 -20 -20 -20 -20
15 18 16 18 11 17 23 22 24 24 29 28 34 38 32 29 28 19 14 10 11 13 11 12 12 13 -3 -20 -20 -20 -20 -20 -20 -20 -20 -20 -20 -20 -20 -20 -20 -20 -20
17 13 16 14 20 21 13 15 19 29 37 36 22 25 25 21 17 21 21 19 10 10 11 8 -9 -20 -20 -20 -20 -20 -20 -20 -20 -20 -20 -20 -20 -20 -20 -20 -20 -20 -20
14 20 13 16 19 21 25 27 26 23 22 22 19 17 15 14 14 13 13 10 6 2 -1 -17 -20 -20 -20 -20 -20 -20 -20 -20 -20 -20 -20 -20 -20 -20 -20 -20 -20 -20 -20
17 17 17 20 22 23 24 26 26 23 21 19 20 20 18 16 16 13 4 -5 -13 -20 -20 -20 -20 -20 -20 -20 -20 -20 -20 -20 -20 -20 -20 -20 -20 -20 -20 -20 -20 -20 -20
20 23 24 22 20 21 23 24 25 23 22 17 14 9 -2 -15 -20 -20 -20 -20 -20 -20 -20 -20 -20 -20 -20 -20 -20 -20 -20 -20 -20 -20 -20 -20 -20 -20 -20 -20 -20 -20 -20
19 23 24 22 19 17 17 19 18 16 12 -4 -16 -20 -9 -11 -20 -20 -20 -20 -20 -20 -20 -20 -20 -20 -20 -20 -20 -20 -20 -20 -20 -20 -20 -20 -20 -20 -20 -20 -20 -20 -20
14 10 8 9 11 13 13 14 14 5 -13 -20 -18 -20 -20 -20 -20 -20 -20 -20 -20 -20 -20 -20 -20 -20 -20 -20 -20 -20 -20 -20 -20 -20 -20 -20 -20 -20 -20 -20 -20 -20 -20
13 13 11 -1 -6 -11 -7 -11 -20 -20 -20 -20 -20 -20 -20 -20 -20 -20 -20 -20 -20 -20 -20 -20 -20 -20 -20 -20 -20 -20 -20 -20 -20 -20 -20 -20 -20 -20 -20 -20 -20 -20 -20
6 -0 -18 -20 -20 -20 -20 -20 -20 -20 -20 -20 -20 -20 -20 -20 -20 -20 -20 -20 -20 -20 -20 -20 -20 -20 -20 -20 -20 -20 -20 -20 -20 -20 -20 -20 -20 -20 -20 -20 -20 -20 -20
-5 -13 -20 -20 -20 -20 -20 -20 -20 -20 -20 -20 -20 -20 -20 -20 -20 -20 -20 -20 -20 -20 -20 -20 -20 -20 -20 -20 -20 -20 -20 -20 -20 -20 -20 -20 -20 -20 -20 -20 -20 -20 -20
-20 -20 -20 -20 -20 -20 -20 -20 -20 -20 -20 -20 -20 -20 -20 -20 -20 -20 -20 -20 -20 -20 -20 -20 -20 -20 -20 -20 -20 -20 -20 -20 -20 -20 -20 -20 -20 -20 -20 -20 -20 -20 -20

GFSGL_prec_radar_111.txt.gz
Reflectivity
-20 -20 -20 -20 5 -20 -20 -20 9 14 12 24 32 31 34 31 28 37 35 33 30 35 34 31 24 22 18 24 22 21 24 21 12 -18 -20 -20 -20 -20 -11 -6 -6 -10 14
-20 -20 -20 -20 8 -20 -20 -20 -20 -17 6 23 31 33 31 29 36 30 34 36 35 33 36 27 23 22 20 19 24 7 2 -14 -14 -18 -20 -6 -10 -1 -6 -1 9 4 14
-20 -20 -20 -20 -20 -20 -20 -20 -20 -20 -20 2 9 19 30 27 31 35 32 19 -4 10 11 13 13 12 19 5 9 -7 -20 -20 -20 -4 14 19 7 9 10 7 24 1 10
-20 -20 -15 -20 -20 -20 -20 -20 -20 -20 -20 -17 -7 7 23 17 30 29 -5 -12 -2 -6 4 10 -14 -13 -9 -12 -20 -20 -20 -20 -17 -3 13 18 22 20 36 6 13 5 -12
-20 -20 5 -6 -20 -20 -20 -20 -20 -20 -20 -20 -20 -20 -19 -10 -2 -10 -17 -20 -20 -20 -19 -20 -20 -20 -20 3 8 -15 6 18 23 19 28 20 17 -8 22 17 -17 -12 -20
-20 -12 -20 -6 -20 -20 -20 -20 -20 -20 -20 -20 -20 -20 -20 -20 -20 -20 -20 -20 -20 -20 -20 -12 -17 14 11 3 3 5 7 -10 10 24 13 24 19 18 8 3 -15 -20 -20
-20 -20 -20 -20 -20 -20 -20 -20 -20 -20 -20 -20 -16 -5 -20 -20 -19 3 5 -20 -20 -19 -16 10 17 9 11 -4 9 14 30 32 20 11 27 6 3 -0 -20 -20 -20 -20 -20
6 -20 -20 -20 -20 -20 -20 -20 -20 -18 8 -20 -8 12 -19 -6 8 9 10 -12 3 9 17 1 13 5 -1 12 20 3 1 15 25 24 -5 -4 -11 -10 -20 -20 -20 -20 -20
21 3 -12 -20 -20 -20 -20 -20 -20 -20 -19 -18 -20 -20 -20 -9 15 1 -7 -14 5 6 23 13 -8 10 33 26 22 6 8 13 -3 -13 -3 0 -13 -20 -20 -20 -20 -20 -20
25 32 20 -18 -19 -20 -20 -20 -16 5 -3 -19 -4 7 22 15 21 21 16 6 7 5 5 17 24 27 26 10 5 6 7 -9 -10 -17 -20 -13 2 -13 -20 -20 -20 -20 -20
-11 14 31 23 15 -12 -20 -17 -5 7 6 3 18 16 14 9 12 21 23 7 10 13 15 17 25 25 12 12 4 10 4 -12 -20 -18 -11 -17 -20 -20 -20 -20 -20 -20 -20
-15 -10 19 30 27 15 2 -20 -20 -7 -14 -12 -12 -5 4 9 27 27 26 18 22 16 23 27 30 32 32 20 7 8 -5 -0 10 14 4 -20 -20 -20 -20 -20 -20 -20 -20
6 7 32 32 34 24 27 19 24 -2 6 7 3 8 7 14 21 21 26 21 20 12 19 26 30 30 18 16 19 19 18 14 8 -5 -9 -18 -20 -20 -20 -20 -20 -20 -20
4 6 25 18 13 9 14 30 35 37 24 36 41 31 34 19 18 20 25 20 28 24 16 19 21 22 20 13 10 8 9 -0 -3 -18 -20 -20 -20 -20 -20 -20 -20 -20 -20
-17 -16 -6 -4 5 -14 -18 -14 -13 -6 8 12 15 19 26 23 24 27 27 25 25 25 26 26 25 25 20 17 13 3 -18 -20 -20 -20 -20 -20 -20 -20 -20 -20 -20 -20 -20
14 2 14 13 4 10 10 20 25 27 23 25 35 38 38 28 32 27 23 21 19 16 15 15 13 11 9 7 -9 -20 -20 -20 -20 -20 -20 -20 -20 -20 -20 -20 -20 -20 -20
-4 -11 6 7 13 8 10 15 26 24 18 23 14 17 17 20 21 19 15 14 14 14 15 13 12 9 -17 -20 -20 -20 -20 -20 -20 -20 -20 -20 -20 -20 -20 -20 -20 -20 -20
9 19 4 2 11 12 13 21 18 20 20 21 26 27 27 27 26 16 -2 4 7 11 11 8 -6 -20 -20 -20 -20 -20 -20 -20 -20 -20 -20 -20 -20 -20 -20 -20 -20 -20 -20
8 5 1 8 12 10 17 24 25 22 14 4 1 -0 4 8 11 15 15 10 3 -3 -14 -20 -20 -20 -20 -20 -20 -20 -20 -20 -20 -20 -20 -20 -20 -20 -20 -20 -20 -20 -20
11 10 12 9 13 16 17 17 16 10 -2 1 4 10 12 9 7 4 5 2 -19 -20 -20 -20 -20 -20 -20 -20 -20 -20 -20 -20 -20 -20 -20 -20 -20 -20 -20 -20 -20 -20 -20
4 10 10 12 13 14 5 -8 6 13 10 8 6 -1 -2 1 -5 -11 -11 -20 -20 -20 -20 -20 -20 -20 -20 -20 -20 -20 -20 -20 -20 -20 -20 -20 -20 -20 -20 -20 -20 -20 -20
13 13 11 4 3 7 3 2 6 6 4 4 2 -5 -15 -20 -20 -20 -20 -20 -20 -20 -20 -20 -20 -20 -20 -20 -20 -20 -20 -20 -20 -20 -20 -20 -20 -20 -20 -20 -20 -20 -20
10 8 4 -4 -11 -19 -19 -14 -6 -5 -7 -20 -20 -20 -20 -20 -20 -20 -20 -20 -20 -20 -20 -20 -20 -20 -20 -20 -20 -20 -20 -20 -20 -20 -20 -20 -20 -20 -20 -20 -20 -20 -20
-5 -9 -0 1 -13 -20 -15 -18 -20 -20 -20 -20 -20 -20 -20 -20 -20 -20 -20 -20 -20 -20 -20 -20 -20 -20 -20 -20 -20 -20 -20 -20 -20 -20 -20 -20 -20 -20 -20 -20 -20 -20 -20
-11 -11 -4 -0 -4 -8 -8 -20 -20 -20 -20 -20 -20 -20 -20 -20 -20 -20 -20 -20 -20 -20 -20 -20 -20 -20 -20 -20 -20 -20 -20 -20 -20 -20 -20 -20 -20 -20 -20 -20 -20 -20 -20
-20 -20 -20 -20 -20 -20 -20 -20 -20 -20 -20 -20 -20 -20 -20 -20 -20 -20 -20 -20 -20 -20 -20 -20 -20 -20 -20 -20 -20 -20 -20 -20 -20 -20 -20 -20 -20 -20 -20 -20 -20 -20 -20

GFSGL_prec_radar_114.txt.gz
Reflectivity
-20 -20 4 12 11 -20 -20 -20 -20 -20 -20 -5 30 30 32 27 19 28 35 27 31 25 33 34 34 33 33 33 31 27 21 23 14 6 29 14 -15 -20 -20 -17 11 -11 12
-20 -13 12 12 3 -12 -20 -20 -13 14 -18 -12 25 31 29 26 36 29 30 34 37 33 31 26 30 37 31 23 24 19 20 19 24 9 19 -7 -16 0 2 10 12 1 0
-20 -17 16 16 9 7 -20 -20 -19 -13 10 -15 11 25 31 32 28 32 33 39 38 33 32 32 29 30 20 14 19 19 19 18 12 27 27 -5 3 4 28 17 2 23 23
-20 -20 5 11 11 10 -1 -20 -20 -20 6 13 15 -4 19 32 33 31 39 36 26 29 22 5 17 15 16 14 8 -4 -11 -20 -19 -18 1 23 24 16 13 13 26 22 14
-20 -20 9 9 10 13 11 8 6 -15 -19 -10 5 15 16 18 28 27 34 24 32 24 6 24 11 -10 0 -8 -15 -20 -19 -20 -4 -3 13 7 -4 5 5 7 10 20 18
-20 -20 -20 1 7 12 11 9 9 2 -15 -20 -12 -8 17 19 28 29 34 21 21 10 -3 -20 -20 -20 7 7 -20 2 7 10 -17 8 -6 -13 16 28 19 -7 -18 -20 -20
-20 -20 -20 -7 7 9 15 17 22 13 11 15 -5 -8 0 15 24 25 24 18 -10 -19 -20 -20 -20 -20 -1 -20 -2 1 6 12 6 -10 8 -13 4 6 -11 -17 -20 -20 -20
-12 -20 -16 3 -16 12 14 15 -5 14 15 11 11 16 18 -0 18 8 3 -18 -16 -13 3 2 -19 -12 11 17 -6 7 4 -1 3 10 7 -5 -14 -20 -20 -19 -18 -13 -20
10 -14 -20 -20 -20 6 12 12 -2 12 21 0 14 12 4 -15 17 15 9 9 9 5 9 10 14 10 21 14 3 -14 5 13 17 12 0 3 -19 -20 -19 -20 -20 -20 -20
23 12 -20 -8 -20 -20 -12 5 13 -9 13 17 19 5 22 2 14 19 18 9 15 8 5 10 17 17 18 11 -3 -3 15 17 12 6 12 14 15 12 5 -16 -15 -16 -20
23 28 19 -5 -20 -20 -20 -6 5 5 12 14 3 -5 -15 -7 6 16 23 5 2 -11 -1 1 10 15 15 16 14 -3 11 20 25 26 14 6 2 -15 -16 -15 -20 -20 -20
20 5 23 23 7 -2 -20 -17 -0 5 5 4 6 9 8 12 28 27 18 19 20 12 15 18 21 21 15 14 19 22 24 24 24 22 17 14 9 1 -10 -20 -20 -20 -20
34 35 16 -6 5 22 20 24 14 1 1 0 1 0 1 -2 6 17 18 20 21 17 17 21 22 22 21 21 20 18 16 16 17 16 14 10 -2 -18 -20 -20 -20 -20 -20
15 33 14 35 21 34 35 33 33 28 36 21 24 19 30 13 30 19 22 28 27 24 23 18 21 24 24 24 25 22 18 18 15 7 1 -5 -10 -20 -20 -20 -20 -20 -20
21 4 26 31 4 13 26 21 11 2 13 12 -2 9 14 16 16 22 27 27 18 21 26 25 22 21 18 14 14 9 -1 -0 -4 -14 -20 -20 -20 -20 -20 -20 -20 -20 -20
22 19 26 -6 -17 -4 14 14 22 24 21 21 20 15 20 20 17 21 27 34 28 26 22 10 7 1 -6 -17 -20 -19 -20 -20 -20 -20 -20 -20 -20 -20 -20 -20 -20 -20 -20
17 7 18 18 20 17 22 18 9 17 19 17 19 23 24 21 8 7 4 2 8 13 17 20 17 7 -20 -19 -14 -14 -20 -20 -20 -20 -20 -20 -20 -20 -20 -20 -20 -20 -20
13 19 1 13 12 12 11 14 19 16 15 19 24 22 15 12 4 -1 5 10 11 6 -3 -12 -16 -11 -15 -20 -20 -20 -20 -20 -20 -20 -20 -20 -20 -20 -20 -20 -20 -20 -20
0 4 9 15 16 13 10 9 8 6 7 15 13 11 10 9 1 -8 -9 -15 -17 -12 -13 -17 -20 -20 -20 -20 -20 -20 -20 -20 -20 -20 -20 -20 -20 -20 -20 -20 -20 -20 -20
8 11 8 2 8 -1 4 7 11 12 6 -3 -4 -11 -18 -14 -16 -19 -19 -18 -15 -17 -20 -20 -20 -20 -20 -20 -20 -20 -20 -20 -20 -20 -20 -20 -20 -20 -20 -20 -20 -20 -20
12 14 10 12 12 12 14 10 -1 7 4 3 -1 -6 -16 -9 -12 -14 -14 -13 -20 -20 -20 -20 -20 -20 -20 -20 -20 -20 -20 -20 -20 -20 -20 -20 -20 -20 -20 -20 -20 -20 -20
-8 3 9 5 10 -1 5 7 -4 -7 -15 -11 -17 -19 -12 -7 -15 -20 -20 -20 -20 -20 -20 -20 -20 -20 -20 -20 -20 -20 -20 -20 -20 -20 -20 -20 -20 -20 -20 -20 -20 -20 -20
-1 -6 -7 2 0 -10 -4 1 1 -8 -16 -19 -20 -20 -20 -20 -20 -20 -20 -20 -20 -20 -20 -20 -20 -20 -20 -20 -20 -20 -20 -20 -20 -20 -20 -20 -20 -20 -20 -20 -20 -20 -20
-8 -7 -3 6 6 8 6 3 -0 -13 -20 -20 -20 -20 -20 -20 -20 -20 -20 -20 -20 -20 -20 -20 -20 -20 -20 -20 -20 -20 -20 -20 -20 -20 -20 -20 -20 -20 -20 -20 -20 -20 -20
-20 -10 -8 -4 -17 -20 -20 -12 -20 -20 -20 -20 -20 -20 -20 -20 -20 -20 -20 -20 -20 -20 -20 -20 -20 -20 -20 -20 -20 -20 -20 -20 -20 -20 -20 -20 -20 -20 -20 -20 -20 -20 -20
-20 -20 -20 -20 -20 -20 -20 -20 -20 -20 -20 -20 -20 -20 -20 -20 -20 -20 -20 -20 -20 -20 -20 -20 -20 -20 -20 -20 -20 -20 -20 -20 -20 -20 -20 -20 -20 -20 -20 -20 -20 -20 -20

GFSGL_prec_radar_117.txt.gz
Reflectivity
-20 -10 -20 -20 -20 -20 3 -14 -20 -20 -5 -3 19 27 29 40 22 3 10 -5 -1 -8 -0 16 27 25 30 28 29 31 24 24 22 24 25 10 27 17 28 2 5 -11 5
-20 -19 -20 -20 -20 -19 3 2 4 -20 -3 -20 -20 -7 31 40 29 35 33 25 11 -3 25 29 34 28 31 25 28 30 26 25 25 27 29 26 26 23 26 9 4 17 11
-8 -20 -19 -20 -20 -20 -9 -20 0 1 -20 -20 -20 6 18 27 26 25 32 26 33 32 33 30 32 23 9 18 29 26 24 24 23 23 26 24 23 24 26 6 18 31 1
27 -6 -4 -20 -20 -20 -14 -1 -20 -20 1 -11 -11 9 24 29 33 29 28 34 37 36 38 36 22 20 23 25 28 24 23 26 27 24 24 14 15 13 23 26 1 -6 7
25 2 -9 -20 -20 -20 -20 14 -20 -20 11 5 6 -6 21 27 32 30 26 28 39 37 35 30 26 33 28 25 26 26 28 25 23 23 22 19 12 22 -2 18 -8 13 21
23 -10 -19 -20 -20 -20 -20 -3 -3 -6 11 10 4 5 5 5 25 25 30 36 37 26 26 23 13 19 28 26 25 23 18 6 15 -6 15 12 20 22 -9 -13 2 -3 -8
13 -14 -6 -20 -20 -20 -14 4 9 -19 1 -1 6 -10 0 11 20 23 30 30 18 32 38 33 28 26 18 8 9 11 7 4 9 5 6 17 9 -1 5 4 1 -9 -18
10 -14 -13 -20 -20 -18 -10 3 6 8 5 -15 -2 -0 13 12 14 22 27 28 26 16 25 18 -6 9 4 -15 -20 -20 -9 10 8 2 -14 -16 -8 -2 6 4 -15 -5 0
17 -15 -14 -20 -20 -8 -5 9 7 15 15 13 15 14 4 -1 21 21 14 -6 -2 13 12 -19 -20 -9 19 6 -16 4 -1 2 21 17 -3 -6 -11 -5 6 12 7 13 13
17 16 22 -18 -20 -1 5 8 14 8 15 14 -6 3 21 11 21 26 19 17 19 14 1 11 18 9 20 0 -9 -9 3 -4 -9 -8 1 9 8 14 18 17 17 17 17
17 16 -20 -20 -17 9 8 11 10 6 2 17 6 11 16 -9 7 9 20 1 -4 -10 -9 -4 3 13 9 23 15 -12 -5 2 12 9 1 -5 2 -1 -2 -0 5 5 4
35 27 -18 -19 -15 -6 6 12 -2 9 3 3 5 4 11 10 16 12 4 17 19 17 4 2 15 21 9 13 11 14 17 17 18 15 15 17 17 16 1 -19 -20 -20 -19
33 42 21 -0 -1 4 -2 -20 -12 -4 -17 -19 -20 -20 -15 -15 5 16 19 19 17 15 14 21 21 15 14 18 23 12 9 16 19 14 -2 -9 -20 -20 -20 -20 -20 -20 -20
32 39 41 35 28 22 21 27 29 0 2 -0 10 -5 -17 -9 1 6 15 16 18 18 20 25 28 27 21 25 23 21 22 19 5 -20 -20 -20 -20 -20 -20 -20 -20 -20 -20
24 39 28 35 26 16 33 32 36 25 36 37 -0 10 14 5 2 15 14 15 18 20 16 20 25 26 27 19 14 11 4 3 -4 -20 -20 -20 -20 -20 -20 -20 -20 -20 -20
19 17 23 30 41 37 16 12 15 26 21 23 23 20 15 18 12 11 14 17 8 13 13 1 6 1 -8 -1 1 1 -15 -20 -20 -20 -20 -20 -20 -20 -20 -20 -20 -20 -20
20 21 18 22 28 34 7 22 2 13 15 17 16 16 11 20 19 20 26 26 23 19 5 -20 -20 -20 -20 -20 -20 -20 -20 -20 -20 -20 -20 -20 -20 -20 -20 -20 -20 -20 -20
4 19 12 20 20 21 21 28 23 30 27 22 22 17 22 23 16 8 4 4 7 3 -5 -10 -18 -20 -20 -20 -20 -20 -20 -20 -20 -20 -20 -20 -20 -20 -20 -20 -20 -20 -20
-5 -7 4 10 13 11 14 14 11 7 6 16 16 9 4 -2 2 5 6 -0 -20 -20 -20 -20 -20 -20 -20 -20 -20 -20 -20 -20 -20 -20 -20 -20 -20 -20 -20 -20 -20 -20 -20
6 10 6 4 10 1 5 7 15 13 6 -0 3 1 -13 -9 -14 -12 -12 -18 -20 -20 -20 -20 -20 -20 -20 -20 -20 -20 -20 -20 -20 -20 -20 -20 -20 -20 -20 -20 -20 -20 -20
-14 -5 -5 -1 2 8 11 13 13 10 7 9 5 -4 -17 -18 -20 -20 -20 -20 -20 -20 -20 -20 -20 -20 -20 -20 -20 -20 -20 -20 -20 -20 -20 -20 -20 -20 -20 -20 -20 -20 -20
1 -7 4 0 2 1 8 13 13 11 8 10 10 5 2 -1 -20 -20 -20 -20 -20 -20 -20 -20 -20 -20 -20 -20 -20 -20 -20 -20 -20 -20 -20 -20 -20 -20 -20 -20 -20 -20 -20
-2 -2 3 6 6 4 4 4 7 9 8 8 4 -12 -20 -20 -20 -20 -20 -20 -20 -20 -20 -20 -20 -20 -20 -20 -20 -20 -20 -20 -20 -20 -20 -20 -20 -20 -20 -20 -20 -20 -20
-3 -2 4 10 11 8 6 2 1 -6 -14 -14 -12 -19 -20 -20 -20 -20 -20 -20 -20 -20 -20 -20 -20 -20 -20 -20 -20 -20 -20 -20 -20 -20 -20 -20 -20 -20 -20 -20 -20 -20 -20
-18 -19 -16 -3 -4 -11 -6 -2 -4 -10 -20 -20 -20 -20 -20 -20 -20 -20 -20 -20 -20 -20 -20 -20 -20 -20 -20 -20 -20 -20 -20 -20 -20 -20 -20 -20 -20 -20 -20 -20 -20 -20 -20
-20 -20 -20 -20 -20 -19 -15 -13 -17 -20 -17 -20 -20 -20 -20 -20 -20 -20 -20 -20 -20 -20 -20 -20 -20 -20 -20 -20 -20 -20 -20 -20 -20 -20 -20 -20 -20 -20 -20 -20 -20 -20 -20

GFSGL_prec_radar_120.txt.gz
Reflectivity
5 -3 16 26 28 7 -20 -20 -20 -20 -11 10 15 21 29 16 11 -7 30 31 21 0 10 -20 -20 -20 -18 9 15 17 21 25 24 25 26 27 26 19 21 22 20 16 24
-15 6 21 21 1 8 -5 4 -20 -13 8 6 -6 13 34 18 26 29 -18 3 19 11 -20 -3 -5 8 6 13 16 17 21 10 9 27 32 30 26 29 29 19 19 10 13
10 12 21 13 -0 7 5 8 -20 -20 -12 -7 6 3 2 13 24 38 31 16 -16 -20 -19 18 -7 11 23 31 8 12 14 24 26 34 31 24 27 20 29 18 18 14 12
11 11 21 16 -16 -4 9 -18 -20 -20 -3 -3 3 -7 -20 16 30 28 30 27 21 24 33 30 31 28 34 34 14 7 19 19 28 28 26 29 20 17 14 9 3 16 -1
24 23 20 -14 1 6 13 -20 -18 3 1 5 4 -20 -5 -7 21 22 27 34 34 36 38 32 33 36 34 29 14 6 17 16 27 22 27 22 22 19 22 13 3 -3 7
26 25 20 6 13 13 12 -20 -7 -20 -6 -3 -2 -20 -20 10 22 32 31 32 33 32 34 32 35 31 34 30 20 24 28 24 26 29 29 22 20 23 20 11 13 5 -3
23 23 15 11 11 15 3 -1 -2 -20 -20 -14 -20 -20 -19 -19 3 24 26 23 30 32 33 34 29 21 22 12 25 28 24 24 19 20 15 9 11 1 -4 5 9 -7 -20
17 26 5 10 4 15 4 -6 -20 -20 -17 -7 -4 13 -12 2 -20 -9 11 20 28 14 22 31 30 31 25 29 29 21 21 18 6 -3 -8 7 8 3 -8 -13 -18 -8 -7
24 23 14 14 -4 14 -20 -20 -20 -20 -10 -14 -15 -14 -20 -13 17 -3 11 31 29 24 17 27 28 31 29 23 12 13 10 4 8 14 17 16 15 10 8 -4 5 12 7
30 29 21 14 -15 7 -13 -20 -20 -18 -18 -20 -20 -19 15 -15 18 16 9 3 20 17 15 24 16 9 -10 -5 -17 -8 -20 -13 4 12 5 9 10 7 10 10 7 2 7
27 29 28 13 9 8 -7 -20 -20 -19 -10 -3 10 -16 2 -7 11 16 14 -12 -20 -20 -20 -10 -6 -0 6 -20 -10 -15 -12 2 14 6 -10 -8 2 8 7 9 -5 -20 -20
31 36 34 17 7 -14 1 -4 -12 -15 -12 2 1 -4 -19 -1 17 15 11 18 15 -20 -20 -15 -2 2 -3 -1 4 10 -3 -1 -7 2 11 14 15 13 9 -11 -16 -20 -20
38 15 29 26 7 17 10 16 4 9 6 2 1 11 -9 -5 2 15 16 13 14 -0 -17 14 22 14 13 12 10 13 11 14 14 14 17 12 -2 1 4 -4 -20 -20 -20
35 41 28 42 23 12 15 6 15 5 -0 -1 6 -15 -19 -16 -13 -5 6 11 12 14 17 12 11 13 12 15 17 16 13 10 7 1 -19 -11 -20 -19 -19 -20 -20 -20 -20
29 37 32 40 36 24 25 21 12 0 10 4 -17 -2 9 -10 -5 9 6 5 19 21 18 17 20 20 9 -12 -14 -13 -20 -20 -12 -8 -13 -18 -13 -17 -16 -20 -20 -20 -20
23 23 36 33 35 42 39 25 29 33 31 36 40 29 34 28 37 23 14 11 13 16 13 17 15 6 -18 -20 -20 -20 -20 -20 -16 -11 -7 -18 -20 -20 -20 -20 -20 -20 -20
16 24 31 30 36 30 33 36 33 24 26 21 22 23 24 26 26 25 19 20 17 16 6 -2 8 10 8 -3 -20 -20 -20 -20 -20 -20 -20 -20 -20 -20 -20 -20 -20 -20 -20
11 14 18 19 33 19 24 31 14 12 9 16 17 21 21 19 20 22 23 17 -3 -15 -10 -20 -20 -20 -20 -20 -20 -20 -20 -20 -20 -20 -20 -20 -20 -20 -20 -20 -20 -20 -20
-2 15 13 20 19 18 29 31 27 26 27 23 29 30 18 18 13 5 -4 -16 -20 -20 -20 -20 -20 -20 -20 -20 -20 -20 -20 -20 -20 -20 -20 -20 -20 -20 -20 -20 -20 -20 -20
10 11 8 8 16 23 22 14 7 13 16 12 14 13 10 -10 -19 -20 -20 -20 -20 -20 -20 -20 -20 -20 -20 -20 -20 -20 -20 -20 -20 -20 -20 -20 -20 -20 -20 -20 -20 -20 -20
12 12 3 -7 -3 2 13 19 21 21 18 9 1 -13 -20 -19 -18 -20 -20 -20 -20 -20 -20 -20 -20 -20 -20 -20 -20 -20 -20 -20 -20 -20 -20 -20 -20 -20 -20 -3 -3 -20 -20
5 2 13 13 14 14 13 10 6 5 4 -16 -10 -6 -1 -6 -20 -20 -20 -20 -20 -20 -20 -20 -20 -20 -20 -20 -20 -20 -20 -20 -20 -20 -20 -20 -20 -20 -20 -2 -3 -2 -3
0 3 5 7 8 7 7 9 6 1 -5 3 7 5 3 -2 -14 -20 -20 -20 -20 -20 -20 -20 -20 -20 -20 -20 -20 -20 -20 -20 -20 -20 -20 -20 -20 -20 -4 -2 -4 -2 -3
2 8 6 4 5 6 1 -5 -15 -11 -1 -1 -6 -14 -20 -20 -20 -20 -20 -20 -20 -7 -10 -20 -20 -20 -20 -7 -20 -20 -20 -20 -20 -20 -20 -20 -20 -20 -20 -20 -20 -4 -3
-3 -10 -12 -20 -20 -20 -20 -20 -20 -20 -20 -18 -16 -20 -20 -20 -20 -20 -20 -20 -20 -20 -20 -20 -20 -20 -20 -20 -20 -20 -20 -20 -20 -20 -20 -20 -20 -20 -20 -20 -20 -20 -3
-15 -11 -20 -20 -20 -20 -20 -20 -19 -19 -20 -20 -20 -20 -20 -20 -20 -20 -20 -20 -20 -20 -20 -20 -20 -20 -20 -20 -20 -20 -20 -20 -20 -20 -20 -20 -20 -20 -20 -20 -20 -20 -18

GFSGL_prec_radar_126.txt.gz
Reflectivity
-20 -1 10 9 -12 12 10 11 -14 -20 -15 -20 -20 -17 -20 -20 -20 -20 -7 14 30 31 33 28 31 28 35 -5 -20 -20 -16 15 13 -20 -20 -20 -20 -19 -15 -20 -20 -20 -4
-20 -20 13 -3 4 5 15 16 20 5 -20 -20 -20 -20 -20 -20 -20 -20 15 -10 24 29 30 34 33 29 33 20 -20 10 24 20 -20 -8 -20 -20 -4 -5 1 -12 -1 11 -18
-20 -20 -20 16 -14 -15 17 18 11 21 13 2 -20 -20 -20 -20 -19 -20 -20 -20 9 28 28 31 32 34 30 31 10 12 23 16 9 -20 -20 -20 -20 -20 -11 -4 -20 -11 12
-20 -20 -20 1 12 8 16 16 9 27 5 16 -12 -20 -20 -20 -14 1 1 -20 -20 -2 24 30 30 33 34 28 27 32 19 23 3 -2 -20 -20 -18 -0 -19 -16 -11 -3 16
-20 -20 -20 -16 13 15 19 17 8 24 -6 10 13 13 14 -4 -10 -20 -15 -20 -15 -4 10 19 32 32 34 31 24 22 15 -13 14 23 7 -2 13 10 11 -16 4 18 17
-20 -20 -20 -20 7 20 18 24 12 13 4 12 -7 -20 -20 -19 16 12 -8 4 -14 -15 -4 26 33 32 30 27 18 26 -2 12 17 26 31 28 22 18 8 8 16 18 12
-20 -20 -20 -20 -6 15 7 25 12 14 -13 1 -6 -20 -20 -20 18 21 24 8 9 15 26 29 25 24 26 27 32 31 26 35 31 30 27 22 26 14 21 20 14 15 9
-20 -20 -20 -20 15 16 28 21 16 10 1 13 -16 -10 -20 -10 9 11 8 -20 -19 20 29 28 27 31 33 33 33 35 36 35 32 23 24 30 26 25 17 7 7 7 19
-20 -20 -20 -20 7 3 32 24 19 17 12 17 4 -14 -20 -19 6 7 14 -20 -20 3 30 33 31 35 38 37 35 36 35 31 30 26 30 30 27 22 14 13 26 14 12
-20 -20 -20 -20 10 16 29 31 -3 -13 14 20 13 8 9 -20 7 11 18 -5 -20 -20 -3 16 29 31 32 33 30 32 30 28 24 26 24 15 15 18 20 6 3 -4 4
-20 -20 -20 -20 4 29 25 29 -18 6 17 17 18 17 15 -9 3 11 17 5 -6 -20 -20 -20 -2 13 23 29 27 26 24 23 24 25 16 9 8 10 8 -0 -2 1 -13
-20 -20 -20 -20 -18 34 29 31 -3 18 13 13 14 12 13 -10 14 13 13 15 3 -20 -20 -20 -1 7 17 16 13 17 18 15 5 6 2 -4 5 6 2 -3 -9 -14 -20
-20 -19 -16 -20 -17 22 32 30 7 16 15 17 12 17 11 8 -1 13 12 14 10 -16 -20 -9 -3 -3 1 17 21 19 19 11 13 7 -6 4 7 9 3 -14 -19 -20 -20
4 7 -18 -19 -14 27 30 39 22 16 19 12 13 11 8 2 12 -6 3 11 18 10 14 8 10 17 23 23 25 17 -6 1 4 3 3 7 4 -0 -19 -20 -20 -20 -20
8 -2 -8 -8 3 7 34 38 30 24 27 20 19 21 17 -6 12 14 7 -1 8 9 21 13 -1 -2 -17 -7 -6 2 5 7 11 15 12 9 3 -18 -18 -20 -20 -20 -20
8 -18 -9 -11 17 29 30 35 37 25 33 26 27 24 17 20 20 13 10 19 20 20 15 8 20 12 8 11 5 8 16 15 14 12 -9 -17 -17 -20 -20 -20 -20 -20 -20
-6 -1 4 10 15 24 31 30 35 32 27 26 34 28 26 10 21 22 24 18 18 16 9 17 19 19 20 21 18 14 8 -9 -19 -20 -20 -20 -20 -20 -20 -20 -20 -20 -20
-10 1 15 15 23 23 26 26 30 32 23 24 25 20 23 22 25 24 23 21 26 26 23 25 24 20 16 17 15 9 -11 -20 -20 -20 -20 -20 -20 -20 -20 -20 -20 -20 -20
12 4 18 17 20 28 29 28 27 28 27 26 27 25 23 28 29 27 26 23 22 21 21 22 21 19 3 -5 -16 -15 -20 -20 -20 -20 -20 -20 -20 -20 -20 -20 -20 -20 -20
3 7 14 15 20 26 25 26 27 29 28 27 28 30 29 28 26 26 26 25 25 23 19 18 16 12 -14 -9 -2 1 -1 -6 -20 -20 -20 -20 -20 -20 -20 -20 -20 -20 -20
-1 5 6 15 16 14 19 23 26 27 28 28 28 28 28 24 25 25 21 23 22 18 14 6 -1 -1 -0 1 -1 -9 -20 -20 -20 -20 -20 -20 -20 -20 -20 -20 -20 -20 -20
6 5 11 9 14 16 16 18 18 20 24 24 24 24 24 21 17 16 16 15 14 13 10 5 -8 -4 3 4 -4 -20 -20 -20 -20 -20 -20 -20 -20 -20 -20 -20 -20 -20 -20
-0 8 6 6 6 10 13 16 17 18 19 19 15 15 12 8 3 5 6 9 9 6 5 3 -9 -16 -20 -20 -20 -20 -20 -20 -20 -20 -20 -20 -20 -20 -20 -20 -20 -20 -20
2 -2 -8 -10 -3 -2 2 5 6 7 10 11 11 9 8 7 3 -2 -1 -0 -4 -19 -20 -20 -20 -20 -20 -20 -20 -20 -20 -20 -20 -20 -20 -20 -20 -20 -20 -20 -20 -20 -20
0 -3 -8 -7 -7 -3 -8 -14 -7 -4 -10 -11 -6 -11 -12 -5 -8 -13 -20 -20 -19 -12 -15 -20 -20 -20 -20 -20 -20 -20 -20 -20 -20 -20 -20 -20 -20 -20 -20 -20 -20 -20 -20
-5 -6 -4 -5 -5 -7 -9 -20 -20 -20 -14 -8 -11 -20 -18 -19 -17 -17 -20 -5 -15 -20 -16 -20 -20 -20 -20 -20 -20 -20 -20 -20 -20 -20 -20 -20 -20 -20 -20 -20 -20 -20 -20

GFSGL_prec_radar_132.txt.gz
Reflectivity
-17 -11 -20 -20 -20 -20 -20 -20 -20 -15 26 18 5 -1 2 21 27 13 5 11 9 18 18 11 22 8 28 32 26 28 24 23 21 -12 1 -3 -20 -13 -2 -19 4 -20 -6
-19 -19 -20 -20 -20 -20 -20 -20 7 5 14 19 7 -16 -14 6 12 9 9 14 -2 -7 -3 24 10 14 37 29 23 24 22 26 -6 -20 -1 -2 -20 -14 0 -4 21 17 20
-20 -20 -20 -20 -20 -20 -20 -20 -20 4 -6 14 28 -6 -15 -1 -20 20 -13 -11 -0 -7 -3 -14 0 0 31 33 36 25 27 29 13 -20 1 -18 -5 -4 1 27 14 30 24
-20 -20 -20 -20 -20 -20 -20 -20 -20 -11 11 22 15 26 -3 -4 -20 -20 -12 -15 -20 -12 -4 -10 -11 3 21 32 35 34 35 28 26 9 24 7 6 14 14 14 35 24 22
-20 -20 -20 -20 -20 -20 -20 -20 -20 -20 -6 14 26 24 21 -19 11 -20 9 14 -4 8 -20 -10 -18 8 21 30 29 35 33 28 31 24 14 10 27 18 23 23 24 25 10
-20 -20 -20 -20 -20 -20 -20 -20 -20 -20 -20 12 17 28 -9 -9 14 11 -9 -20 -20 -20 -20 -20 -15 14 0 -16 27 27 33 26 23 20 25 -5 20 34 31 30 29 14 20
-20 -20 -20 -20 -20 -20 -20 -20 -20 -20 -2 -15 10 11 24 17 12 1 1 -20 2 -20 -20 -18 -13 -20 19 -7 17 30 28 30 31 29 10 -2 25 19 27 33 26 23 25
-20 -20 -20 -20 -20 -20 -20 -20 -20 -20 -15 -20 -2 22 49 25 14 -6 10 -4 -3 -14 9 -7 -20 -14 12 12 36 24 31 30 31 28 28 32 31 29 29 27 31 34 31
-20 -20 -17 -20 -20 -20 -20 -20 -20 -20 -15 -7 4 -3 26 -4 8 -4 6 -19 -18 -20 15 -13 -0 25 22 16 34 30 36 35 29 27 33 32 32 32 29 31 30 30 31
-20 -20 -20 -20 -20 -20 -20 -20 -20 -20 -20 -20 -3 25 -19 -6 12 0 -6 -20 -13 5 15 15 14 16 22 11 18 29 27 35 27 27 32 32 29 29 33 25 32 29 30
-20 -20 -20 -20 -20 -20 -20 -20 -20 -20 -20 -17 -7 38 34 -3 -19 -4 6 -20 4 13 15 11 -4 15 -8 14 21 19 21 33 33 36 32 32 29 27 29 32 34 30 24
-20 -20 -20 -20 -20 -20 -20 -20 -20 -20 -20 -10 7 15 25 30 2 9 2 8 11 9 -17 7 12 -9 5 9 22 31 37 36 32 32 30 33 30 29 31 33 28 22 15
-20 -20 -20 -20 -20 -20 -20 -20 -20 -20 -20 -1 1 21 31 26 2 5 9 6 7 9 15 15 15 4 -3 5 10 23 30 32 33 34 29 32 33 33 34 29 20 14 -6
-20 -20 -20 -20 -20 -20 -20 -15 -20 -20 -20 -18 0 -5 27 39 -6 -19 -6 -4 11 13 14 5 -2 5 15 7 1 8 9 17 21 17 22 30 29 23 13 4 -9 -16 -16
-20 -20 -20 -20 -20 -20 -18 -13 -20 -20 -15 -11 -5 1 24 28 35 13 2 -6 -20 -4 -2 -11 -12 -10 -4 -7 -4 1 12 22 16 8 7 3 3 7 1 -1 -15 -17 -15
-20 -20 -20 -20 -20 -20 -20 -20 -19 -20 -4 -1 9 13 24 34 40 30 22 17 9 9 9 -16 -20 -20 -18 -1 -17 -17 -2 12 -10 -7 2 -9 -16 -19 -18 -4 3 2 -2
-20 -20 -20 -20 -20 -20 -20 -20 -20 -20 -11 9 8 6 17 27 30 28 27 33 18 18 9 -20 -20 -14 1 -9 -4 5 -3 -3 10 14 16 12 -2 -4 4 7 8 -6 -20
-18 -16 -20 -20 -20 -20 -20 -20 -20 -20 -15 8 20 24 24 25 28 29 34 31 25 22 12 20 21 16 16 12 3 9 8 10 16 15 13 9 3 4 7 1 -13 -20 -20
-9 16 5 6 9 -3 -9 -20 -20 -20 -0 14 18 23 23 23 25 28 31 30 36 30 30 22 15 15 14 15 20 20 19 20 18 14 12 11 6 -7 -20 -20 -11 -17 -20
13 -13 8 17 8 16 16 -12 -20 -16 -16 7 15 19 21 23 26 26 25 27 28 31 29 27 24 24 25 24 23 21 18 15 14 14 10 -8 -15 -5 -2 -3 -17 -20 -20
9 6 4 2 8 15 17 8 -16 -1 7 10 17 21 23 24 29 29 28 28 29 30 29 28 28 24 21 20 19 17 13 10 7 1 -1 -3 -7 -4 -20 -20 -20 -20 -20
-9 12 7 17 13 8 -1 9 -5 4 10 11 15 21 24 25 26 26 27 27 28 27 25 23 23 22 20 16 14 15 14 8 -4 -1 4 2 -16 -20 -20 -20 -20 -20 -20
-20 -17 2 -5 6 9 9 9 2 7 13 15 17 20 24 24 23 22 22 23 24 25 24 22 19 16 14 13 14 13 5 3 -1 -18 -20 -19 -16 -20 -20 -20 -20 -20 -20
-20 -20 -20 -6 8 8 5 9 13 13 15 18 19 19 20 21 22 22 22 21 18 18 16 16 15 13 10 10 12 11 6 -7 -15 -19 -8 -18 -20 -20 -20 -20 -20 -20 -20
-20 -20 -20 -20 -20 -16 3 6 7 10 13 14 16 17 17 17 16 16 16 16 16 14 14 14 12 11 11 7 0 -3 -4 -11 -18 -20 -20 -20 -20 -20 -20 -20 -20 -20 -20
-20 -20 -20 -20 -20 -20 -20 -9 1 6 10 11 12 14 15 15 13 12 12 12 12 13 11 10 9 9 8 6 -2 -15 -20 -20 -20 -20 -20 -20 -20 -20 -20 -20 -20 -20 -20

GFSGL_prec_radar_138.txt.gz
Reflectivity
-19 25 -12 -15 -20 -20 -20 -20 -20 -20 -20 1 -16 -20 -14 -6 5 -10 -19 8 -9 -8 8 13 12 27 0 6 -13 -14 -1 -12 3 5 20 39 27 30 10 -20 -20 -20 -20
5 13 14 -20 -20 -20 -20 -20 -20 -20 -20 -19 -16 -15 -1 1 -9 31 16 -4 -2 11 16 14 21 14 -18 1 -16 -5 -19 -20 23 32 24 37 29 33 27 3 -20 -20 -20
-20 -20 -20 -20 -20 -20 -20 -20 -20 -20 -20 -16 -19 -20 3 7 16 -16 -7 6 5 9 19 2 22 27 -20 -19 -10 13 -16 19 25 25 16 16 28 29 29 29 -7 -20 -0
-20 -20 -20 -20 -20 -20 -20 -20 -20 -20 -20 -20 -20 -20 -20 10 -2 18 21 20 3 13 10 16 24 6 -6 -13 17 15 10 16 30 12 24 13 26 28 29 29 23 10 -12
-20 -20 -20 -20 -20 -20 -20 -20 -20 -20 -20 -20 -20 -18 -18 -14 8 -17 -3 2 -4 11 -16 1 2 12 11 8 11 -3 6 -10 5 10 20 20 27 26 27 26 25 18 21
-20 -20 -20 -20 -20 -20 -20 -20 -20 -20 -20 -20 -20 -20 -19 -19 18 20 6 7 28 -10 -20 -20 -15 -20 -0 -6 0 5 -10 -2 -7 1 11 13 25 24 26 34 30 30 27
-3 -10 -20 -20 -20 -20 -20 -20 -20 -20 -20 -20 -20 -20 -20 -20 5 11 13 13 21 30 -7 -20 -20 -20 6 -20 17 9 11 20 -11 -20 -15 8 31 23 24 33 33 31 26
-11 -11 -16 -20 -20 -20 -20 -20 -20 -20 -20 -20 -20 -20 -20 -20 -20 -13 13 -2 20 16 27 -2 -20 10 8 -11 15 15 11 7 4 -6 -19 -10 7 38 33 27 34 35 32
4 -13 -20 -17 -16 -20 -20 -20 -20 -20 -20 -20 -20 -20 -20 -20 -20 -19 12 17 15 10 18 44 14 15 17 -1 11 18 -9 6 22 13 17 16 15 29 33 34 35 32 27
-20 -20 -20 -16 -13 -20 -20 -20 -20 -20 -20 -20 -20 -20 -20 -20 -20 -20 0 -11 21 -1 0 36 13 12 15 6 2 21 -20 -20 -3 10 13 19 20 27 29 31 38 33 30
-20 -20 -20 -20 -20 -20 -20 -20 -20 -20 -20 -20 -20 -20 -20 -20 -20 -7 6 -12 1 8 -11 18 -2 21 -6 6 15 -5 -10 -11 8 20 27 21 28 26 30 31 33 34 35
-20 -20 -20 -20 -4 -14 -20 -20 -20 -20 -20 -20 -20 -20 -20 -20 -6 -15 8 11 19 10 36 28 17 0 -12 -18 10 15 10 -1 -18 -11 -2 21 24 21 19 30 33 29 31
-20 -20 -20 -20 -20 -20 -20 -20 -20 -20 -20 -20 -20 -20 -20 -20 -20 -10 5 8 10 7 -4 29 26 -10 11 13 11 12 10 -2 -20 -20 -13 5 15 27 27 34 34 32 32
-20 -20 -20 -20 -20 -20 -20 -20 -20 -20 -20 -20 -20 -20 -20 -20 -20 -20 -17 3 20 16 33 30 32 13 18 14 12 3 -7 -20 -16 -20 -4 18 15 19 22 31 32 32 34
-20 -20 -20 -20 -20 -20 -20 -20 -20 -20 -10 -5 -17 -20 -20 -20 -18 -16 -0 -15 -12 2 9 7 19 11 9 -5 -12 -20 -20 -16 -12 -18 1 17 9 17 24 33 32 31 24
-20 -20 -20 -20 -20 -20 -20 -20 -20 -20 -17 -18 -5 -11 -15 -14 -20 -14 6 14 12 17 20 24 25 29 7 -2 -6 -4 -19 4 -20 -19 -6 -2 9 20 25 24 22 22 22
-20 -20 -20 -20 -20 -20 -20 -20 -20 -20 -20 -20 -20 -9 2 -11 -11 7 7 8 -8 5 5 16 21 20 12 -2 -4 4 -19 -18 -16 -3 3 10 13 18 21 16 5 -3 2
-20 -20 -20 -20 -20 -20 -20 -20 -20 -20 -20 -20 -20 -20 -19 -12 6 9 8 7 -12 2 1 10 19 24 21 3 8 8 4 -14 -13 -1 9 13 16 13 5 -3 -6 -9 -10
-20 -20 -20 -20 -20 -20 -14 -11 -20 -20 -20 -20 -20 -20 -20 -19 -17 -12 -2 -6 -8 6 18 24 24 24 17 14 16 10 -4 -13 -3 3 12 12 11 8 12 3 -3 9 6
-20 -20 -20 -20 -20 -20 -20 -20 -20 -20 -20 -19 -11 -20 -20 -20 -20 -16 -10 -6 8 13 22 26 25 27 25 24 22 20 18 18 16 14 16 15 9 11 15 16 11 7 6
-20 -20 -20 -20 -20 -15 -9 -12 -1 -19 -20 -20 -10 -7 -5 -5 2 -1 3 10 12 19 20 20 18 23 24 24 22 25 27 25 20 20 19 16 15 16 16 13 10 6 15
-20 -20 -20 -20 -20 -20 -6 -11 8 3 -1 -1 8 8 4 8 10 9 8 11 15 17 19 17 18 23 24 25 25 24 23 24 23 22 20 18 14 12 15 16 14 11 8
-20 -20 -20 -20 -20 -20 -20 -20 -9 4 3 8 12 14 13 12 12 13 15 16 15 18 22 23 23 24 24 23 22 20 18 18 18 18 18 18 17 17 16 14 11 9 9
-20 -20 -20 -20 -20 -20 -20 -20 -20 -19 -12 6 11 10 12 16 16 17 16 17 16 18 19 21 22 21 20 21 21 20 20 20 20 20 18 14 11 10 10 8 6 5 5
-20 -20 -20 -20 -20 -20 -20 -20 -20 -19 -16 -3 6 8 12 14 14 14 16 18 19 19 21 23 24 23 23 22 21 19 18 16 16 15 15 14 12 8 9 10 9 8 3
-20 -20 -20 -20 -20 -20 -20 -20 -20 -13 -9 -6 2 6 8 10 11 11 11 11 13 16 15 16 17 16 16 14 13 14 14 14 13 10 7 8 9 7 7 6 4 4 1